GFSSW_prec_cthk_000.txt.gz
RH
25 27 28 28 21 18 21 22 19 22 21 21 22 23 24 23 22 20 25 29 19 10 14 11 17 17 14 20 25 26 32 40 36 34 31 18 15 16 19 27 29 31 31 29 24
26 27 28 27 24 21 18 21 25 23 25 25 23 24 24 23 21 26 27 19 14 11 12 14 16 17 19 20 26 26 24 25 24 22 23 14 16 10 10 16 16 20 33 31 27
28 26 22 25 23 20 24 17 26 27 29 28 26 23 22 24 29 27 16 14 12 13 16 23 25 23 24 25 21 24 26 21 18 16 17 13 15 8 14 14 15 15 15 28 25
30 30 26 24 24 26 20 23 26 29 29 27 22 21 21 29 42 20 15 14 13 14 17 21 22 25 29 25 25 27 24 23 18 9 9 9 9 7 11 15 13 16 18 34 32
31 29 27 24 26 26 23 25 27 28 25 21 19 18 29 40 37 14 15 15 14 17 24 31 37 34 28 27 20 26 20 15 8 5 9 10 10 13 11 12 12 17 23 34 36
29 27 24 29 27 27 27 27 27 21 23 21 19 18 30 41 23 16 14 16 22 23 28 33 34 30 25 21 22 14 11 8 8 10 9 10 12 11 16 13 13 17 24 32 41
33 26 26 27 29 28 26 21 20 24 23 19 17 22 35 38 18 17 15 19 19 26 26 22 25 23 21 19 23 13 16 14 13 15 16 12 19 19 20 18 16 16 19 31 39
31 33 33 31 26 19 20 23 25 24 21 16 14 16 30 20 15 14 15 15 16 20 18 15 14 25 28 16 12 14 21 27 22 19 18 16 32 29 25 20 18 20 21 23 38
30 28 22 19 19 21 24 25 23 21 19 16 15 26 28 12 12 13 13 18 14 15 13 11 13 17 17 16 19 19 29 32 30 23 22 22 38 36 28 22 19 23 28 26 29
26 20 20 20 22 24 25 23 22 20 19 18 22 31 17 18 15 14 15 18 21 20 18 19 22 22 22 33 36 34 26 27 21 23 15 18 28 31 27 24 21 22 26 33 34
24 21 19 22 24 24 22 22 22 22 28 32 22 24 15 12 13 15 14 16 20 23 31 21 34 39 28 24 26 29 24 23 32 23 19 19 24 26 25 26 26 26 27 30 37
22 21 23 23 24 23 30 44 34 25 23 21 18 16 15 15 13 12 14 19 18 27 22 19 30 31 26 15 19 26 23 26 25 20 16 30 30 28 27 29 29 28 29 33 37
25 23 24 23 23 24 36 37 26 19 20 18 16 14 14 16 16 13 15 17 20 26 20 29 25 14 14 20 18 24 21 29 27 24 18 25 38 33 35 33 33 31 32 36 38
28 25 24 21 22 26 34 22 19 20 21 13 15 13 14 15 14 11 12 18 20 24 23 23 20 19 22 23 20 28 25 23 20 22 34 31 35 45 44 43 42 38 34 37 40
29 26 24 21 30 30 27 18 19 27 41 18 16 13 12 18 17 15 11 15 19 19 22 31 26 28 28 27 22 28 26 22 22 24 25 33 35 46 49 50 49 45 42 40 44
28 26 23 29 29 31 23 16 18 43 42 17 17 20 17 16 16 17 15 17 19 22 24 24 21 23 24 23 21 23 26 26 27 29 42 33 42 58 53 54 58 51 49 44 47
25 25 24 31 33 25 18 15 34 38 19 21 21 22 22 19 21 21 21 23 31 32 32 29 28 26 24 32 31 28 34 44 58 61 51 46 42 52 46 52 55 53 49 48 51
22 23 23 26 29 20 18 29 39 26 23 20 21 22 25 23 21 25 31 28 26 31 38 45 52 33 30 31 33 33 34 49 52 58 53 43 34 55 47 50 48 43 47 52 55
20 20 21 21 20 19 29 47 37 21 24 21 21 25 24 23 27 30 31 27 27 34 39 39 40 29 26 25 28 35 37 25 37 45 42 28 53 58 54 56 53 53 50 56 61
20 20 26 19 16 19 35 42 34 23 20 21 24 30 35 30 31 35 32 33 32 27 26 28 39 27 26 35 36 30 28 40 49 56 49 44 46 66 62 67 65 55 55 56 64
26 24 29 15 15 25 41 34 26 20 21 23 34 30 43 33 36 37 37 34 32 29 28 27 36 31 34 32 34 39 45 35 33 41 49 51 44 49 55 55 53 56 60 62 59
24 36 29 14 21 24 42 32 24 19 21 28 34 36 38 35 40 38 38 38 32 28 32 25 28 39 31 29 27 30 35 34 47 47 54 55 43 47 53 58 67 66 69 67 63
37 49 22 15 35 47 37 30 27 23 26 30 36 37 40 40 40 38 40 36 30 30 34 27 34 42 40 44 39 34 39 36 43 47 47 66 57 59 67 73 70 71 71 65 61
50 40 20 26 46 35 33 29 29 29 30 34 38 36 38 39 36 39 39 35 28 26 22 29 28 30 37 33 31 32 32 38 41 57 54 58 54 57 67 71 69 65 63 59 60
53 35 21 27 36 35 33 31 32 30 31 36 37 37 38 40 40 40 37 31 28 23 27 28 32 31 30 29 29 31 33 36 42 45 54 51 55 60 64 62 61 59 60 64 62
47 42 30 39 30 33 36 33 33 32 34 37 38 40 41 40 36 38 31 28 31 30 33 30 40 38 37 31 30 31 33 36 38 43 48 53 55 65 65 58 62 61 65 66 67
40 36 37 34 35 36 36 33 35 35 37 39 42 43 41 37 36 34 32 33 32 35 36 38 41 40 44 37 38 52 43 41 45 48 53 60 60 63 63 66 68 64 64 66 69

GFSSW_prec_cthk_003.txt.gz
RH
23 21 24 26 26 23 20 22 22 17 21 22 21 21 24 22 22 21 20 22 25 19 13 11 11 14 18 32 38 40 40 42 50 47 41 35 23 18 22 26 30 30 30 28 22
21 23 24 25 25 24 20 18 22 22 23 22 24 24 23 21 22 26 27 21 19 16 13 12 15 18 30 35 33 31 29 36 31 36 34 28 18 12 19 21 25 29 30 25 24
24 25 26 23 24 24 21 19 16 24 25 29 26 23 23 26 29 26 19 15 23 14 15 22 21 27 35 32 27 26 26 28 30 27 23 20 14 12 13 14 13 18 26 27 25
28 26 27 25 18 20 20 17 20 23 31 31 27 23 29 34 37 21 14 17 17 15 17 20 24 25 27 27 26 25 25 24 22 21 15 11 11 10 12 13 15 17 20 24 28
31 30 28 27 23 24 26 19 22 27 32 30 26 24 38 37 31 21 16 18 17 18 23 28 30 30 25 24 26 26 21 20 22 16 8 7 8 9 12 14 16 17 21 26 28
34 30 27 26 24 26 24 22 25 31 31 26 19 32 38 39 30 18 17 20 22 25 33 32 35 34 29 29 23 18 14 9 5 4 7 8 10 12 14 13 15 18 24 27 30
32 29 26 26 26 28 27 27 31 30 24 20 21 31 34 32 25 17 19 22 24 27 30 27 34 32 27 26 17 15 9 10 11 13 13 13 19 20 19 19 18 16 23 29 31
33 28 23 25 28 29 29 27 24 25 23 18 19 27 32 25 15 16 16 18 21 23 19 24 29 27 20 17 16 12 19 22 23 27 21 24 27 26 30 26 19 17 20 24 31
28 30 27 28 30 28 24 25 26 24 21 17 19 29 28 14 11 13 11 15 17 16 14 17 20 18 20 19 27 29 32 33 34 27 22 25 28 30 29 25 26 23 23 25 29
28 33 30 27 26 24 26 26 25 23 20 19 26 32 20 17 13 12 13 14 16 15 12 12 25 28 34 31 34 35 36 36 34 26 21 22 33 37 29 27 26 24 25 32 32
26 24 23 25 26 26 25 25 24 24 25 26 32 22 15 16 15 16 16 20 19 23 27 30 32 32 30 31 36 34 29 33 32 27 25 22 32 34 32 31 29 30 32 34 37
26 23 25 27 26 24 29 36 36 33 27 24 24 21 19 17 15 16 17 20 23 25 29 30 32 38 38 29 24 32 29 33 26 24 21 23 34 30 31 33 33 32 35 35 37
23 23 28 27 27 34 42 42 35 27 25 21 19 15 17 18 17 12 16 19 25 26 25 27 28 20 22 26 20 28 31 30 26 22 18 24 38 37 36 39 44 42 42 39 39
25 27 27 25 33 36 39 32 25 23 22 15 14 12 14 14 14 11 15 20 23 28 24 25 26 23 21 21 21 26 26 24 21 21 27 30 46 43 40 40 41 45 44 46 44
28 27 25 26 34 38 35 22 23 25 41 19 16 15 14 20 17 14 11 18 22 24 24 29 26 25 25 26 22 26 24 21 21 24 28 31 45 53 54 60 53 52 51 54 54
29 28 26 28 34 35 30 21 25 48 46 18 15 15 15 16 19 17 14 19 20 23 24 26 23 22 22 21 22 23 27 29 32 31 41 38 49 65 62 58 54 57 58 60 48
29 28 28 31 34 29 22 19 41 50 20 21 21 22 20 22 19 20 21 24 30 32 34 30 31 24 25 29 30 28 33 50 51 63 57 43 51 69 61 59 58 59 61 54 53
29 28 28 31 32 25 17 29 38 29 27 21 21 25 24 21 24 30 26 25 29 37 40 42 55 31 27 32 32 30 33 49 56 70 55 43 56 60 57 60 64 65 58 61 60
25 26 25 23 27 20 24 48 39 28 24 22 22 31 29 26 29 33 33 28 25 31 43 45 44 30 20 21 31 35 30 26 42 45 46 47 55 61 62 63 64 66 64 66 60
23 23 23 20 24 20 37 48 33 24 25 21 25 31 36 26 29 34 31 31 30 31 32 37 38 26 31 34 32 29 26 38 43 48 48 50 61 69 66 65 62 60 61 57 62
23 22 23 20 20 24 42 40 26 23 23 22 31 36 44 34 38 39 35 34 31 28 25 33 35 32 32 34 34 35 38 32 31 44 53 59 52 53 59 56 58 57 64 64 64
24 30 30 19 18 28 34 38 26 21 21 24 32 35 40 37 40 39 42 37 30 30 28 27 34 40 31 30 26 26 31 34 48 52 60 61 48 46 54 57 62 68 67 64 66
30 39 37 16 24 35 39 32 28 19 22 24 32 34 37 36 43 43 41 35 30 31 31 28 31 44 41 39 31 30 33 36 44 47 49 61 56 59 61 60 68 70 66 67 63
45 46 37 19 30 38 38 35 32 27 26 26 31 34 40 41 39 42 40 35 26 21 24 29 28 30 43 32 30 28 28 33 43 59 53 56 49 48 59 66 65 66 66 64 62
54 44 30 22 42 40 40 33 30 30 28 29 33 37 38 41 40 43 41 31 27 23 25 27 36 32 29 26 28 27 28 30 35 41 52 47 51 60 64 66 74 74 70 65 69
55 44 21 25 36 36 38 36 35 32 29 29 34 41 41 42 40 42 38 32 33 28 28 28 39 34 33 34 33 30 31 31 33 37 41 46 56 60 61 63 69 66 68 70 69
70 52 34 44 29 41 41 34 38 35 30 31 39 46 46 43 38 37 35 32 33 31 35 35 39 42 46 39 41 46 34 35 36 40 45 52 58 61 62 65 70 72 70 70 67

GFSSW_prec_cthk_006.txt.gz
RH
22 22 21 20 23 25 25 21 24 22 21 18 21 21 21 22 23 22 20 25 25 20 17 14 15 15 19 20 33 39 41 41 45 50 52 48 43 36 36 35 30 28 29 25 22
22 21 21 22 24 25 25 22 21 23 19 24 23 24 23 24 21 21 25 23 19 19 20 12 13 19 32 34 37 38 34 40 45 53 47 42 38 28 23 25 29 29 30 27 18
20 23 24 24 24 23 26 21 21 16 20 27 28 25 25 21 24 27 25 17 17 21 15 16 19 33 37 37 34 31 29 30 34 44 35 31 20 20 14 17 16 18 23 24 21
25 28 27 25 25 21 21 21 18 24 21 31 30 27 22 32 36 21 16 17 21 19 20 24 32 38 37 34 32 27 25 24 33 28 26 23 13 13 11 12 14 17 18 23 25
29 31 30 27 26 22 19 21 17 19 23 33 31 29 33 36 29 20 19 19 27 19 24 32 38 36 33 31 30 26 26 26 25 22 21 14 9 9 10 11 15 18 22 23 26
32 33 31 28 26 24 23 25 17 22 31 34 30 39 39 35 24 19 22 23 27 28 33 34 37 35 32 33 29 27 19 17 22 21 11 8 8 9 13 16 19 19 21 23 29
30 31 29 27 24 24 25 23 23 27 33 31 31 40 34 28 22 21 28 28 32 34 37 35 30 31 27 26 25 20 15 6 10 16 9 9 14 17 21 21 22 20 22 27 31
28 31 30 25 25 26 27 28 30 33 32 27 32 32 31 29 19 26 25 23 28 33 35 33 34 32 25 23 18 13 15 19 22 21 18 20 23 28 27 22 23 25 25 28 32
25 30 27 26 27 30 32 31 30 25 22 26 28 28 26 18 15 17 20 21 24 27 29 26 31 30 25 21 24 26 22 26 26 28 25 23 25 30 23 24 26 26 29 33 38
27 30 24 24 31 33 28 25 24 23 21 22 27 27 19 15 11 13 15 16 18 24 19 23 25 26 26 26 30 32 31 28 36 32 29 33 29 27 29 31 27 28 30 31 32
28 31 29 37 32 26 26 26 25 22 20 28 28 22 18 16 12 12 12 14 16 17 19 25 32 32 31 33 36 37 34 31 35 36 34 36 33 34 36 36 36 36 35 37 40
25 28 29 26 28 28 28 32 30 31 31 28 24 21 21 19 16 15 16 18 21 29 35 33 33 34 33 31 36 40 36 38 36 31 31 36 37 40 41 40 39 41 42 46 53
23 25 28 29 29 35 35 36 35 32 33 25 23 22 25 22 19 20 23 26 27 29 28 31 32 31 34 37 34 38 38 36 34 29 27 33 40 44 46 43 41 43 48 54 58
23 28 29 28 32 33 36 38 34 31 29 22 18 20 21 20 17 15 19 25 26 26 26 30 28 27 23 24 26 28 36 36 32 26 29 34 51 49 47 46 45 51 54 57 58
26 29 26 28 35 37 38 34 27 28 36 18 19 17 18 20 14 13 16 24 26 26 27 29 29 29 27 26 22 26 25 24 22 25 26 37 50 54 51 50 50 55 58 58 57
29 28 25 32 37 37 34 25 27 45 35 22 18 16 17 21 19 13 20 25 27 27 27 31 29 26 26 25 25 24 25 30 32 31 40 43 49 58 56 55 59 65 61 61 57
28 27 27 32 37 32 27 24 45 50 24 19 18 17 19 18 18 17 21 24 29 29 28 30 28 23 24 26 25 24 31 46 49 55 54 47 59 61 60 61 63 66 60 58 56
28 28 29 29 34 29 25 32 43 29 27 20 22 24 26 26 27 26 24 29 30 34 36 41 46 29 28 33 32 31 33 49 55 63 60 51 58 56 59 64 68 60 62 62 67
29 28 28 26 30 26 24 47 42 32 24 23 27 30 26 28 28 30 31 29 33 38 39 47 41 27 22 28 33 31 29 29 40 46 46 48 49 51 54 59 62 72 73 66 63
28 27 24 25 27 23 36 46 36 26 23 21 24 27 32 24 29 31 34 29 29 35 39 40 33 27 30 29 26 23 25 34 37 40 48 50 52 58 58 60 60 59 56 57 61
26 25 23 23 24 20 46 43 30 24 23 20 26 32 38 32 31 34 33 31 32 30 32 36 30 35 35 35 31 30 30 31 33 41 48 58 51 46 51 51 52 50 54 62 72
26 26 23 22 23 26 39 39 27 24 23 25 29 35 39 40 41 41 40 36 31 30 28 34 34 41 31 28 25 25 30 32 42 42 52 56 50 46 49 53 59 61 63 67 79
24 34 30 24 24 28 37 34 29 26 24 24 30 37 40 41 45 43 43 38 31 30 29 29 34 42 41 38 29 29 29 33 36 41 42 52 44 46 53 57 61 63 66 69 74
30 42 37 26 23 26 38 33 32 26 24 22 29 35 37 40 39 44 41 35 25 29 28 30 32 31 40 31 28 26 26 32 36 49 46 48 40 49 54 55 59 60 65 67 75
40 38 31 24 22 36 40 35 33 29 24 24 26 33 37 40 41 43 39 34 25 25 28 30 31 30 28 29 29 28 27 29 32 36 42 39 43 51 54 57 59 61 66 70 74
46 38 33 22 23 35 42 37 31 29 28 27 26 33 39 40 37 41 37 34 28 29 30 30 35 31 27 33 35 29 28 29 29 30 35 43 50 51 55 61 66 70 72 73 72
49 40 25 24 34 36 41 36 34 34 29 28 32 36 42 43 41 41 40 38 32 32 35 32 36 34 38 42 38 36 30 30 31 35 35 42 48 54 59 63 66 69 71 73 75

GFSSW_prec_cthk_009.txt.gz
RH
30 24 20 21 20 20 22 26 23 21 20 20 21 17 19 21 23 23 24 22 26 25 20 20 23 18 27 33 33 36 35 45 51 57 64 58 53 50 48 42 35 32 30 25 27
30 22 21 20 21 21 23 26 23 21 21 24 21 22 24 22 23 22 21 25 27 20 18 20 15 18 30 35 35 36 39 43 49 50 54 49 43 42 39 36 30 29 32 30 24
22 22 21 25 25 23 24 25 22 20 22 22 23 25 25 23 22 23 28 23 18 20 21 22 18 25 34 35 36 35 36 42 44 53 54 44 39 27 26 26 22 19 24 24 19
23 22 24 28 27 25 24 25 23 20 15 19 26 28 26 24 32 26 23 19 20 21 26 20 29 33 32 30 33 34 32 33 42 44 38 30 25 23 14 15 16 16 18 23 23
23 25 29 31 28 26 24 18 20 18 21 23 32 29 27 33 28 25 22 22 23 27 22 33 37 39 36 35 35 29 27 27 28 31 26 23 19 13 10 12 18 20 23 23 28
24 28 31 32 30 27 24 20 19 19 19 27 34 35 35 33 28 25 24 25 33 31 31 37 38 39 38 34 30 27 25 24 22 23 23 16 10 10 11 20 22 22 23 25 30
26 28 29 30 30 26 24 23 24 18 25 33 41 40 34 29 26 24 27 36 32 32 36 35 36 36 34 35 27 26 23 12 18 19 15 8 10 12 18 24 24 25 25 29 35
26 27 26 29 27 25 24 25 24 26 30 34 43 37 29 26 23 26 29 36 32 39 39 38 39 35 29 30 28 25 18 21 19 16 13 15 18 20 26 26 26 28 32 35 36
27 25 31 29 24 26 28 27 30 32 34 37 34 30 32 26 22 25 29 34 33 37 39 37 38 32 30 27 26 22 22 28 29 26 23 20 25 32 28 26 29 34 34 34 36
24 27 26 25 27 30 33 35 35 29 28 31 33 29 26 21 20 23 28 29 32 35 33 31 31 32 29 22 24 24 31 28 30 26 28 28 29 29 26 25 33 35 36 35 35
21 29 24 26 30 34 35 28 27 25 28 25 31 26 21 16 16 21 20 23 32 34 29 27 32 30 29 26 28 28 29 30 35 35 35 34 36 37 33 37 39 37 38 40 43
24 30 30 34 39 30 29 33 31 28 27 30 25 22 20 17 13 13 16 21 25 29 19 27 30 27 31 39 37 36 31 30 31 36 34 37 40 42 39 42 42 41 48 49 54
23 30 34 35 28 32 36 32 32 31 36 26 24 23 21 18 15 14 15 18 20 27 26 28 28 33 40 40 41 42 39 37 38 38 36 34 43 45 45 48 48 49 55 58 61
23 28 30 31 32 33 33 34 33 32 33 25 24 24 24 21 19 20 25 28 27 28 28 34 30 30 32 32 36 43 40 37 39 40 44 35 54 48 50 55 56 55 59 63 63
26 28 31 30 35 32 37 34 34 32 37 21 21 20 23 22 19 26 29 30 29 30 29 34 33 32 29 26 26 32 33 36 38 39 38 38 46 47 53 56 57 58 64 63 68
27 30 30 32 33 36 36 31 30 43 33 22 21 19 21 21 17 18 25 28 31 31 32 30 28 29 28 26 26 27 31 35 37 36 44 39 45 51 52 55 62 64 64 65 69
29 30 29 34 34 36 32 28 38 53 24 20 19 16 22 22 20 16 24 30 33 34 34 31 29 28 27 28 27 27 32 44 45 49 50 42 50 51 49 54 60 64 65 68 62
29 30 30 36 36 31 31 33 44 32 26 18 18 19 21 21 22 21 26 28 27 29 33 36 36 27 28 29 28 29 33 44 46 56 45 44 53 52 52 54 56 56 56 60 65
30 31 29 34 35 30 31 45 43 33 24 22 25 27 28 28 25 25 25 27 29 31 37 41 39 26 30 32 30 29 30 33 45 52 52 50 45 46 47 50 52 53 56 64 71
30 31 29 31 30 30 37 53 41 30 25 25 27 28 30 30 30 32 32 30 31 36 38 45 40 29 28 30 32 27 28 33 37 39 46 45 44 46 44 48 50 54 57 54 53
31 31 28 27 28 29 40 48 37 28 27 25 26 28 32 30 32 34 36 34 30 37 41 44 36 33 33 34 31 31 28 30 34 41 45 53 46 37 41 43 47 49 46 50 57
32 31 27 25 26 31 38 42 33 28 27 25 26 29 38 38 36 37 38 34 33 33 38 40 41 43 34 30 27 26 27 28 36 38 49 50 40 34 38 42 44 49 52 58 62
30 33 29 26 28 30 34 38 32 26 26 27 28 33 39 44 45 43 41 40 32 31 34 33 37 45 41 34 28 27 28 31 32 38 43 46 37 36 40 44 49 51 56 59 64
30 39 32 28 22 22 33 36 32 29 27 27 28 36 41 45 46 47 44 39 30 31 31 33 36 31 39 32 29 26 27 31 31 42 39 41 34 41 42 46 51 55 56 60 65
32 35 26 32 27 26 34 37 32 31 26 25 26 33 40 46 44 45 43 37 30 29 31 30 32 33 31 31 27 27 27 31 33 33 37 32 35 38 44 48 51 54 58 63 67
36 35 27 22 20 28 36 38 34 30 27 23 24 30 35 41 38 44 40 35 31 29 32 32 38 34 32 33 33 28 28 29 29 29 32 34 38 38 44 50 55 58 62 66 69
42 37 27 32 22 28 36 36 32 30 30 27 27 30 33 41 41 39 38 36 35 31 33 34 40 31 30 39 35 29 26 28 26 29 31 40 35 41 50 54 56 60 63 66 69

GFSSW_prec_cthk_012.txt.gz
RH
25 31 32 29 22 21 21 21 20 23 20 21 19 19 18 16 19 20 24 23 26 31 27 21 21 23 22 21 31 33 35 41 52 62 63 58 55 64 58 55 50 42 36 27 28
26 30 26 23 21 21 23 22 22 23 21 21 22 23 22 23 21 23 22 23 26 26 21 20 22 24 22 28 38 37 40 44 51 56 65 61 50 56 52 49 43 36 33 30 27
27 30 23 23 22 25 27 24 23 24 21 23 24 20 26 25 23 23 22 25 27 22 21 22 24 24 24 37 38 37 38 35 40 57 56 52 49 52 40 36 30 25 27 29 24
28 27 22 22 25 29 28 24 23 24 20 18 16 23 28 25 32 29 30 28 21 20 22 18 21 23 38 37 37 36 37 40 44 48 43 39 44 42 29 21 21 18 19 21 22
27 23 20 24 28 31 28 25 23 23 22 19 26 29 30 29 29 25 23 23 22 21 26 29 28 37 38 37 35 34 35 32 35 38 39 34 34 28 20 20 24 24 22 26 29
23 20 22 27 31 32 29 26 22 16 16 18 27 31 35 34 31 27 26 26 25 33 31 36 38 39 40 37 34 31 29 31 33 36 33 24 22 15 14 23 24 23 24 29 33
22 20 24 28 29 29 30 26 23 20 20 22 30 40 37 32 29 28 27 29 30 28 39 39 41 38 36 34 32 29 24 19 19 22 26 18 11 15 24 28 24 27 32 34 37
21 22 25 26 26 28 27 25 24 23 22 29 38 40 36 30 30 34 30 35 34 34 40 41 40 39 37 33 29 27 19 14 18 16 14 10 16 19 32 31 29 33 34 34 37
22 23 25 27 29 27 25 25 26 27 29 37 42 40 34 32 30 29 33 38 38 41 42 41 39 36 34 32 29 29 26 22 18 16 17 20 28 30 32 37 32 35 37 38 37
22 24 23 27 28 26 27 31 31 33 35 43 40 32 33 29 28 31 35 38 40 41 39 40 38 36 33 29 29 24 24 27 26 24 28 26 38 40 35 36 37 39 41 42 44
24 24 25 26 25 30 34 37 37 33 30 30 33 33 30 29 25 30 32 36 40 38 40 40 38 38 35 30 26 25 30 36 32 25 35 41 42 42 38 36 40 41 44 46 48
24 23 25 24 30 37 42 38 33 32 32 30 32 25 23 22 24 29 29 35 38 39 38 35 36 35 35 31 30 29 32 34 34 34 36 44 43 40 39 36 37 38 43 50 51
25 23 28 32 41 45 35 32 32 32 35 31 27 24 21 18 18 23 24 32 37 37 30 26 30 31 33 31 34 37 32 34 37 39 41 42 43 41 41 41 43 44 48 53 56
25 22 32 39 39 37 31 31 32 32 33 27 25 24 21 17 16 18 19 30 35 36 36 31 33 35 34 39 41 40 40 36 42 43 50 42 56 45 46 47 48 50 53 55 56
23 23 34 33 36 36 33 31 29 34 39 23 24 24 25 21 18 19 22 23 28 27 25 28 31 33 39 35 32 37 39 38 40 43 45 45 52 45 50 52 54 56 57 57 58
24 28 33 35 37 38 31 29 32 45 36 24 26 27 28 26 21 24 27 28 29 31 29 31 33 32 31 30 27 27 33 40 43 43 47 38 42 45 49 46 53 57 59 61 61
25 31 32 37 37 34 29 32 41 52 25 23 22 21 23 25 26 29 32 33 33 35 37 34 33 30 29 29 28 29 33 45 46 53 50 39 42 37 40 47 54 58 60 62 58
28 33 30 38 37 34 34 34 41 38 25 20 19 18 24 23 21 22 27 32 32 33 39 40 38 29 27 29 29 29 34 45 45 53 43 40 46 41 41 45 51 55 56 56 57
31 34 34 37 36 35 33 41 42 34 25 19 20 22 24 24 24 23 26 29 29 27 31 37 34 26 29 29 32 31 34 35 47 50 51 49 41 42 44 43 45 46 50 53 56
34 36 33 34 35 35 35 42 44 34 26 22 23 25 28 28 28 26 28 30 29 30 32 37 38 31 31 36 33 33 32 35 40 37 43 42 40 41 38 39 41 44 47 52 53
39 36 32 32 34 32 40 40 42 33 27 26 28 30 30 31 32 34 33 32 30 30 35 44 43 36 32 33 36 33 31 31 33 40 43 50 41 32 35 37 41 44 46 50 53
40 35 33 31 34 36 38 41 40 32 31 30 28 29 36 40 39 37 36 36 32 32 38 47 48 50 34 34 33 30 29 28 35 30 46 47 35 29 33 36 38 42 47 51 54
35 36 36 31 34 36 37 42 39 30 31 30 29 31 40 47 49 41 40 38 34 32 38 42 45 52 40 35 31 27 30 30 30 36 40 46 32 29 30 33 38 43 47 53 56
35 40 39 34 27 27 34 39 38 32 31 30 31 31 41 48 48 50 47 40 38 34 33 36 39 36 39 31 31 28 29 28 29 40 37 38 26 31 33 36 40 45 50 54 60
35 37 34 39 32 26 32 38 36 34 30 29 30 30 40 49 48 49 46 40 38 35 35 33 36 36 35 33 30 26 25 30 30 29 33 28 29 27 32 36 40 46 51 56 61
34 36 33 31 26 28 32 34 35 33 31 27 28 31 33 43 43 46 40 39 35 36 35 34 37 35 36 36 34 29 27 27 29 28 32 31 30 28 31 36 42 45 51 56 62
34 33 32 32 30 30 31 35 37 33 32 30 26 27 29 36 42 41 38 37 35 34 34 31 39 32 30 38 33 28 23 25 25 25 26 31 25 30 33 35 40 45 50 57 64

GFSSW_prec_cthk_015.txt.gz
RH
19 19 20 26 29 23 21 20 19 19 19 22 19 21 19 18 16 17 18 20 21 26 28 24 26 23 24 25 25 30 38 44 50 57 65 69 64 64 61 63 67 58 46 36 39
19 18 21 26 27 22 21 21 24 22 21 22 19 22 23 21 22 21 19 22 24 31 30 24 23 24 23 25 23 29 41 39 50 59 60 64 62 61 61 70 60 50 36 32 30
19 20 22 25 23 20 21 25 26 22 22 22 22 25 21 26 24 24 21 21 23 29 25 23 24 25 24 25 30 39 38 37 51 54 61 53 48 53 60 51 35 29 31 28 27
19 22 24 23 20 20 24 28 26 22 22 21 19 18 21 28 31 28 28 26 29 23 22 21 22 23 27 32 37 39 42 41 46 49 47 45 44 47 44 33 27 24 21 19 24
20 24 24 21 19 23 28 29 26 23 21 21 20 23 30 30 28 27 26 24 24 21 19 18 21 27 32 41 39 39 38 38 40 43 45 39 36 39 34 26 26 25 27 26 27
22 25 23 20 22 26 29 29 26 24 18 17 20 28 31 35 30 28 26 26 26 23 28 27 33 40 42 38 36 35 36 32 35 41 42 34 31 27 27 29 26 26 32 35 35
24 27 22 21 24 27 26 26 27 23 20 16 20 29 36 32 30 27 28 28 32 34 35 38 39 38 40 38 35 31 28 25 34 35 38 28 24 20 26 31 32 41 40 39 42
26 26 22 23 26 25 26 26 25 24 22 22 25 36 36 32 27 30 31 31 38 41 40 41 41 42 41 38 32 30 24 17 20 30 32 18 17 25 33 35 37 37 39 40 43
27 25 22 25 25 26 28 25 25 24 25 26 35 40 41 29 30 37 36 36 40 44 43 45 41 40 38 32 31 29 25 19 21 23 20 16 24 30 35 38 38 38 39 41 45
27 24 24 25 25 25 26 25 29 29 30 34 39 45 40 32 34 37 35 39 41 44 45 43 40 36 35 32 31 28 29 25 21 20 22 29 38 38 41 43 43 40 43 43 45
26 23 25 24 25 25 28 33 34 35 35 39 42 34 32 33 33 34 33 42 46 41 42 45 39 36 34 31 28 24 24 29 30 32 38 41 39 42 41 39 42 44 45 48 49
26 23 24 25 23 28 34 40 42 37 34 35 35 33 32 29 30 32 31 40 47 42 44 40 39 38 36 33 31 29 30 39 37 36 34 39 43 42 37 37 38 42 45 48 51
24 23 24 23 25 36 41 44 40 32 35 35 35 31 28 30 27 30 32 38 41 41 41 41 38 38 37 37 38 38 39 39 40 42 39 37 40 41 37 37 37 39 41 44 48
23 23 23 28 38 44 40 35 35 36 35 32 30 28 27 22 26 25 30 34 41 42 40 33 31 38 38 40 40 37 39 38 44 45 47 40 36 44 42 40 42 44 48 54 58
23 22 25 34 43 33 34 37 33 38 43 28 27 26 25 19 21 24 26 32 39 41 40 39 35 33 38 40 38 38 42 41 38 37 38 40 38 39 44 45 46 47 51 56 57
23 23 28 39 36 33 35 33 32 41 41 24 26 26 24 23 19 22 27 29 38 41 40 36 31 34 33 36 39 40 37 41 42 39 39 38 38 36 44 41 46 50 54 56 53
24 25 30 42 35 37 33 32 37 46 29 26 27 30 30 26 22 26 30 32 32 38 36 31 33 35 33 37 34 31 33 39 41 45 39 39 39 29 31 37 45 49 52 55 57
26 29 34 41 38 35 33 31 37 38 32 26 25 28 32 30 27 29 31 33 31 31 36 36 33 30 30 31 29 30 30 39 43 45 38 37 40 31 35 39 48 51 53 51 49
29 32 36 40 39 36 33 42 38 40 27 24 24 25 26 26 25 30 32 33 33 33 34 38 36 31 29 30 30 31 31 33 41 44 42 39 36 34 38 40 44 45 45 48 50
31 35 36 41 38 35 39 39 39 37 29 22 22 22 25 26 26 24 26 29 29 29 29 31 34 31 30 33 34 33 31 36 39 41 38 32 35 28 32 32 35 39 41 44 48
37 40 41 39 38 34 42 35 43 37 30 22 22 26 26 27 30 28 28 29 30 30 30 31 37 40 36 33 36 35 35 34 32 36 31 33 24 26 27 28 30 34 39 43 48
42 45 42 37 39 38 39 39 43 36 29 28 26 31 30 34 36 34 35 32 32 32 31 34 46 49 40 33 33 35 32 28 31 30 37 37 25 23 25 27 31 35 40 44 49
47 47 45 35 38 39 36 39 40 35 32 30 29 29 36 44 47 42 36 35 35 31 33 36 50 53 43 36 34 33 32 30 30 33 36 43 23 24 26 28 31 35 39 44 49
50 51 47 36 32 33 36 38 43 37 34 32 33 32 38 47 51 54 46 40 38 38 34 37 44 43 40 34 32 32 32 29 27 32 31 32 24 22 26 27 30 34 38 43 48
49 46 38 42 34 31 33 38 45 39 34 32 33 33 35 47 50 52 51 46 44 43 38 34 37 39 38 36 32 28 30 31 27 26 29 24 25 22 23 26 30 35 39 43 48
46 44 35 35 32 31 33 39 45 40 37 32 32 34 33 42 47 52 47 42 35 43 38 35 37 37 41 37 34 30 27 26 28 28 26 27 25 22 25 28 32 34 39 43 48
48 39 30 39 37 33 32 33 42 40 38 34 29 32 34 36 42 43 41 37 37 38 37 36 39 33 32 36 32 30 24 24 24 25 25 29 20 24 26 29 30 34 39 44 48

GFSSW_prec_cthk_018.txt.gz
RH
16 18 18 17 18 20 22 21 19 19 24 23 19 19 19 19 18 16 16 14 17 21 22 23 26 23 23 27 26 25 25 38 55 60 56 59 58 59 67 68 71 64 58 45 57
16 18 19 18 19 21 21 20 19 23 26 22 21 19 19 20 19 21 20 18 21 24 27 28 29 26 26 27 26 27 29 38 54 57 63 58 61 60 65 71 68 68 49 42 44
16 18 18 19 21 21 19 18 23 26 26 22 21 20 22 22 24 25 20 20 22 26 31 29 26 28 27 27 27 27 32 39 48 57 53 55 55 61 65 65 51 45 41 41 38
16 20 19 20 22 20 18 22 26 28 25 22 20 20 19 23 33 27 23 21 24 28 26 24 25 25 24 25 30 30 35 42 48 53 52 50 48 51 57 54 40 34 38 29 31
17 20 20 22 23 18 19 25 27 27 24 22 19 20 22 30 31 27 27 26 26 23 22 23 23 24 24 35 38 40 42 42 45 46 52 46 43 44 49 35 32 30 33 29 29
18 20 21 23 23 17 20 25 26 25 24 22 17 21 27 34 30 27 24 25 26 26 26 25 24 27 38 40 40 40 41 38 42 45 41 38 32 36 35 36 36 33 35 37 39
20 21 23 24 21 18 22 24 24 25 24 20 16 18 28 35 30 29 27 28 34 30 29 29 32 36 39 43 40 38 36 36 37 46 48 31 29 23 32 35 40 42 40 45 45
22 23 25 26 19 20 22 24 25 25 23 22 22 24 35 34 27 30 30 32 38 37 37 35 40 40 40 38 36 33 31 28 32 37 42 29 27 24 29 38 41 44 46 49 48
23 23 25 23 20 21 24 25 25 25 25 24 26 31 37 33 29 34 31 38 41 43 43 40 44 45 41 37 34 31 23 19 23 32 34 20 23 27 34 40 45 47 49 48 48
24 24 26 21 21 22 25 25 26 28 29 28 31 41 38 34 32 37 36 43 45 47 47 47 44 42 38 36 32 30 31 20 20 26 22 23 30 30 38 43 45 45 46 49 52
25 25 25 21 21 23 23 27 32 34 30 31 35 40 36 34 36 38 40 47 46 49 51 45 40 37 37 34 32 28 30 29 25 23 24 31 39 40 43 47 47 46 45 47 49
27 25 24 20 21 22 25 31 35 36 37 37 42 37 31 32 35 38 39 46 45 47 44 43 44 37 38 35 30 26 28 38 38 37 36 36 38 41 39 40 42 44 44 46 49
27 27 23 19 21 23 32 38 41 41 42 37 37 32 31 30 35 36 42 45 44 42 45 46 43 42 39 36 35 35 36 40 40 36 35 35 36 34 35 33 36 39 41 43 45
28 27 23 19 24 31 38 38 40 37 36 34 32 30 29 29 29 34 39 46 47 44 47 45 40 40 40 38 38 38 37 37 41 40 40 39 35 33 36 37 31 34 36 40 45
29 26 23 21 32 37 39 39 36 36 41 32 29 29 29 30 28 28 31 38 42 45 42 39 34 35 39 38 38 41 36 35 32 37 36 35 32 43 37 36 39 38 41 45 53
29 25 23 25 40 39 40 36 35 41 40 27 26 27 23 25 27 27 28 33 41 45 44 41 41 37 34 35 38 39 34 37 42 41 38 34 31 34 35 33 36 41 43 49 55
30 25 24 32 44 37 38 36 35 41 30 24 24 26 27 26 23 26 27 31 38 41 44 41 39 37 32 36 36 36 39 39 40 40 37 34 30 24 28 29 33 39 45 49 51
31 26 27 37 46 43 36 33 32 27 29 24 25 30 32 26 22 23 29 33 34 37 43 39 38 33 33 36 35 37 36 34 35 37 31 33 27 27 28 29 36 43 46 48 50
33 27 31 37 47 43 35 38 27 31 31 26 27 33 33 31 25 27 32 32 33 31 34 32 33 31 31 31 31 33 31 31 34 37 35 25 28 27 29 32 37 42 44 46 47
33 29 34 40 47 43 36 31 26 35 31 25 24 26 29 29 26 29 31 32 34 34 33 33 36 31 31 30 30 29 29 32 31 38 34 25 23 23 26 28 32 37 38 41 44
39 38 39 43 50 48 36 28 30 39 31 25 23 23 23 26 25 24 26 29 28 27 25 25 28 33 32 30 31 33 31 30 31 34 26 22 18 19 21 24 27 30 35 40 43
42 43 42 48 54 39 31 28 34 39 32 26 23 24 22 22 24 25 24 25 25 26 28 27 32 39 40 36 30 32 33 30 28 28 31 34 18 17 19 22 25 29 33 39 44
42 50 52 56 49 41 32 31 38 39 32 29 24 29 30 32 35 35 32 33 31 30 31 29 32 40 42 40 35 31 31 29 27 28 30 37 18 18 19 20 23 29 33 38 41
46 58 57 54 42 34 31 33 37 40 34 31 31 30 32 36 41 46 37 33 34 34 33 31 33 40 46 38 34 34 31 28 26 27 23 23 17 19 19 20 21 25 30 35 41
47 57 51 52 41 34 32 33 38 41 37 35 31 30 30 40 46 49 47 41 41 39 38 33 35 38 40 37 33 29 27 27 25 24 26 17 19 16 19 20 21 25 29 34 39
53 59 58 43 37 33 34 36 38 42 37 34 33 32 33 37 40 47 44 45 43 42 39 36 37 36 38 35 34 31 26 24 25 23 23 20 19 20 20 21 22 24 28 33 37
53 56 50 46 36 34 30 36 39 45 40 35 33 33 34 36 38 47 47 43 40 36 40 38 37 35 32 34 34 37 26 23 22 23 23 25 21 23 23 24 25 28 29 33 38

GFSSW_prec_cthk_021.txt.gz
RH
14 15 15 16 16 16 17 19 18 17 17 20 22 19 19 18 19 19 18 18 15 16 21 24 24 26 27 28 26 28 28 29 36 46 71 54 51 52 51 53 69 64 59 59 54
16 15 15 16 17 17 18 18 17 17 21 23 21 20 19 18 20 20 22 20 18 18 22 25 30 29 27 28 28 27 26 29 47 67 57 54 52 53 55 53 58 67 60 47 52
17 17 16 17 18 18 19 17 16 20 24 22 20 21 20 22 28 30 23 20 19 21 29 32 33 32 30 27 29 25 33 40 40 60 61 61 56 56 67 64 58 62 52 43 44
19 18 18 18 18 18 20 17 16 22 25 23 21 20 20 20 40 34 25 19 21 25 30 32 31 31 32 29 28 32 38 33 39 60 49 49 52 55 73 81 56 49 47 44 44
21 20 19 18 19 19 20 16 17 22 23 23 21 18 20 30 35 31 26 23 24 27 26 27 30 32 29 28 27 36 38 35 49 55 45 47 50 63 69 44 45 36 38 36 39
23 22 20 19 20 21 20 16 19 22 22 23 21 18 22 35 34 29 23 22 24 25 25 28 32 31 32 37 41 41 39 42 45 47 62 45 42 68 45 43 37 33 37 36 36
26 23 21 20 21 22 18 17 20 22 22 23 19 17 24 33 34 30 26 26 29 32 33 32 33 31 40 43 44 44 42 42 39 50 40 46 33 38 31 47 41 41 46 42 41
28 24 22 22 22 21 17 19 22 23 23 21 20 21 27 34 34 31 32 34 36 35 31 34 36 38 40 45 39 40 39 39 38 46 50 37 40 24 29 48 50 53 53 52 51
29 25 23 23 23 20 17 20 22 22 22 22 23 28 37 35 32 31 34 39 43 40 38 34 39 44 45 45 40 41 34 36 30 39 39 44 43 20 28 46 57 55 52 51 50
29 26 24 23 23 19 18 21 22 23 25 25 27 35 35 39 37 33 32 43 46 46 43 43 45 47 46 43 39 34 31 24 30 33 37 26 35 22 33 45 58 60 58 56 50
29 27 26 24 22 19 20 22 25 29 23 29 33 38 40 37 34 35 35 46 47 52 53 49 51 47 43 43 39 35 33 24 28 27 30 28 31 27 35 46 50 52 54 57 54
28 28 28 25 22 19 20 27 38 46 37 28 33 36 39 35 37 39 36 49 51 52 52 51 49 48 42 40 35 31 30 35 29 18 28 28 36 34 39 46 48 47 51 55 53
29 30 28 25 22 19 19 27 37 38 44 40 39 38 38 32 38 39 39 50 53 51 53 51 51 39 42 39 37 36 32 43 37 29 26 39 44 34 34 38 40 44 50 53 53
29 32 29 24 21 22 26 31 38 41 48 40 35 31 28 30 36 42 39 50 46 51 51 51 48 44 42 43 41 41 34 41 37 38 36 31 35 46 34 29 34 34 41 45 49
30 34 30 25 27 27 40 38 42 45 55 41 35 31 30 29 34 38 36 46 48 46 47 50 45 43 44 48 34 56 38 36 35 33 47 40 31 48 53 37 31 34 35 38 42
32 37 32 25 22 32 40 43 43 52 54 31 29 26 29 31 31 42 34 39 48 45 49 51 40 38 45 34 34 32 36 34 35 33 40 31 43 42 54 44 38 34 36 42 46
33 39 33 24 33 37 45 45 45 53 35 27 25 26 28 27 30 33 31 34 41 45 44 50 45 41 37 36 31 34 42 44 43 47 43 42 37 32 34 45 43 36 36 43 45
35 40 33 26 38 41 50 45 54 34 35 23 24 24 32 31 28 28 39 38 38 49 47 47 48 33 31 39 46 38 43 48 41 41 35 39 31 27 31 24 24 37 39 43 43
37 43 34 26 35 46 52 51 41 33 34 21 24 27 33 29 31 26 31 37 40 32 47 43 49 45 34 32 31 42 35 37 43 38 34 22 25 34 27 22 27 38 39 43 42
41 44 33 33 39 52 51 41 41 37 32 22 25 27 37 31 24 24 34 44 41 30 29 43 47 39 32 29 28 28 37 34 29 39 38 28 30 25 31 21 25 35 36 39 41
50 50 33 37 45 59 47 32 40 32 28 24 27 28 35 36 29 30 40 38 30 32 32 37 35 45 35 29 34 38 28 27 35 44 40 30 27 30 16 21 22 27 35 34 37
53 52 43 40 51 52 44 35 36 35 32 27 28 27 26 33 28 33 31 34 30 31 28 29 30 38 35 37 29 31 39 41 36 36 32 34 23 20 15 17 22 24 30 32 36
55 56 56 48 54 56 45 41 39 39 32 28 24 28 26 26 28 27 32 35 30 27 29 28 26 36 40 32 30 29 27 30 33 34 28 38 25 22 18 17 19 22 27 31 35
62 61 59 54 52 53 54 41 36 40 34 30 26 29 29 35 35 39 39 32 31 30 30 28 29 33 41 53 48 39 31 31 31 31 26 25 22 22 21 21 20 22 24 31 33
63 51 46 53 50 67 50 38 33 37 36 32 33 28 32 35 39 41 45 41 33 34 33 34 34 36 36 42 42 34 32 30 29 25 30 22 24 20 22 22 21 24 24 26 33
61 53 53 55 47 58 49 37 35 40 36 34 33 29 33 38 36 45 48 48 44 41 39 35 38 36 37 34 35 34 29 26 25 23 25 22 23 22 23 23 23 23 26 27 32
66 60 59 63 54 48 48 41 39 46 41 41 34 38 35 40 37 40 49 48 47 48 45 40 42 39 33 34 33 36 29 26 24 23 24 26 24 26 29 27 26 27 31 30 33

GFSSW_prec_cthk_024.txt.gz
RH
21 19 17 15 14 14 15 16 16 16 14 14 18 19 17 17 18 19 20 19 20 15 15 22 22 24 28 34 32 27 28 28 28 30 62 51 79 58 49 53 49 48 83 74 54
22 20 18 16 15 15 16 16 17 16 14 16 19 19 18 18 18 21 23 21 21 18 16 25 27 27 31 32 32 29 29 27 37 49 61 60 68 67 52 54 61 63 67 61 51
24 22 20 18 17 16 17 17 18 16 14 18 20 19 18 18 27 35 29 20 18 18 21 29 33 33 33 31 33 29 28 35 46 59 56 57 55 62 59 58 57 86 61 58 54
26 24 22 20 18 17 17 18 19 15 15 18 20 19 18 19 41 34 28 20 19 20 27 34 35 36 33 34 31 31 33 39 45 54 46 65 69 57 65 61 62 77 55 50 54
27 25 24 22 21 18 18 18 18 14 16 18 20 19 18 25 26 34 26 21 21 22 28 34 34 33 36 36 32 30 40 37 44 52 52 55 63 60 62 51 63 66 45 50 46
28 27 26 25 23 19 19 19 17 15 17 19 20 20 20 27 33 31 24 21 21 24 28 30 37 38 41 37 32 31 38 35 41 50 49 57 58 51 71 63 52 52 34 39 45
30 29 28 27 24 20 20 19 16 16 19 19 21 19 21 22 32 37 24 23 26 28 33 34 38 35 42 43 46 45 38 34 37 51 46 56 44 43 62 52 44 42 41 37 42
32 31 30 29 26 22 20 19 16 17 19 19 20 20 22 26 31 34 31 33 33 33 38 44 38 37 40 48 42 43 40 43 38 44 40 49 47 38 49 50 47 50 44 45 42
35 33 31 30 26 23 21 18 16 17 17 18 22 26 32 31 30 30 32 39 42 46 33 34 34 37 47 48 46 44 47 42 35 41 48 42 48 34 31 50 53 50 46 46 44
37 33 31 31 27 24 21 17 16 16 17 19 22 28 26 33 33 36 35 40 43 44 41 34 38 45 48 49 50 43 40 42 36 28 47 42 45 35 27 49 47 44 44 48 46
36 32 31 31 28 25 21 17 27 32 23 21 31 34 39 37 35 32 34 40 47 51 48 40 45 50 47 52 45 43 39 34 31 32 31 35 36 30 27 35 49 62 48 48 47
34 31 30 31 29 25 21 23 39 42 38 24 27 33 36 37 34 34 33 44 46 55 59 47 47 52 52 47 44 37 37 31 29 18 28 30 31 25 24 34 43 43 52 52 51
34 29 30 32 30 24 20 17 31 31 35 29 27 33 34 36 30 35 35 41 48 50 56 54 56 51 48 44 38 37 39 38 35 17 16 37 28 36 26 34 40 46 48 49 52
36 29 30 34 31 24 20 19 29 33 38 36 33 32 32 34 26 45 35 49 57 55 59 61 50 50 47 45 40 47 44 41 44 42 30 38 48 56 56 33 32 36 37 40 45
36 26 31 36 38 27 46 34 36 39 55 38 39 32 34 28 28 36 39 53 52 53 56 66 46 43 45 48 45 49 40 43 40 35 43 46 49 48 50 44 34 36 37 36 40
40 24 31 36 32 32 36 41 41 51 51 40 37 33 37 29 30 34 35 37 50 51 45 47 49 58 56 40 36 34 32 37 35 38 54 41 59 49 53 53 65 54 42 41 38
44 25 28 37 37 32 38 47 49 50 31 38 30 29 35 34 32 38 37 29 40 50 43 42 31 40 39 34 28 25 35 41 64 65 51 37 40 48 44 61 55 46 41 40 38
47 28 28 37 40 38 45 60 53 34 38 30 28 33 36 33 31 33 38 34 27 39 45 44 57 46 33 31 54 41 35 50 85 84 52 44 41 33 34 42 42 51 42 43 42
50 30 29 35 38 44 54 67 45 36 28 37 30 34 35 39 33 30 32 36 33 32 53 57 60 61 45 33 29 42 42 44 54 58 43 29 25 22 29 33 30 34 38 40 42
49 34 28 37 38 49 59 54 41 35 37 41 35 36 39 40 28 30 29 29 39 45 47 67 86 58 45 31 26 23 30 35 31 35 34 25 33 37 44 33 19 31 35 37 40
50 40 30 40 41 53 55 47 42 36 36 46 33 36 39 41 27 30 29 35 46 52 39 36 56 52 40 33 24 37 34 26 28 44 56 45 36 36 33 27 19 24 36 35 36
51 43 36 40 44 44 51 40 38 44 36 36 44 40 38 44 35 36 35 42 34 26 30 29 32 40 35 37 30 34 44 38 50 35 44 44 28 26 25 17 17 20 28 36 33
53 48 54 44 39 46 44 44 37 42 43 34 39 41 32 38 42 33 40 44 37 30 28 35 30 34 30 45 34 26 22 24 43 45 43 53 32 27 23 20 19 20 24 34 35
55 57 73 56 34 46 44 44 39 40 42 39 38 41 35 27 32 34 37 39 35 31 26 28 29 29 38 38 51 59 42 31 34 47 40 33 24 32 28 27 25 23 23 27 35
59 46 60 58 44 47 48 41 42 42 34 49 41 31 34 33 36 38 43 43 34 28 27 28 30 30 33 38 52 55 46 39 37 33 38 30 30 28 31 32 30 30 28 26 27
54 46 49 54 48 50 49 45 45 44 37 49 50 38 38 37 35 43 45 45 42 40 33 34 40 37 35 34 37 37 39 33 30 32 35 29 32 30 31 28 26 28 27 29 30
57 52 62 57 53 56 45 48 50 47 41 45 42 42 39 48 45 45 49 62 53 51 48 47 49 43 40 35 34 35 30 26 25 26 28 30 26 27 27 29 31 27 29 30 30

GFSSW_prec_cthk_027.txt.gz
RH
21 20 21 21 19 17 16 15 15 15 15 14 12 14 17 15 16 17 19 18 18 19 16 16 21 23 26 30 27 29 30 26 33 45 60 61 61 73 68 61 63 65 66 75 83
23 22 22 23 21 19 17 17 15 15 15 14 12 15 17 15 16 23 27 24 20 18 17 17 25 26 29 34 35 32 25 32 45 53 59 60 60 60 59 60 69 68 90 86 79
25 25 24 24 23 20 19 18 16 15 15 13 13 15 16 15 30 31 28 24 18 17 17 23 27 29 33 34 35 32 29 35 40 47 56 59 55 57 62 68 72 75 85 87 82
29 27 26 26 24 22 21 19 16 16 15 13 14 16 15 16 31 31 26 23 17 18 23 30 31 31 35 32 33 33 35 39 47 52 58 58 56 61 55 69 68 70 74 82 90
32 29 27 27 26 25 22 20 17 15 14 15 16 16 16 21 22 25 25 23 19 20 26 31 35 35 38 39 35 36 37 44 52 49 62 59 55 57 60 65 68 72 72 74 75
36 31 29 29 27 27 24 21 18 16 14 16 16 16 17 28 26 28 25 21 21 23 26 31 37 38 41 39 39 35 40 45 51 50 58 58 55 54 55 61 68 65 57 53 58
39 33 31 31 29 28 26 22 18 15 15 16 16 16 17 20 25 25 28 24 23 25 27 32 38 37 40 44 50 47 37 40 45 50 51 54 58 51 46 49 45 46 44 60 52
44 37 34 32 31 30 27 22 18 15 15 15 15 16 16 19 25 27 27 28 32 31 32 36 36 36 40 39 44 42 37 38 41 49 58 52 47 54 46 42 42 42 37 44 41
51 40 35 34 32 31 28 21 17 15 15 15 17 24 24 23 24 26 30 34 40 44 39 37 32 34 39 46 44 41 44 43 38 40 44 37 46 44 48 49 54 43 37 41 44
48 42 38 35 33 32 28 20 16 15 16 15 17 25 20 23 23 29 32 37 42 44 43 37 35 38 48 46 48 47 49 42 43 40 42 43 42 36 40 43 44 42 37 40 39
46 44 37 35 33 32 29 20 30 35 30 16 23 26 27 29 30 30 32 41 43 49 50 42 42 51 47 54 47 48 46 43 40 38 36 40 32 30 31 41 44 43 49 37 34
42 45 35 33 32 33 30 21 33 33 32 24 23 26 27 31 31 28 33 41 45 49 54 49 52 49 47 52 48 47 47 42 36 35 31 41 37 28 35 36 49 46 43 39 40
39 46 36 32 31 32 30 21 30 28 29 20 18 24 28 29 29 29 34 44 48 51 52 53 48 48 53 49 51 50 48 44 37 23 24 36 36 40 38 33 42 45 44 46 46
40 46 40 31 32 36 33 23 22 29 36 24 28 24 25 29 27 30 39 38 43 52 58 58 52 49 52 49 48 44 49 42 39 31 25 30 43 41 46 44 46 47 45 47 48
34 44 43 27 34 40 45 33 35 37 56 31 33 30 21 24 25 35 40 43 46 51 54 53 50 47 53 50 48 47 45 40 43 48 52 48 47 42 46 49 49 49 53 49 47
31 37 48 28 31 43 50 42 39 52 56 34 32 31 28 27 23 38 42 41 53 48 48 52 47 47 46 45 41 37 36 36 47 47 58 38 45 51 53 48 47 49 42 44 52
30 36 43 28 31 41 43 50 56 60 29 36 32 31 27 29 23 34 38 42 44 47 46 46 46 52 44 41 41 38 37 49 53 65 64 48 51 52 49 46 39 31 31 35 43
31 31 42 25 38 38 43 55 66 32 29 31 31 29 25 28 28 35 41 42 30 36 45 50 51 52 52 47 46 44 35 57 69 74 58 50 58 46 35 38 39 36 41 33 38
50 41 42 29 43 48 49 60 48 34 27 33 32 29 27 31 33 34 47 43 34 30 41 52 54 51 55 46 46 39 44 47 65 64 67 49 29 45 43 42 44 44 29 33 37
46 52 36 34 44 55 53 55 45 31 33 39 39 29 28 33 37 34 34 31 42 39 43 52 53 51 59 50 39 32 43 51 50 47 45 29 38 51 51 46 45 38 34 34 35
43 55 29 42 42 59 56 52 39 36 42 47 42 31 28 34 37 37 34 29 38 50 48 56 51 55 53 50 40 34 34 30 30 44 57 57 47 42 40 38 37 43 39 34 35
43 54 32 44 50 54 50 42 36 39 44 45 43 34 28 42 44 29 31 38 37 43 47 52 48 54 48 38 38 36 37 48 53 37 49 50 38 29 32 32 31 30 33 35 37
51 51 49 48 42 49 40 39 37 44 46 42 40 31 31 47 61 40 44 47 49 48 40 33 36 46 40 34 37 40 33 34 44 47 48 53 38 28 26 28 29 27 25 31 37
52 63 59 53 31 38 41 32 39 42 49 42 38 33 34 48 52 52 46 50 42 42 39 35 32 34 37 26 37 46 43 47 33 49 46 48 36 26 28 33 32 29 28 29 31
56 53 44 53 50 39 40 34 40 48 47 42 40 34 39 37 43 48 46 44 39 34 31 31 31 27 28 27 38 45 48 58 48 42 47 40 38 30 37 35 33 33 33 32 33
59 44 44 48 50 45 39 35 38 44 46 43 45 30 37 42 35 40 43 40 37 36 30 26 34 30 29 28 34 39 43 46 46 38 36 35 39 36 35 34 31 32 32 33 36
63 50 44 49 57 52 35 33 38 40 44 42 39 40 34 38 41 44 43 42 44 45 41 39 41 42 41 35 32 32 26 28 30 31 32 33 34 33 32 31 30 30 30 30 31

GFSSW_prec_cthk_030.txt.gz
RH
20 21 21 20 22 22 21 19 17 16 15 14 13 12 12 13 12 16 22 23 19 20 19 16 18 19 25 27 30 36 34 36 35 43 59 61 68 71 69 66 74 80 77 79 76
22 24 23 23 23 23 23 21 19 17 15 14 13 12 13 12 17 24 26 24 20 18 17 16 21 22 25 29 34 36 34 35 36 52 53 55 60 60 60 66 75 74 72 73 88
26 27 26 25 25 25 25 23 20 18 15 14 12 13 13 12 24 27 24 24 18 16 17 18 26 28 30 37 36 33 29 33 37 45 49 55 60 62 64 70 71 69 73 73 80
32 31 29 28 27 27 26 25 23 19 15 13 12 14 13 13 25 24 21 22 19 17 21 27 29 31 33 37 38 35 35 36 40 45 52 62 60 63 65 65 67 64 67 78 93
46 36 32 31 29 29 28 26 25 20 15 14 13 13 13 17 21 22 20 23 19 20 25 31 36 39 41 40 39 37 37 40 42 50 52 60 62 61 63 61 62 64 75 90 83
51 45 36 32 31 31 30 27 26 20 15 14 14 13 13 22 23 25 22 21 19 22 27 32 36 39 40 43 43 40 39 47 52 58 57 57 56 58 63 64 69 68 72 73 63
46 51 40 35 33 33 31 29 27 20 15 14 13 13 13 17 22 23 26 23 21 23 28 34 38 42 40 37 48 46 43 49 48 59 52 51 55 54 57 54 54 51 64 65 47
39 48 46 36 34 33 32 31 27 20 15 14 14 14 12 16 20 22 27 27 32 30 31 33 35 39 41 38 42 43 38 44 53 54 56 52 47 46 51 49 47 51 53 51 49
35 42 49 40 36 35 33 31 27 20 16 14 14 18 16 17 20 23 28 28 37 40 38 35 34 36 40 45 45 39 38 39 49 51 50 50 49 43 42 45 49 43 45 46 45
38 36 46 44 39 37 34 32 27 22 17 15 15 18 19 22 23 25 28 31 35 41 42 38 33 34 43 46 47 41 44 44 45 44 47 50 42 45 47 42 47 50 48 44 42
40 37 48 48 41 36 34 33 30 36 30 20 15 19 24 26 26 28 29 32 37 44 49 37 42 48 44 50 48 52 48 50 48 45 47 47 42 46 40 48 48 51 54 46 41
32 39 45 50 39 36 36 35 37 32 27 24 22 23 25 28 29 29 29 32 38 46 52 41 48 47 51 56 55 51 51 49 41 36 38 47 48 47 41 45 47 47 44 45 43
23 37 39 49 41 35 38 36 32 36 30 18 19 17 24 28 29 27 29 33 42 45 48 47 42 46 50 55 52 50 48 47 45 37 38 42 46 40 36 46 56 51 41 41 39
28 32 28 44 41 37 45 38 27 31 38 22 19 16 26 26 26 27 28 32 37 46 49 49 42 46 53 53 50 47 41 43 46 40 31 32 45 38 34 40 47 54 55 43 39
23 32 38 43 41 40 50 43 35 40 42 26 24 24 23 23 25 26 30 31 38 44 49 49 48 45 51 49 48 49 46 46 45 47 31 35 42 39 44 40 45 48 50 48 43
26 30 32 44 38 47 52 49 43 52 51 32 29 27 22 22 24 33 34 34 39 46 49 50 48 46 48 48 46 46 47 47 49 52 59 53 47 48 50 45 38 42 41 40 46
27 40 30 41 43 42 51 53 58 62 27 32 29 28 25 23 28 32 33 36 42 48 50 49 47 43 46 45 43 39 40 49 54 67 63 52 50 43 45 42 37 35 40 39 45
28 35 43 34 46 45 55 64 65 39 32 32 31 30 28 24 26 30 32 35 37 44 51 52 52 49 46 45 45 46 43 51 53 59 50 46 49 46 38 35 35 36 41 34 39
27 38 41 34 48 48 55 70 54 41 28 32 34 34 29 23 25 30 31 31 35 37 40 52 54 49 44 43 42 47 48 43 59 65 63 57 41 38 39 38 37 41 30 29 33
26 39 37 33 48 49 57 51 49 31 36 37 37 33 29 25 30 34 31 29 32 37 36 44 51 50 47 47 44 40 42 53 59 59 55 37 37 44 42 39 37 43 34 29 32
34 41 37 33 58 50 57 54 40 27 41 46 41 36 28 26 31 34 29 30 35 43 46 53 45 48 46 47 48 43 35 43 47 50 48 52 45 35 38 35 35 35 32 31 27
41 49 38 37 67 53 50 50 38 31 42 53 48 42 32 27 34 34 31 27 29 36 46 49 55 64 49 42 45 42 36 41 57 49 58 52 38 37 39 36 36 33 31 31 32
45 52 52 34 57 55 50 52 46 36 44 51 49 43 33 32 37 40 34 30 35 36 42 48 51 62 48 50 39 38 42 43 47 56 52 54 45 33 30 30 32 33 31 31 32
52 63 65 51 37 43 50 44 40 36 45 52 53 48 40 35 38 45 39 37 36 40 49 47 46 37 40 32 35 37 37 45 51 55 51 48 38 37 30 31 33 30 29 30 33
63 58 46 52 45 47 45 42 36 38 43 49 55 50 43 41 41 48 48 45 44 49 54 50 46 41 36 30 29 29 37 35 43 48 52 34 44 37 34 32 30 29 30 31 34
70 56 48 44 37 38 49 40 33 29 37 49 51 48 39 41 39 47 52 48 44 45 46 47 48 43 39 36 29 26 32 34 42 54 55 44 41 38 37 34 31 31 33 34 35
67 60 59 45 41 41 39 39 27 28 35 45 49 50 38 40 45 44 44 45 44 41 44 44 45 42 37 33 30 34 23 28 31 45 45 47 44 38 39 38 36 37 37 37 37

GFSSW_prec_cthk_033.txt.gz
RH
16 16 17 19 21 21 21 22 23 22 19 17 14 11 11 11 10 15 20 23 21 18 17 17 19 19 23 26 30 31 36 36 40 48 52 55 58 66 62 65 73 71 76 80 80
17 17 19 21 23 23 23 24 24 24 21 17 13 12 12 11 15 20 22 22 22 18 16 16 20 21 26 26 32 34 37 37 39 45 49 54 60 60 64 67 75 74 76 78 77
24 22 22 23 24 26 25 25 26 26 23 18 13 12 12 10 18 20 23 21 21 19 17 18 24 28 32 38 35 37 37 39 38 42 49 58 60 59 61 68 72 71 76 80 83
38 34 28 26 27 28 27 27 28 27 24 18 13 13 11 10 20 18 18 20 20 20 20 26 29 29 38 43 42 38 38 39 37 42 52 57 59 62 63 64 75 78 72 70 84
44 45 42 33 30 30 29 29 29 28 24 19 13 14 11 12 17 20 19 19 18 21 24 28 33 32 36 38 41 44 45 35 38 48 55 56 57 60 63 67 71 71 69 73 68
41 43 47 43 35 32 31 31 31 30 25 19 14 14 12 13 19 19 20 18 17 24 28 29 35 38 39 36 41 49 42 47 50 56 56 57 53 56 63 66 74 73 65 59 56
33 40 43 48 41 35 33 32 33 32 26 20 14 14 11 11 19 19 21 18 18 25 30 30 37 41 42 39 40 47 43 49 48 55 59 56 51 56 61 57 49 58 55 47 41
32 31 37 42 46 37 34 33 34 33 27 21 14 13 11 12 17 20 26 24 27 29 32 31 33 39 44 41 43 45 37 44 49 54 57 54 52 50 56 54 52 52 54 46 41
31 31 34 40 48 41 36 35 35 33 27 21 14 14 12 14 17 22 27 29 33 36 36 33 33 36 42 47 47 44 37 39 47 51 58 55 51 56 54 54 50 45 48 44 45
34 34 36 35 42 43 38 37 37 32 29 25 15 14 14 19 20 24 27 32 33 41 41 36 35 36 43 49 46 44 43 43 45 44 51 59 52 55 51 57 52 46 41 42 39
47 52 43 45 54 45 38 39 41 39 37 28 16 13 18 20 22 24 28 31 34 40 44 36 39 42 43 48 45 43 48 48 45 43 42 52 55 55 52 57 51 54 49 42 38
37 50 59 48 60 47 38 44 46 41 36 26 20 20 22 23 27 27 28 31 34 43 48 40 47 43 42 46 52 49 49 47 45 37 39 45 53 54 48 49 50 46 46 45 45
31 41 42 39 55 58 53 46 43 38 36 24 17 19 21 23 27 27 28 30 36 43 45 42 42 47 46 49 55 54 51 49 47 44 37 41 46 49 42 45 52 54 46 42 40
22 34 41 50 46 51 50 53 40 37 43 28 23 17 20 25 26 27 28 28 37 42 47 46 42 43 47 50 49 53 50 48 45 41 41 34 39 41 43 41 47 54 57 55 42
17 28 30 42 29 41 56 56 43 43 42 23 23 20 18 23 23 23 28 27 36 42 45 45 45 44 48 47 49 50 48 46 45 47 47 39 38 37 35 38 44 47 53 56 52
19 28 42 37 41 52 53 62 49 52 44 32 26 25 22 25 24 22 28 28 35 39 45 45 45 44 45 45 46 45 46 47 51 50 58 42 44 41 43 40 40 41 46 53 52
20 27 38 45 33 52 57 66 61 62 30 33 31 29 24 26 24 25 28 31 39 43 46 45 45 47 46 44 45 43 44 48 52 63 58 49 51 39 37 40 39 39 36 40 45
25 27 31 42 37 46 61 75 66 48 39 34 32 31 28 24 23 27 30 34 40 42 52 50 48 45 46 47 47 46 44 51 51 62 51 50 47 36 36 42 37 36 36 39 35
25 26 38 36 38 48 59 75 59 45 35 31 36 37 32 27 25 29 30 30 35 41 45 52 47 48 50 47 46 46 41 43 54 60 59 52 48 38 34 40 39 35 41 31 28
29 27 36 40 44 63 57 59 59 36 38 38 40 36 35 30 28 31 32 28 29 35 36 41 47 46 46 47 45 43 42 46 56 54 55 49 43 44 40 37 34 35 39 29 26
36 35 28 36 52 57 61 52 59 43 41 47 45 39 35 33 26 26 28 30 32 37 37 37 38 44 48 44 44 47 49 47 44 59 61 61 42 30 34 27 26 29 34 30 28
40 39 35 35 53 52 48 52 46 39 46 52 50 44 38 33 30 29 31 31 30 40 40 38 38 47 43 48 48 47 53 53 55 47 61 57 43 28 33 33 30 29 30 33 31
42 43 46 35 48 47 44 49 44 35 37 44 51 47 42 37 34 30 32 34 35 34 38 39 42 51 49 49 46 44 45 46 48 52 49 59 47 30 33 28 29 29 26 26 28
50 53 59 58 27 40 47 47 48 33 33 39 48 52 47 40 35 36 37 38 37 35 35 36 43 48 55 45 49 49 43 44 46 58 48 46 32 31 30 30 30 26 27 28 28
54 50 48 55 37 40 42 44 45 35 35 37 45 53 54 49 42 39 40 40 36 36 38 38 44 48 45 40 40 34 37 44 40 38 44 38 43 44 35 36 32 30 30 29 31
62 53 56 44 41 39 43 44 43 42 38 40 39 47 53 54 45 42 40 42 39 38 39 43 52 49 48 44 42 38 35 32 33 37 37 41 48 40 35 39 35 32 32 33 36
62 58 57 50 47 50 32 37 36 44 42 36 35 44 53 54 49 41 43 41 48 48 46 48 50 49 46 44 40 42 33 31 27 27 33 40 44 44 42 40 37 35 36 37 37

GFSSW_prec_cthk_036.txt.gz
RH
17 15 15 15 18 19 20 20 21 22 24 24 20 16 13 12 10 14 17 17 19 18 17 17 19 20 22 26 28 29 42 35 40 45 43 56 60 62 66 67 69 73 72 76 83
21 19 16 17 18 20 21 21 23 24 25 25 21 17 13 12 14 17 18 16 18 19 17 17 17 21 27 29 30 33 40 39 40 44 45 53 59 64 66 67 69 70 73 78 82
29 27 25 22 20 21 23 23 24 26 27 27 22 18 14 12 15 18 17 15 17 20 17 20 23 25 28 31 32 37 42 41 41 41 47 56 59 64 70 69 70 72 75 77 82
41 39 37 35 28 25 24 25 26 28 29 28 23 19 14 12 19 16 15 15 15 18 18 25 28 31 31 33 35 41 44 43 41 44 50 60 63 65 62 65 70 73 75 74 79
38 44 43 45 43 34 28 27 28 29 30 29 25 19 14 12 15 18 15 15 15 18 24 29 33 35 33 35 41 48 45 42 41 49 59 55 59 60 60 69 69 69 73 77 78
36 34 43 42 45 44 35 31 30 31 32 30 26 20 15 13 18 18 16 15 16 23 28 30 35 38 38 36 44 38 45 53 55 60 61 57 57 59 58 58 64 63 63 67 64
39 37 34 41 43 45 43 34 33 33 33 32 29 21 15 12 17 17 17 16 19 25 30 34 36 39 41 42 44 41 45 51 54 59 59 55 51 56 58 52 55 48 49 51 37
33 39 44 38 38 41 46 38 34 34 34 32 29 21 15 11 17 17 19 19 20 25 29 32 34 35 38 41 46 39 44 45 54 55 54 52 50 57 56 46 45 48 49 41 32
27 35 38 39 39 40 47 42 36 35 35 33 31 22 14 13 15 20 22 25 29 30 33 33 35 34 37 43 47 44 44 45 56 54 57 54 50 57 53 48 43 44 46 41 39
25 29 35 37 38 38 43 45 40 37 36 35 34 25 14 18 17 18 22 27 31 34 38 35 36 35 38 45 51 50 47 46 47 49 58 55 48 57 62 55 49 40 45 40 37
32 32 34 38 44 53 53 46 40 43 43 38 32 21 17 20 19 19 23 28 31 36 42 36 38 38 40 44 46 47 47 44 40 45 43 53 51 50 58 57 57 47 41 41 37
36 40 46 46 56 63 54 54 58 52 45 41 35 28 21 23 24 21 23 26 30 40 45 42 44 39 41 44 46 46 47 47 43 43 41 45 49 47 51 53 51 52 44 40 38
28 29 39 47 58 63 72 60 58 50 52 40 31 27 19 22 24 22 23 26 29 40 45 45 42 42 37 45 47 50 47 50 51 42 39 44 46 52 46 49 51 54 51 42 43
25 22 32 39 47 47 52 62 60 62 59 40 35 26 20 22 23 24 24 25 31 39 46 44 43 43 46 47 53 55 49 50 47 44 38 39 41 43 42 45 49 49 54 55 46
26 20 28 35 48 49 51 62 51 53 52 37 34 27 22 22 22 24 24 26 30 39 45 46 47 42 40 48 48 49 47 46 43 44 41 39 39 33 40 43 45 49 51 53 48
25 22 27 34 43 42 53 63 66 68 58 35 35 30 24 23 24 24 24 25 29 40 43 45 48 46 44 44 45 45 46 46 48 47 53 47 45 40 37 39 44 46 46 49 49
24 23 27 27 31 39 61 59 71 74 44 37 37 31 24 26 27 25 24 26 32 42 43 44 45 46 47 45 43 45 49 51 49 61 56 49 49 41 39 36 40 40 39 41 42
32 27 25 27 29 41 62 80 76 49 51 38 38 34 29 27 29 27 26 27 29 39 49 49 49 47 47 45 45 45 46 54 49 59 50 52 51 36 35 34 38 36 32 34 37
33 32 26 28 30 48 68 82 68 53 46 38 38 41 37 30 29 27 27 27 29 39 42 48 48 48 50 49 46 47 46 45 56 61 58 47 40 33 37 42 42 40 37 34 30
31 34 25 24 31 55 65 62 62 52 48 45 40 42 39 33 29 29 28 25 29 39 40 45 47 48 49 50 50 47 47 49 52 52 53 47 41 39 35 38 38 38 37 36 33
38 40 25 30 38 57 56 56 54 50 52 55 46 48 41 38 31 30 28 24 27 36 39 44 41 46 48 47 46 48 47 49 49 53 55 56 46 38 30 34 37 36 35 33 33
44 43 28 27 49 46 52 50 42 38 47 56 52 51 44 40 38 32 28 25 25 29 36 39 44 47 43 47 45 43 45 47 58 51 66 61 44 35 31 30 31 33 30 32 37
52 48 40 29 48 40 44 55 45 40 42 52 49 48 49 43 39 34 27 26 29 32 37 41 44 50 43 42 44 45 46 49 55 59 59 54 39 32 40 34 29 31 30 30 29
58 60 63 50 25 34 39 48 54 43 47 45 47 53 53 48 42 36 31 34 34 36 37 40 43 42 45 42 47 44 47 50 49 55 49 48 35 35 37 36 31 29 25 27 27
66 59 47 56 40 36 36 37 46 42 44 43 46 54 59 53 48 42 38 39 38 38 40 39 39 42 43 49 47 43 42 47 43 41 44 34 37 30 33 37 40 34 29 30 32
70 59 52 41 33 40 45 38 41 37 41 49 45 38 58 59 50 45 44 42 37 41 41 40 41 41 48 50 46 40 38 37 36 33 31 33 31 27 32 40 42 37 36 37 38
69 58 52 44 47 44 34 36 39 34 38 50 32 21 48 49 49 52 49 51 46 45 40 41 46 52 55 57 51 46 33 30 29 28 29 33 29 28 32 41 48 46 43 40 39

GFSSW_prec_cthk_039.txt.gz
RH
23 21 19 17 16 15 16 18 20 20 21 23 24 22 20 17 15 16 16 15 15 13 14 15 16 16 20 26 27 30 40 35 42 46 44 53 59 66 65 65 67 64 66 66 71
31 28 25 22 19 16 16 19 21 22 23 24 25 24 21 18 17 18 17 14 14 14 14 14 15 17 24 30 29 36 41 36 46 45 45 49 56 63 68 69 70 70 68 72 78
37 35 33 30 28 25 20 20 22 24 24 25 27 26 22 19 17 18 16 12 14 15 14 17 20 22 27 32 33 41 42 40 42 43 46 58 66 67 71 68 67 70 77 79 80
41 42 42 39 38 37 34 27 25 25 26 27 29 27 23 20 22 18 16 13 13 15 16 21 25 28 32 35 41 49 46 42 40 43 51 66 68 65 61 66 71 73 78 85 81
39 39 39 44 44 44 44 39 32 29 28 30 31 29 25 22 18 19 16 13 13 16 21 25 28 30 34 36 45 45 42 41 43 50 62 62 64 62 59 70 72 71 77 85 85
36 40 40 38 39 44 44 45 38 33 32 33 33 31 26 24 22 21 16 14 14 19 25 28 30 33 38 38 39 41 46 54 60 59 63 57 58 58 58 61 62 66 71 78 79
31 34 40 41 39 40 43 46 44 38 35 35 35 32 27 22 20 21 17 15 17 21 23 28 32 34 38 37 38 41 49 53 62 65 61 56 50 55 59 57 53 53 60 60 65
28 30 37 41 42 41 43 43 45 40 37 35 36 34 27 22 19 21 18 17 19 21 24 26 29 32 37 39 39 39 47 48 55 60 58 52 51 56 55 48 49 49 41 37 47
26 27 30 38 43 41 42 42 46 43 39 38 38 36 28 23 21 20 20 20 24 27 29 29 29 31 35 38 40 43 46 48 54 59 59 51 53 61 54 44 41 48 42 29 33
25 25 25 31 40 44 45 43 43 40 41 43 45 40 31 25 22 22 23 24 28 29 32 33 31 32 33 37 41 41 47 48 48 51 59 54 50 59 63 49 41 43 45 40 36
25 25 24 27 36 44 47 50 37 37 49 50 48 37 29 28 24 22 23 25 30 29 36 34 33 33 32 40 42 42 49 46 45 46 51 51 49 56 59 59 48 39 43 40 34
31 28 28 27 38 44 49 50 49 53 55 50 41 43 38 33 28 22 22 25 30 31 38 36 38 36 42 42 43 42 47 47 45 43 47 47 46 48 56 53 52 46 40 42 42
29 27 29 35 45 48 53 55 60 61 56 51 48 47 38 34 27 23 24 26 30 32 38 40 37 40 44 44 42 39 43 48 49 45 44 45 46 47 43 49 52 55 48 42 43
27 29 29 37 40 44 53 57 56 67 60 51 51 49 41 34 26 23 24 26 30 30 38 40 38 41 47 48 50 47 44 48 50 47 41 39 40 41 40 45 48 51 56 47 40
27 26 27 35 42 43 47 50 50 60 63 43 50 51 42 33 23 23 25 26 29 32 36 38 39 41 46 49 50 51 49 48 49 46 46 42 33 32 37 35 45 50 51 54 51
24 26 22 30 38 39 51 54 54 66 63 40 45 49 40 32 26 24 26 27 29 33 36 38 40 41 40 46 48 49 49 47 47 48 49 46 43 35 31 34 36 44 51 51 54
27 27 26 25 30 32 52 63 68 73 41 41 51 45 39 32 28 27 27 29 30 35 36 38 41 41 41 46 48 48 47 48 44 51 47 47 47 40 35 34 36 38 43 45 49
30 32 29 23 28 32 48 66 69 52 50 47 53 45 38 31 30 28 29 30 29 29 36 40 43 43 43 45 47 48 46 49 46 49 43 47 44 36 37 34 35 37 38 35 39
39 32 33 24 30 36 50 68 54 51 45 50 52 51 37 32 31 30 31 29 27 28 35 46 44 44 47 48 48 49 48 46 53 58 51 41 38 32 32 36 36 39 41 36 33
50 41 33 27 32 40 54 51 51 43 45 50 51 55 45 36 33 33 33 28 26 28 33 41 48 47 48 53 53 52 51 54 53 54 53 44 41 33 32 31 38 37 38 38 35
53 52 36 32 42 47 51 46 46 45 47 54 59 57 48 43 37 36 34 28 25 28 34 42 44 48 49 51 52 53 52 54 52 53 49 47 40 34 33 34 34 35 37 39 36
58 53 44 35 51 45 43 40 45 40 52 53 58 58 57 47 42 38 33 28 26 28 37 42 45 50 42 48 49 48 48 50 56 50 52 52 41 39 33 36 34 33 32 34 34
67 51 56 44 52 41 37 42 41 36 47 54 52 56 53 51 49 43 34 27 26 29 38 43 43 46 45 47 47 48 46 47 49 50 52 60 44 33 29 31 36 33 29 28 28
71 64 74 63 30 26 45 46 47 39 41 50 49 57 61 53 53 48 40 32 28 30 31 35 42 40 39 38 41 45 45 46 50 56 51 46 34 31 31 32 30 31 31 26 23
83 70 53 59 49 32 34 35 38 41 40 42 48 46 55 58 58 53 46 40 34 33 35 38 40 41 39 40 43 43 43 46 48 49 49 40 36 30 24 24 24 32 33 34 33
91 65 48 56 38 42 46 43 37 37 32 40 43 39 44 55 52 55 54 47 44 44 43 43 43 41 41 42 45 43 46 49 45 38 33 32 27 24 24 26 24 35 39 43 39
77 62 48 36 54 51 35 41 43 40 32 35 40 46 47 46 63 64 61 51 48 49 50 49 50 47 46 45 45 47 43 41 39 36 34 36 26 28 27 29 27 32 45 48 47

GFSSW_prec_cthk_045.txt.gz
RH
34 32 30 27 24 21 20 19 16 13 15 16 17 19 22 20 19 21 24 24 20 16 14 14 15 17 19 23 22 24 32 36 33 37 44 43 52 58 56 49 56 61 70 72 66
39 39 37 34 30 26 23 22 22 18 15 16 18 21 23 22 20 24 26 22 19 16 14 14 16 18 21 28 24 26 36 38 37 40 43 46 55 65 55 66 74 69 64 65 66
35 34 38 38 35 30 29 26 26 25 21 19 20 22 24 24 24 28 27 23 19 17 16 14 17 19 26 27 31 36 42 41 40 44 42 46 56 59 72 76 94 75 80 69 76
32 33 32 36 36 35 32 29 30 28 29 26 24 24 27 27 30 34 27 23 20 17 16 17 17 22 34 35 34 32 43 43 43 39 42 58 57 54 64 70 76 75 75 73 82
29 30 31 32 35 36 36 34 30 34 31 32 30 28 29 35 32 28 25 24 20 19 18 20 22 29 35 32 33 32 40 42 44 40 49 56 63 53 53 64 68 71 76 81 85
30 30 28 30 31 34 37 39 35 34 36 36 36 32 36 38 34 29 28 24 22 21 20 22 27 28 31 32 30 41 37 54 42 50 52 55 63 54 58 53 54 67 75 85 94
31 30 29 28 29 30 32 39 39 36 37 40 40 36 40 38 35 33 30 26 24 24 23 23 24 26 34 34 28 29 35 54 47 60 62 55 71 54 47 53 53 63 70 80 93
32 32 30 28 27 27 29 33 36 41 37 38 42 41 43 37 35 33 33 28 24 26 21 23 23 25 27 33 26 31 41 54 50 47 60 56 93 54 48 45 54 49 62 66 80
35 31 31 29 27 26 26 28 31 34 38 37 41 46 47 40 35 34 42 31 27 26 22 21 23 25 33 30 38 34 44 54 49 45 57 55 71 48 49 45 48 45 47 65 58
36 34 30 28 27 27 26 25 29 30 34 34 40 43 43 43 37 35 45 32 33 29 25 25 26 28 32 36 37 36 38 40 48 70 46 48 59 60 48 48 46 45 42 50 54
26 29 30 27 26 27 27 34 39 49 48 35 44 34 38 44 42 40 49 35 33 34 30 31 36 38 42 38 35 40 39 41 43 42 35 44 45 60 53 48 47 47 41 41 44
21 23 24 22 22 24 27 35 43 39 39 40 37 34 41 45 45 45 50 35 35 36 32 38 37 37 36 30 28 35 40 37 42 36 32 42 50 44 60 46 51 43 45 40 40
28 24 22 21 18 18 28 35 39 35 42 36 35 36 34 37 43 46 48 37 37 39 35 34 46 37 30 28 34 38 45 52 42 52 32 32 37 43 48 49 48 50 41 41 39
26 28 26 22 16 17 24 31 32 37 42 35 41 38 38 39 41 43 47 39 40 39 35 33 40 35 33 36 39 46 42 41 40 38 45 47 50 52 49 47 44 48 48 43 39
22 28 28 26 32 26 39 29 28 36 39 37 40 44 43 40 38 44 44 45 40 36 34 34 35 38 35 41 42 47 46 41 41 48 47 41 35 45 39 44 51 45 49 49 44
31 28 29 28 25 28 39 32 35 40 38 35 42 41 45 44 40 43 42 46 43 36 34 32 38 37 39 39 42 44 46 44 45 47 53 41 38 54 39 36 36 47 50 51 50
37 30 36 29 27 34 35 39 42 35 26 29 38 43 43 44 43 44 45 50 44 37 35 32 36 34 37 39 40 43 47 54 53 51 48 54 37 39 51 38 32 40 46 53 52
44 37 42 38 24 36 50 51 38 18 24 35 38 45 42 42 46 48 50 50 38 33 39 38 38 34 35 36 44 45 48 54 76 51 46 51 34 38 40 33 31 31 34 36 44
55 49 43 40 32 42 56 70 24 19 22 27 37 46 45 40 45 48 47 44 38 30 32 39 39 36 39 37 42 49 46 49 58 49 49 44 37 34 30 28 28 32 33 40 44
66 61 46 46 44 46 63 66 23 19 23 32 35 41 50 45 42 47 48 44 40 32 31 37 45 38 40 42 44 50 50 50 48 56 58 39 40 38 41 33 30 29 35 41 42
78 72 58 54 62 63 64 41 32 25 27 29 40 38 50 55 44 44 52 46 41 35 32 36 38 43 43 42 45 44 49 47 52 54 61 54 42 47 39 36 36 39 34 34 40
83 73 70 72 78 61 54 24 26 29 33 34 42 48 48 59 52 42 46 46 42 37 36 31 41 53 50 43 43 54 46 49 54 52 53 50 44 45 40 37 40 41 39 36 33
85 84 80 89 79 59 37 22 28 37 39 42 53 54 59 59 65 51 47 47 48 39 37 36 40 48 53 49 51 48 52 50 52 53 56 68 49 49 39 34 33 33 37 36 33
96 93 94 88 66 62 36 29 28 33 45 46 53 60 51 60 66 64 49 46 48 39 36 38 37 43 46 50 49 43 43 47 50 57 53 48 47 46 49 48 44 45 47 34 30
99 90 82 74 68 52 38 25 32 31 34 55 54 56 46 58 60 62 60 61 49 46 45 38 41 40 40 49 48 48 48 47 47 48 51 47 44 44 47 45 43 48 44 30 19
98 84 82 70 70 66 61 39 32 40 32 37 56 60 59 54 60 67 66 64 60 54 48 43 48 44 42 50 47 44 41 40 40 43 44 44 41 44 41 36 37 34 27 23 22
98 84 85 79 78 71 64 42 31 38 38 37 38 59 72 63 73 73 71 65 69 69 56 48 47 49 51 52 50 51 36 40 40 41 45 46 40 46 42 36 35 32 32 31 27

GFSSW_prec_cthk_048.txt.gz
RH
35 35 34 30 26 23 21 22 21 19 18 14 14 15 17 18 19 19 21 26 24 19 16 18 16 17 17 20 21 26 37 42 39 40 40 42 48 54 69 56 63 78 80 83 74
31 29 32 34 33 29 26 24 23 23 22 22 18 16 17 19 21 20 24 26 23 19 17 20 18 19 20 24 28 26 40 44 40 34 35 33 35 46 62 69 58 66 79 88 80
31 30 31 32 33 34 33 28 25 23 24 23 24 21 19 21 24 28 28 27 24 20 19 19 18 18 22 29 30 34 40 42 35 34 28 28 36 41 55 66 61 58 72 92 78
34 32 30 31 32 33 33 33 31 28 26 26 25 27 26 24 29 29 31 29 24 21 19 18 18 19 26 36 43 31 29 35 33 35 35 37 50 47 56 57 53 62 69 74 75
32 33 33 33 31 31 33 32 33 31 30 30 30 30 30 32 32 32 31 27 25 22 21 21 22 24 31 41 34 37 34 33 40 37 35 45 59 69 61 51 48 51 61 67 78
34 32 32 32 31 30 30 31 33 34 35 33 34 35 39 36 34 33 34 28 26 23 23 24 24 31 28 31 30 36 36 30 47 41 52 63 58 66 77 49 48 51 62 66 74
38 34 32 31 31 30 30 30 30 34 36 35 35 39 42 36 34 36 37 32 28 26 25 26 25 26 29 32 37 32 25 32 51 43 55 56 60 60 57 50 50 51 52 65 70
47 42 36 33 32 30 30 29 28 29 31 32 35 38 40 36 40 40 39 35 31 29 26 28 24 23 25 26 29 27 31 37 47 48 68 53 68 65 56 55 48 48 49 63 63
37 41 40 34 32 31 31 28 28 27 28 29 30 38 40 37 39 44 44 36 36 38 27 25 22 22 24 29 33 34 35 40 41 44 53 57 84 68 70 66 52 46 48 54 58
31 29 33 35 29 30 30 29 28 31 36 35 33 39 34 34 39 42 41 38 45 38 27 25 23 23 25 29 43 42 41 40 44 45 41 46 74 71 83 64 53 44 43 44 50
26 30 26 30 25 23 27 29 40 52 56 45 38 40 35 38 39 38 40 41 48 43 30 30 30 31 36 46 37 36 36 46 47 41 39 32 47 65 61 67 52 41 40 39 47
20 26 24 25 22 16 18 30 38 50 40 36 34 38 35 41 38 39 42 45 48 42 35 37 37 35 40 46 34 32 33 38 37 45 34 26 37 55 60 57 42 38 38 37 41
21 23 28 22 20 13 12 17 36 44 43 34 29 29 33 33 37 40 41 46 48 41 36 40 41 48 39 34 27 29 34 41 42 46 37 30 30 45 57 62 44 40 40 38 33
19 24 28 28 15 19 14 17 23 28 35 24 30 33 31 36 32 35 41 47 46 43 36 40 37 41 39 30 30 37 40 43 43 43 40 40 45 39 42 52 52 41 36 39 33
25 23 28 30 27 21 40 40 30 30 31 20 25 34 39 35 33 32 37 48 46 47 44 38 40 36 37 31 36 39 48 50 39 37 42 43 45 44 42 45 59 51 49 43 45
34 27 30 31 28 17 41 38 34 38 32 21 33 32 38 41 40 39 39 39 44 48 44 38 41 37 38 33 39 40 40 45 41 37 44 42 43 55 47 55 48 54 58 52 47
45 34 32 35 32 29 48 42 43 34 15 15 34 34 36 41 43 43 44 42 43 46 47 42 36 39 37 37 38 39 42 49 56 51 46 40 41 47 41 42 43 44 49 54 57
53 49 36 38 35 42 54 51 40 16 19 29 26 33 36 40 46 45 46 44 45 46 50 47 42 36 38 34 40 38 38 55 74 71 66 53 42 40 39 42 36 32 34 48 52
67 61 50 43 45 51 57 57 25 20 17 18 33 37 40 40 43 46 44 44 48 47 53 48 42 40 38 33 34 42 40 39 68 66 69 55 44 38 37 35 33 32 33 36 35
77 75 65 53 58 62 61 54 20 18 20 27 27 30 42 44 43 45 48 47 50 52 53 44 52 44 46 39 35 35 46 47 50 64 64 44 36 40 42 40 34 28 33 43 43
79 76 71 71 70 76 66 43 28 22 22 31 30 34 34 44 52 45 46 50 52 54 50 42 49 48 46 41 38 37 42 52 53 50 58 52 50 49 47 42 38 37 32 33 38
87 77 72 79 79 75 59 27 23 18 21 29 37 37 40 41 47 62 47 50 53 51 54 42 49 52 51 44 40 41 42 49 52 56 64 63 49 48 47 44 41 39 35 36 36
92 86 85 83 75 64 50 38 32 31 25 27 33 39 39 53 55 59 63 49 54 51 54 46 48 57 52 54 56 39 48 41 42 45 52 69 57 47 42 38 36 32 32 34 33
99 95 89 85 67 60 50 34 33 33 28 26 33 39 44 56 61 63 65 50 53 53 53 55 50 47 53 50 50 47 48 53 53 66 63 60 48 43 43 45 46 42 40 40 39
98 86 71 71 65 53 64 42 44 46 38 31 35 41 43 68 71 76 69 66 53 54 52 54 58 47 46 42 51 46 42 46 49 48 51 46 42 42 43 51 42 48 48 46 40
98 84 73 65 71 71 67 54 47 42 44 30 34 35 43 67 68 68 72 69 66 55 53 55 58 51 53 42 46 58 56 43 40 37 41 43 47 40 42 44 43 39 36 34 35
97 77 82 69 75 79 63 46 45 48 49 39 28 40 47 42 50 80 69 78 72 66 56 57 58 50 54 45 47 53 55 47 48 44 43 44 44 40 42 46 40 36 36 33 29

GFSSW_prec_cthk_051.txt.gz
RH
28 26 24 27 29 29 24 21 20 18 18 17 17 18 16 15 16 16 17 19 23 24 19 18 17 17 15 18 20 27 33 38 44 46 45 44 48 45 43 47 55 62 59 54 74
34 33 30 26 24 25 26 27 26 23 19 18 18 19 20 18 16 17 19 21 25 25 20 19 19 19 18 19 22 27 32 39 44 44 42 39 41 45 46 50 54 57 59 66 71
37 36 35 33 30 27 26 28 29 30 26 21 19 20 20 22 18 23 25 23 26 26 21 22 20 19 20 22 24 26 31 33 40 43 36 34 42 58 67 65 55 52 55 64 75
37 35 35 36 34 31 31 31 30 29 30 29 23 20 22 23 25 27 26 27 28 25 22 23 19 19 24 25 28 32 32 30 35 40 34 39 43 54 60 85 56 47 54 64 71
41 37 36 34 37 36 32 32 32 31 30 29 29 28 26 28 25 28 30 30 28 26 23 23 21 22 23 27 33 33 34 32 34 35 46 45 50 60 64 73 60 59 57 68 70
50 41 37 36 34 34 34 32 31 30 31 31 31 31 34 35 30 33 32 32 30 28 24 25 24 28 24 26 31 31 31 30 32 42 49 53 62 58 66 65 62 56 57 65 68
50 52 46 39 36 35 34 33 32 30 30 29 33 33 35 33 33 36 38 36 31 30 25 27 26 27 23 23 25 30 33 23 36 46 51 55 69 63 59 56 57 54 54 61 73
64 44 49 47 41 36 35 33 32 31 29 28 29 33 36 34 31 33 37 41 39 33 28 32 33 26 21 22 24 28 28 37 37 42 50 53 62 57 58 54 58 53 52 54 71
39 53 43 38 42 38 37 35 32 31 30 33 30 33 34 36 34 31 34 42 44 36 33 41 31 25 20 21 25 32 42 40 43 52 55 52 57 53 60 59 59 54 45 47 58
30 32 42 46 33 29 31 33 30 31 37 46 43 41 30 30 35 38 36 39 44 38 38 41 28 25 20 22 31 40 43 42 48 49 54 55 48 53 49 55 45 53 41 47 49
30 29 30 30 38 24 21 22 31 45 56 54 47 35 30 36 37 37 36 37 42 43 44 40 30 27 22 28 34 38 43 41 40 48 49 49 45 45 51 60 43 50 44 38 43
32 31 24 25 27 27 19 18 23 45 45 42 38 39 35 34 39 40 35 37 43 46 47 43 33 25 31 34 40 44 39 34 46 49 51 52 49 44 54 63 48 43 40 36 37
35 29 27 22 20 17 20 18 16 37 40 29 29 30 29 27 36 37 37 35 41 47 50 47 28 32 39 38 41 35 31 31 43 45 47 44 57 53 58 66 65 51 41 39 31
36 28 30 30 21 21 17 19 28 34 43 21 17 22 31 28 32 32 37 35 42 43 48 49 33 43 42 42 39 28 32 36 39 42 48 43 46 56 62 60 59 52 50 44 38
40 42 32 22 30 22 33 29 30 29 44 16 22 21 25 28 31 32 35 39 40 44 49 43 37 42 41 39 35 30 35 43 42 42 40 44 45 47 53 63 63 60 55 50 43
45 45 40 29 24 25 44 42 35 40 51 17 27 26 27 28 30 36 34 38 38 43 46 45 41 43 37 37 37 36 41 42 42 43 46 34 51 54 54 52 54 50 55 47 45
52 53 53 37 27 33 43 50 49 51 11 10 29 29 28 31 34 37 41 40 40 44 46 44 46 45 40 40 41 37 43 53 63 56 54 51 53 49 45 37 41 37 41 43 41
63 60 60 52 33 42 52 59 53 18 16 19 24 35 29 30 35 41 42 47 42 42 45 50 51 45 40 39 40 39 43 57 69 81 62 50 51 45 39 40 40 41 40 44 43
77 74 66 61 45 48 59 65 30 18 15 12 29 30 37 38 38 40 45 44 47 45 49 50 47 46 39 40 41 42 47 41 63 72 74 60 53 47 45 43 41 41 44 45 41
86 82 73 72 63 59 67 47 36 21 14 24 27 32 39 41 44 45 49 42 47 46 48 50 53 50 39 41 39 37 39 55 61 75 92 59 54 56 50 44 39 40 36 32 38
92 85 74 82 80 80 60 39 27 27 21 26 28 31 37 42 42 47 52 46 47 46 51 51 54 52 47 48 42 43 41 47 60 65 70 63 56 51 48 44 45 37 36 35 34
96 87 80 86 91 74 54 36 35 26 25 23 23 33 35 38 46 46 51 52 52 53 50 53 58 58 48 48 44 45 42 42 64 62 69 68 54 48 47 45 42 41 38 34 31
97 93 92 90 78 62 47 44 49 42 37 29 23 24 41 38 50 46 52 54 54 59 54 57 59 62 57 51 50 50 46 42 48 60 76 76 59 49 52 50 47 44 40 38 34
98 96 94 86 66 54 55 49 52 49 46 40 27 25 35 49 46 51 54 61 64 58 57 56 58 57 53 54 56 56 47 43 48 64 69 69 45 50 51 53 44 42 43 40 38
97 85 77 73 66 70 63 51 51 52 44 39 38 26 23 43 50 51 58 64 76 63 58 62 55 54 52 50 53 55 52 47 47 47 56 49 53 46 42 41 46 49 44 38 42
96 83 78 71 78 80 74 54 48 44 47 43 39 30 28 30 35 37 57 75 88 73 67 59 61 56 57 51 53 53 53 55 53 52 54 55 54 43 35 44 43 41 47 41 44
94 82 84 80 86 85 58 44 47 64 51 54 45 41 37 26 34 47 51 65 75 86 81 69 60 64 62 55 56 56 51 54 55 51 49 48 40 41 45 45 49 44 43 40 38

GFSSW_prec_cthk_054.txt.gz
RH
24 23 22 21 20 20 21 23 22 18 16 15 14 15 15 14 15 16 14 15 17 20 21 20 20 19 19 19 21 26 33 37 41 38 42 45 48 45 48 51 52 52 53 59 58
33 31 31 28 25 23 21 20 20 21 21 19 18 17 16 16 14 15 16 16 20 23 22 21 22 21 20 21 22 27 32 34 37 36 48 50 47 43 47 48 54 50 44 49 58
37 36 35 36 34 32 29 25 22 21 22 25 24 21 18 16 15 16 20 22 22 24 24 21 24 22 20 22 22 26 27 30 34 38 50 48 46 43 43 45 58 53 46 50 56
44 40 37 37 36 36 35 31 28 27 28 26 27 26 23 20 21 24 23 25 26 27 24 22 25 23 22 22 25 26 30 32 31 39 43 43 44 54 57 61 55 46 49 49 54
53 48 42 39 37 35 34 33 32 30 30 30 30 29 27 29 23 22 23 28 31 31 26 24 26 23 23 25 26 30 33 35 36 34 41 46 50 52 60 56 51 43 43 47 56
57 53 49 47 41 36 35 34 32 32 32 30 30 32 32 37 29 29 29 31 33 31 27 27 25 27 27 23 25 28 29 30 31 37 44 47 52 56 56 51 43 42 45 52 59
67 57 59 54 50 42 37 36 34 32 32 30 29 31 37 34 30 33 36 35 37 36 30 28 27 32 30 23 22 24 25 23 34 41 41 49 51 52 58 56 52 42 45 57 72
58 67 57 63 55 45 42 39 36 32 32 29 29 32 36 30 30 31 33 34 37 39 35 31 34 35 38 25 20 23 29 36 40 41 43 52 53 47 52 60 55 39 45 50 56
65 53 50 56 56 47 37 41 39 33 31 30 35 39 37 34 33 31 28 35 36 39 37 37 36 40 35 25 22 22 35 42 40 40 48 57 52 50 51 47 48 44 43 42 42
56 57 48 40 45 55 41 30 35 33 31 32 44 47 37 32 31 36 35 35 36 38 39 40 39 43 31 24 26 34 40 41 40 46 48 59 46 43 54 60 45 44 40 41 38
51 51 37 52 29 43 47 27 27 40 51 48 49 42 37 39 36 35 35 34 37 37 39 41 41 45 26 21 23 34 40 40 40 44 50 54 46 44 50 57 53 42 41 34 38
49 47 53 38 29 34 36 39 35 47 39 32 39 40 39 40 41 37 38 37 38 42 41 45 46 35 26 24 31 39 41 40 43 47 55 57 52 49 47 54 51 41 40 38 33
40 53 40 41 41 30 30 28 41 42 39 27 23 28 33 32 36 35 39 36 39 43 41 46 49 33 34 37 40 39 38 32 43 45 52 50 55 55 50 56 57 51 42 42 32
38 41 53 38 29 36 31 29 42 45 42 31 22 17 23 30 32 31 37 37 38 41 43 44 50 37 41 42 39 36 36 34 39 45 49 46 49 49 51 50 56 53 51 45 43
42 42 42 41 31 34 53 46 41 34 24 14 23 24 23 21 24 32 33 40 37 39 41 40 50 47 43 41 40 35 36 36 39 41 44 43 45 40 52 58 56 56 57 49 45
48 46 47 40 31 35 42 48 52 40 50 17 22 25 28 26 24 31 28 37 37 39 39 39 44 43 40 45 38 35 34 39 44 44 49 40 46 43 54 55 48 54 57 59 48
55 54 51 47 37 28 49 57 55 58 16 11 25 25 26 28 27 31 33 35 40 44 43 40 43 44 41 46 41 37 41 48 51 58 53 47 47 38 47 45 41 42 40 46 46
61 62 55 53 48 35 47 68 63 29 19 18 22 31 29 27 29 29 35 35 38 41 44 47 48 44 41 47 43 39 41 51 54 67 58 55 52 42 42 44 39 39 38 41 43
73 70 60 59 60 47 50 64 52 35 23 16 23 25 35 34 33 37 37 38 39 41 44 48 45 40 43 48 47 41 40 38 53 57 62 62 55 46 45 43 41 40 39 39 40
78 78 65 72 72 60 58 50 44 37 23 27 33 33 43 46 45 46 45 41 39 38 43 45 53 47 45 48 49 46 43 51 56 64 59 61 65 57 47 44 42 42 38 42 34
89 85 72 83 84 72 57 52 44 39 28 30 29 33 46 48 46 46 48 48 48 47 49 50 54 51 51 50 50 47 45 47 52 57 56 57 57 54 51 44 39 38 42 37 35
98 88 86 91 89 69 54 50 50 39 32 31 29 30 41 52 49 42 42 46 56 55 51 50 53 52 50 51 48 47 47 46 55 54 54 60 49 52 47 47 42 43 40 37 36
98 92 94 94 81 64 59 59 59 58 45 35 28 26 29 48 54 48 43 45 56 61 59 56 53 61 57 54 53 50 47 46 52 51 54 63 50 43 53 47 42 40 42 43 39
98 95 92 85 69 69 75 69 69 63 58 51 37 30 29 34 49 51 51 43 51 59 65 64 55 50 51 55 54 56 52 47 52 62 54 51 42 50 56 52 48 48 47 49 45
97 86 78 76 71 76 74 64 62 59 57 54 45 39 36 33 34 35 46 55 57 67 74 73 57 57 56 57 58 55 57 54 53 53 55 46 44 39 53 43 43 46 45 45 44
91 84 81 75 76 81 74 58 63 67 62 54 49 43 39 31 26 35 47 59 66 68 81 79 76 61 62 59 61 61 54 55 57 58 56 55 49 37 42 44 46 45 46 44 38
92 89 86 79 77 75 54 62 70 72 64 56 50 48 40 40 31 28 50 51 60 67 78 88 88 86 61 62 61 66 52 56 56 59 59 56 54 50 44 49 44 41 42 39 45

GFSSW_prec_cthk_057.txt.gz
RH
35 31 27 23 21 19 18 18 18 18 18 17 13 11 11 11 11 11 13 15 16 16 18 20 20 21 21 22 24 22 27 35 34 32 31 34 44 41 40 44 48 51 54 44 41
41 39 33 29 25 23 21 20 18 18 17 18 19 17 14 13 12 11 13 16 16 17 22 21 22 24 24 26 27 24 29 32 30 32 31 36 42 38 44 54 58 56 53 49 45
50 43 41 36 31 30 29 26 24 21 20 18 18 18 20 20 17 15 17 17 18 22 23 23 22 25 24 27 28 25 24 27 28 31 27 36 41 48 52 56 59 55 48 43 41
54 51 47 44 39 35 34 32 32 28 25 23 21 20 22 25 23 25 21 22 23 24 25 25 24 27 25 25 29 24 24 27 27 27 28 41 42 49 55 58 52 43 39 39 42
66 63 56 50 48 42 38 35 35 34 32 28 25 25 28 29 29 25 25 25 28 29 30 28 25 27 26 28 31 28 26 28 29 27 33 42 43 51 56 61 55 42 38 41 49
78 74 73 58 52 50 43 39 37 35 32 31 29 27 31 38 30 27 27 23 28 31 33 31 26 26 28 30 31 30 26 26 26 33 40 41 41 47 54 61 58 40 36 51 61
67 81 75 75 58 54 51 44 39 37 33 31 30 29 35 33 29 29 33 35 35 35 37 36 29 32 33 31 29 29 21 26 27 36 40 41 44 45 52 60 55 36 38 47 50
54 67 77 80 75 58 56 52 45 39 36 33 30 31 36 30 31 32 33 36 37 40 39 36 34 36 40 37 37 28 23 28 32 39 40 46 41 43 53 51 49 42 40 41 43
47 46 59 73 63 69 52 56 51 41 38 34 32 34 39 34 35 34 33 36 39 38 40 35 36 41 40 40 38 24 28 35 36 38 41 48 48 40 52 53 48 41 42 40 36
42 53 49 58 63 54 57 55 47 46 39 35 39 40 36 34 34 37 38 37 37 37 41 37 40 43 43 44 34 24 31 35 40 39 42 51 48 40 45 50 53 41 40 40 35
32 35 60 58 51 54 46 40 58 54 53 38 40 40 39 38 38 38 41 38 36 39 42 40 38 46 44 43 29 24 29 40 40 39 40 45 47 47 41 49 50 39 39 35 35
26 29 38 58 59 48 52 46 53 71 57 40 40 41 38 37 40 39 41 41 38 39 44 42 38 45 42 39 30 30 33 39 41 41 42 43 48 46 42 46 52 41 37 34 37
25 30 30 42 52 51 49 44 60 62 60 46 31 28 31 31 36 35 41 42 40 41 42 43 41 44 43 36 31 32 39 38 39 37 38 42 44 48 41 46 48 46 38 33 31
28 30 30 32 44 44 50 59 47 58 56 35 37 27 26 30 33 33 35 42 43 40 45 46 40 48 48 35 33 40 38 38 36 36 41 40 44 39 42 44 48 45 44 37 33
30 35 36 35 38 37 55 54 61 72 36 20 28 27 29 28 21 29 32 39 43 44 46 43 43 47 51 39 45 37 44 40 40 40 42 42 44 36 44 46 45 50 46 41 35
32 40 40 37 37 44 23 55 70 77 54 19 21 32 36 33 24 25 29 35 42 44 45 43 44 48 49 46 48 41 45 41 46 45 47 41 43 38 41 39 44 46 49 46 40
38 43 44 45 44 46 30 49 80 77 31 23 25 24 30 35 29 27 26 32 43 48 44 42 42 43 45 49 47 46 46 51 50 55 49 45 46 37 29 32 39 38 42 42 44
40 53 50 52 55 51 39 56 65 53 32 27 23 31 27 30 31 29 32 29 39 42 45 44 47 41 42 44 48 50 50 54 51 57 47 48 47 39 36 37 37 35 35 39 42
50 54 51 58 62 61 48 63 55 52 40 32 29 33 34 34 34 36 37 35 32 40 43 50 46 42 43 47 44 51 55 47 55 58 61 50 41 34 39 37 36 37 35 37 40
51 56 53 70 71 68 60 55 60 54 43 39 32 34 42 41 37 38 43 40 38 36 42 45 51 44 43 48 47 51 54 58 59 64 61 47 44 42 44 42 40 38 39 38 43
62 63 53 76 79 74 64 56 53 50 48 40 38 42 42 42 41 42 47 51 50 49 47 47 50 48 48 48 49 53 53 54 56 60 59 55 45 38 44 46 45 38 33 36 38
70 72 61 78 83 72 68 60 51 46 47 38 39 36 45 51 48 45 50 47 52 54 56 50 52 52 49 49 50 51 56 56 63 60 61 59 39 37 44 42 44 43 37 37 33
75 78 73 81 78 73 74 67 64 57 49 44 36 34 39 44 52 50 52 53 54 59 63 62 55 57 56 57 55 54 55 54 57 58 60 60 45 34 40 42 40 35 35 34 35
81 83 85 80 74 77 84 76 72 64 61 57 48 36 32 35 43 54 56 61 53 67 66 68 65 61 56 59 57 57 53 53 54 60 55 53 44 35 36 42 40 39 43 42 40
79 83 77 76 77 80 84 76 76 71 65 64 55 47 41 43 37 51 54 56 56 66 70 69 76 69 57 53 58 57 58 55 55 53 55 47 50 37 38 39 41 51 52 47 43
76 78 81 82 85 89 83 77 81 78 70 66 60 56 50 44 42 41 49 57 61 59 64 78 80 73 64 56 57 60 56 54 53 56 57 57 52 48 41 41 42 44 49 45 39
76 81 89 88 84 85 75 83 83 81 72 68 67 68 62 51 44 37 36 44 55 63 64 68 80 86 81 76 65 60 49 57 56 55 57 62 57 52 46 41 45 43 48 45 44

GFSSW_prec_cthk_060.txt.gz
RH
40 40 38 36 34 34 30 24 20 18 17 17 17 17 14 10 9 9 9 10 14 16 17 17 17 19 21 22 24 27 30 31 28 27 26 26 27 30 40 49 55 57 57 57 53
45 44 43 42 39 39 37 32 26 21 19 17 17 17 17 17 15 11 10 11 16 17 18 18 19 22 23 24 26 29 30 30 26 27 27 24 27 34 44 54 57 54 48 46 44
47 49 50 49 47 44 41 40 34 30 25 21 18 18 16 17 19 19 17 17 17 16 19 21 21 25 25 26 28 30 29 28 27 27 27 25 32 40 48 55 53 51 47 40 41
44 47 52 54 55 52 45 43 41 37 32 29 23 21 19 19 22 26 25 24 22 20 21 22 22 27 28 26 28 31 27 27 24 25 28 29 35 42 46 50 56 59 45 42 47
44 45 52 55 59 62 57 47 44 41 37 33 31 28 25 26 25 27 34 28 25 24 24 26 25 27 29 27 28 31 29 29 27 24 27 34 38 43 45 51 57 63 49 47 53
37 43 47 52 58 64 64 61 52 44 40 36 35 33 34 40 28 30 30 30 27 26 29 30 29 27 28 29 32 33 32 31 28 25 29 36 39 41 41 50 55 57 46 48 52
20 31 38 48 50 57 65 69 66 51 44 40 39 36 36 42 29 33 32 36 34 28 29 32 33 33 31 32 34 34 34 33 25 22 31 35 40 43 42 45 47 50 49 46 47
15 18 26 34 47 51 62 69 68 63 53 42 40 37 37 42 33 37 32 32 40 37 37 37 36 35 36 38 39 36 37 34 22 26 33 36 40 40 42 45 49 48 46 47 42
14 15 17 30 37 44 56 66 71 71 62 52 42 40 40 42 41 39 39 33 40 43 43 39 36 34 35 42 43 41 41 32 29 28 35 40 44 42 43 50 53 49 43 43 41
17 18 18 19 35 46 51 60 57 68 74 57 54 45 40 42 43 46 46 44 35 43 43 42 39 37 40 46 51 44 35 31 34 32 37 42 43 40 41 47 53 46 40 38 40
19 21 20 21 26 37 51 56 56 59 67 76 57 44 42 49 52 46 44 47 40 35 41 42 42 40 44 48 39 38 35 29 31 36 36 37 44 39 40 44 49 48 35 34 37
24 22 21 22 25 33 43 54 70 70 65 54 63 56 44 45 54 49 46 46 43 41 39 42 40 43 46 47 41 42 39 33 32 36 39 37 39 38 41 41 47 48 38 32 35
23 21 22 27 27 27 35 38 63 74 67 52 44 46 47 42 48 42 47 48 46 45 40 41 39 45 46 48 44 46 39 32 36 39 38 37 35 37 38 40 45 46 41 36 31
23 22 26 28 26 32 36 42 60 74 78 50 47 41 46 42 43 35 40 44 48 45 45 42 39 43 44 45 45 48 34 33 39 43 46 39 43 33 34 38 42 42 45 40 33
23 24 26 29 31 37 42 42 50 73 63 32 33 35 43 41 36 37 34 41 48 47 47 43 42 43 48 46 47 44 35 44 46 46 42 37 41 33 37 35 37 41 43 41 37
24 27 36 32 32 41 42 34 48 74 72 31 27 38 42 44 39 37 36 38 40 51 50 47 45 47 44 46 49 42 47 52 53 47 51 39 40 37 32 33 32 36 41 43 42
24 34 38 38 37 47 46 39 61 75 39 39 34 35 49 45 45 40 37 36 38 49 52 49 46 46 46 48 50 49 56 64 61 62 56 42 43 34 30 30 34 34 35 36 41
34 36 39 39 43 52 53 55 64 53 48 43 43 29 41 48 49 44 41 33 29 40 51 50 49 45 45 46 50 53 58 67 62 64 51 49 48 33 34 30 33 35 33 31 32
41 40 41 38 49 60 61 62 59 49 47 41 46 41 40 46 51 44 45 37 26 33 44 52 49 42 42 43 47 53 60 57 65 69 70 55 41 30 27 29 33 34 33 31 32
47 49 41 42 57 66 68 61 55 61 49 43 43 49 47 46 48 51 51 54 39 34 36 46 52 46 43 44 44 48 54 65 68 74 76 60 51 35 31 32 34 35 35 35 37
59 61 42 48 65 74 68 68 55 52 61 47 43 49 53 55 52 54 58 61 61 51 43 44 46 46 49 50 51 52 54 56 59 67 66 65 56 34 32 36 40 38 36 35 35
65 69 49 61 73 75 71 73 59 49 55 46 44 43 47 51 53 64 61 57 58 63 54 49 51 51 47 49 49 51 56 55 65 64 68 66 49 36 36 44 42 42 35 32 32
71 66 60 74 75 77 75 68 67 61 59 57 52 49 49 47 49 57 66 62 56 58 74 71 63 62 60 52 50 51 49 52 58 59 62 65 57 42 41 41 47 43 39 35 32
73 85 67 87 69 75 76 69 74 68 66 64 57 51 49 53 52 54 57 61 59 55 62 67 73 68 64 57 56 55 52 50 53 62 61 62 55 48 42 40 40 43 44 37 36
78 78 68 86 82 69 72 73 84 77 74 76 68 60 57 54 57 54 50 53 60 67 59 69 72 78 70 65 61 56 56 57 57 56 60 56 59 52 46 45 41 41 42 48 47
79 74 79 81 74 77 78 79 83 84 83 79 77 76 71 64 52 57 52 49 54 63 71 64 73 77 76 69 62 61 60 60 59 59 57 58 58 55 48 48 46 42 42 42 45
84 78 83 77 75 80 78 85 84 85 84 83 84 81 76 67 58 48 52 49 50 54 64 75 73 75 76 72 64 59 60 64 64 61 57 56 54 53 50 51 50 48 47 46 44

GFSSW_prec_cthk_063.txt.gz
RH
32 31 30 31 31 33 34 35 34 31 30 28 23 19 18 16 14 11 9 9 9 13 16 17 17 15 17 19 23 26 29 28 27 29 22 23 24 28 29 39 47 50 52 48 40
34 35 35 36 36 37 37 36 37 37 35 32 29 23 19 18 17 18 15 11 10 13 17 19 17 16 18 20 24 26 28 28 28 27 23 24 26 27 34 42 49 52 51 48 36
31 32 34 35 38 41 43 41 38 37 39 37 33 30 23 21 20 21 25 18 12 16 20 20 18 18 21 23 25 27 27 28 29 28 27 25 28 31 39 42 48 50 53 54 36
28 30 31 33 35 37 42 46 45 40 43 40 38 35 30 27 25 29 28 24 20 19 22 21 20 22 23 25 26 28 28 30 28 30 29 25 28 33 43 42 46 50 54 52 39
20 23 25 24 26 33 38 42 50 50 46 45 40 40 36 35 34 25 33 31 28 26 26 23 22 23 25 25 27 28 29 29 28 30 29 25 31 37 43 42 48 51 54 48 42
16 14 15 17 19 21 29 36 41 53 55 51 49 43 42 46 43 30 27 34 32 30 31 27 25 24 26 27 29 29 30 30 31 31 31 26 32 39 38 42 48 48 44 47 42
18 15 13 13 12 14 20 25 37 41 53 59 54 49 49 45 43 37 32 31 38 37 33 34 32 29 27 31 32 33 34 32 33 34 30 25 32 38 40 45 49 51 48 47 41
12 12 14 14 12 12 12 21 29 38 50 58 58 57 49 47 46 43 37 33 38 42 38 33 33 32 32 34 38 39 38 37 30 31 26 26 30 35 41 46 52 55 52 44 42
13 14 15 15 15 14 11 14 23 31 46 57 63 60 56 51 55 46 48 41 35 45 45 42 39 36 36 36 40 43 41 36 32 29 29 30 31 36 43 45 49 54 50 42 41
15 14 15 16 15 14 13 12 15 29 48 54 61 72 65 51 62 60 57 55 41 45 53 50 44 38 37 37 39 44 44 37 34 33 34 32 31 34 42 43 46 51 50 40 38
16 17 17 18 16 16 15 14 13 28 42 57 60 59 69 65 70 60 55 58 55 41 53 52 48 39 38 41 42 42 42 37 33 33 31 32 32 33 38 44 45 47 49 41 36
17 20 18 18 19 19 22 23 32 36 38 45 56 57 54 68 69 63 65 54 56 50 48 50 45 44 46 43 41 42 40 38 36 35 35 34 31 30 37 41 41 43 45 45 36
16 18 20 20 22 22 26 27 34 36 45 32 44 58 50 55 75 60 57 58 57 53 48 45 44 44 48 48 44 44 43 44 39 35 39 37 31 29 32 41 40 43 46 44 36
17 19 20 22 21 28 34 36 41 40 48 33 47 52 50 52 55 54 67 59 62 56 52 44 42 40 45 46 44 42 44 45 41 36 40 38 36 29 27 33 35 39 42 45 39
21 21 22 26 29 30 35 37 39 42 44 22 39 43 42 45 48 56 52 51 54 58 56 49 47 42 45 42 46 41 47 47 39 41 46 40 37 27 28 29 31 34 39 40 40
24 21 24 27 30 32 37 37 36 54 46 28 37 52 50 45 46 54 63 55 47 56 61 53 49 45 41 44 44 45 48 46 43 52 54 41 38 28 29 29 30 34 37 40 43
24 22 26 31 35 39 42 39 48 56 31 32 41 49 35 49 52 49 54 49 47 59 65 58 51 50 47 46 47 47 49 51 57 62 56 47 41 28 27 27 29 35 36 38 40
28 31 29 35 37 42 49 48 58 38 43 30 39 53 41 60 57 57 59 47 38 44 56 61 60 51 49 49 47 48 48 55 61 63 57 55 45 30 26 28 32 33 38 37 36
34 33 33 31 39 50 53 55 46 39 42 41 34 37 54 55 66 61 60 54 43 43 43 55 55 52 50 50 50 53 53 49 61 69 65 56 47 36 26 26 31 36 39 38 36
37 35 28 32 44 53 59 53 44 51 51 42 45 46 65 64 69 69 67 66 48 36 40 44 52 54 51 51 52 52 53 57 62 62 67 60 55 43 32 28 29 34 37 36 38
49 47 33 37 48 63 67 61 48 41 55 51 48 52 57 72 66 79 75 71 65 53 34 41 45 56 56 53 52 51 52 54 55 59 60 59 53 47 39 28 34 37 40 37 38
48 53 42 53 70 67 65 72 50 39 56 55 52 56 56 63 68 71 77 72 73 67 55 46 52 53 52 54 54 55 50 50 56 64 67 63 52 45 45 35 34 41 40 41 39
55 51 47 65 74 69 71 66 62 50 60 61 57 58 57 62 68 74 76 72 70 64 68 69 57 60 58 56 56 55 54 54 55 57 55 61 52 45 51 46 37 38 44 46 43
65 63 60 66 68 69 82 70 70 53 64 70 66 66 64 64 63 66 66 68 70 71 59 79 82 67 61 65 65 61 57 54 53 61 59 56 52 49 49 53 46 38 42 45 46
70 66 61 74 56 65 90 67 59 58 70 75 72 70 64 63 64 57 55 61 59 71 75 72 82 81 82 76 74 68 62 59 56 54 56 53 55 51 51 54 52 47 38 39 40
71 69 69 60 80 71 92 89 57 62 76 84 81 82 78 67 59 60 56 55 59 58 70 71 81 77 68 72 75 72 65 58 57 59 61 61 59 56 54 57 57 53 48 43 33
70 69 76 62 71 98 95 88 64 77 88 88 89 86 80 74 67 63 63 58 58 60 65 73 84 80 68 68 61 66 63 62 65 67 66 68 65 60 58 57 57 59 56 53 44

GFSSW_prec_cthk_066.txt.gz
RH
27 28 28 29 29 29 29 29 29 27 26 26 25 27 28 27 23 19 19 13 9 8 12 15 15 16 17 19 18 20 23 25 24 24 27 27 22 23 26 28 35 38 42 49 48
25 25 25 26 26 28 30 31 32 32 29 26 27 30 28 31 29 24 20 20 13 10 13 17 18 17 19 18 20 22 24 25 24 25 27 26 24 23 25 29 37 40 45 48 50
18 21 21 22 23 22 24 26 28 30 34 33 29 29 32 31 37 31 27 26 24 13 15 20 21 20 19 19 20 22 24 25 26 27 28 28 26 25 26 29 38 41 47 49 55
13 14 15 14 16 17 16 18 22 26 29 34 36 33 32 34 38 44 39 31 28 21 18 20 21 21 20 21 22 24 26 25 27 28 29 30 29 24 28 33 38 41 46 49 44
16 14 9 8 9 9 10 13 14 16 22 27 33 41 38 41 43 40 40 38 32 29 25 23 23 22 23 21 24 25 26 28 28 29 29 32 30 23 31 37 40 45 44 42 42
17 15 10 9 10 9 9 9 10 12 15 22 26 39 45 44 47 45 38 40 42 35 29 26 25 26 25 24 24 26 28 28 28 28 29 34 29 26 32 35 44 46 46 43 41
12 11 11 12 13 12 10 9 8 8 8 15 21 33 48 43 55 49 41 36 41 40 38 34 30 27 24 26 26 28 31 31 32 30 31 35 25 25 31 38 47 46 48 45 39
18 15 14 13 13 11 9 7 6 6 7 10 17 29 42 45 54 61 49 37 34 42 42 39 37 36 32 30 31 32 34 36 36 31 32 31 19 29 36 40 45 44 49 46 38
20 19 16 14 13 11 9 6 7 7 7 10 14 29 40 45 51 64 66 50 37 38 45 48 42 39 37 34 32 36 35 38 37 32 35 32 22 35 37 39 42 45 48 49 40
21 19 16 15 13 11 10 7 8 11 15 15 19 28 38 52 49 67 77 66 49 36 40 50 49 45 37 34 32 38 41 37 38 36 33 34 26 28 33 38 41 43 46 47 42
21 19 16 15 12 13 10 12 17 23 17 17 18 24 32 54 55 66 85 71 65 49 42 49 52 46 39 39 40 38 38 37 36 37 33 33 26 25 31 35 40 42 44 44 42
23 18 17 16 14 15 18 24 25 30 28 13 13 14 18 46 55 70 80 83 69 58 49 56 52 48 47 46 44 43 39 37 38 39 35 31 31 25 30 31 38 46 45 45 46
23 19 18 18 18 20 23 26 29 33 30 14 18 23 28 37 57 65 82 83 70 71 58 52 50 53 52 50 48 44 41 41 42 42 38 35 33 28 28 28 32 40 42 44 46
23 19 20 21 24 25 28 27 31 32 35 21 22 27 37 51 56 54 69 86 69 62 66 59 49 52 52 51 49 46 44 43 42 42 37 40 36 32 30 28 28 34 37 41 42
26 25 25 25 26 28 28 29 30 36 28 17 22 32 39 47 43 53 62 82 75 64 64 58 53 49 47 45 48 45 46 46 45 42 39 37 39 28 26 24 25 30 32 38 38
26 26 25 29 29 29 27 31 32 44 26 25 28 36 43 44 47 51 63 78 81 83 74 67 58 50 44 47 47 47 48 48 47 45 45 40 41 31 25 26 27 30 31 35 40
26 28 28 31 33 28 29 37 43 34 17 28 31 36 34 49 57 50 60 69 71 74 74 74 60 57 51 48 48 48 47 53 53 53 42 42 45 35 27 25 27 30 31 35 38
27 34 34 30 29 34 35 40 44 25 23 23 24 26 37 54 65 65 69 66 69 69 62 67 69 59 55 50 52 46 45 48 54 53 49 50 47 37 30 27 27 30 31 34 39
29 34 34 29 30 37 49 48 29 30 39 30 23 23 28 49 63 68 68 67 64 58 61 63 65 63 59 54 51 51 51 49 54 59 55 51 43 42 32 28 28 30 35 37 39
35 37 32 29 35 48 54 49 40 36 42 32 29 33 37 53 65 71 76 75 71 58 50 57 59 60 64 61 56 56 54 55 55 62 62 53 47 47 40 33 29 34 39 39 39
37 42 34 27 38 59 59 47 48 39 39 42 42 41 40 51 66 82 95 87 76 62 54 51 51 61 57 60 58 58 57 56 54 53 57 59 52 46 47 41 31 35 36 38 39
47 47 40 47 53 56 56 46 52 44 42 42 44 45 46 50 63 76 89 83 85 74 55 60 62 63 58 58 55 55 56 56 58 62 58 60 56 47 50 47 35 37 38 40 41
50 48 42 58 63 54 53 55 53 52 49 48 46 49 53 55 58 68 90 87 79 82 77 65 57 56 56 56 57 58 57 53 54 54 59 65 53 48 50 50 44 38 42 44 44
58 58 56 57 56 57 60 56 67 53 55 55 54 53 55 56 60 66 65 80 79 78 78 78 70 52 48 49 57 58 56 56 58 60 56 52 51 49 50 50 49 43 44 48 50
63 59 54 66 53 58 65 62 77 75 64 59 56 54 58 63 60 60 67 66 72 73 78 79 93 79 69 68 65 68 68 63 59 58 59 57 55 52 50 49 48 50 44 45 50
63 60 64 62 68 72 60 58 65 77 75 59 61 67 68 65 61 62 71 66 69 67 72 80 90 81 78 72 69 71 67 65 64 63 62 60 57 54 52 52 52 51 54 50 46
69 61 70 64 62 70 77 60 66 92 75 66 70 79 78 75 74 63 68 71 68 68 73 71 85 82 74 67 65 73 72 70 68 65 65 65 63 58 60 60 59 60 59 55 49

GFSSW_prec_cthk_069.txt.gz
RH
22 22 22 22 22 22 23 23 24 25 25 26 26 24 22 22 23 24 28 26 25 16 12 16 16 16 16 16 18 21 21 20 22 27 25 30 29 26 27 22 29 32 34 38 42
18 17 18 18 18 19 19 17 18 18 20 21 23 26 24 21 24 31 29 29 25 23 15 17 18 17 16 17 19 20 19 19 25 26 25 28 28 32 30 23 32 38 43 44 46
14 11 10 11 12 12 13 14 13 12 15 15 18 23 26 25 27 31 36 37 34 29 22 19 21 21 19 18 18 20 19 21 26 26 26 28 28 29 33 28 33 40 40 45 46
14 9 7 6 6 6 7 7 8 9 10 10 11 15 21 25 29 23 29 38 44 36 29 26 25 24 20 19 19 21 19 23 25 27 27 28 28 31 33 27 30 35 37 44 46
16 13 10 7 7 7 7 6 6 6 7 8 9 11 15 24 24 32 32 31 42 44 35 31 27 26 23 19 21 23 21 25 26 27 27 28 28 32 34 26 31 37 41 45 45
16 11 9 8 8 8 7 7 6 6 6 6 6 9 16 19 19 24 33 36 45 56 44 34 32 28 25 24 24 23 24 26 26 28 28 29 28 34 31 26 33 37 45 48 48
17 15 13 11 10 9 8 7 6 6 5 5 6 7 14 10 15 23 30 35 41 54 55 41 37 34 31 29 27 26 25 26 28 29 29 29 30 33 25 26 33 38 44 47 47
15 15 15 14 11 10 8 7 6 6 5 5 6 11 13 6 15 24 36 39 37 49 51 45 46 39 33 29 28 26 26 28 29 33 34 33 34 28 28 29 34 41 44 45 47
17 15 15 14 12 11 9 7 6 6 6 6 12 15 12 12 16 21 40 45 42 52 48 49 41 40 39 35 32 30 30 31 34 36 35 34 37 33 37 30 33 42 42 43 44
18 17 15 16 13 12 9 8 13 16 16 17 22 22 19 16 19 22 47 55 58 54 48 52 50 43 40 41 36 33 32 35 38 39 35 34 40 31 37 35 32 39 44 45 43
20 19 18 16 14 14 13 20 25 32 26 12 14 20 10 15 21 23 34 66 69 75 71 42 52 47 43 41 41 37 38 40 41 38 36 36 37 38 35 39 33 37 40 45 44
23 23 20 16 14 16 24 32 26 25 25 13 14 14 13 14 17 24 39 64 77 79 72 45 43 47 51 52 48 40 38 40 41 38 35 36 32 32 29 36 38 39 41 43 43
30 27 22 15 14 23 32 34 30 33 28 15 16 16 20 22 24 24 44 70 81 87 86 63 46 51 57 57 54 48 45 43 44 41 38 37 36 36 31 31 34 31 31 42 43
34 31 22 15 23 30 32 34 34 34 32 28 20 24 27 27 29 28 42 71 81 87 88 77 58 61 59 57 56 50 46 46 45 44 40 37 34 38 35 38 37 34 30 33 41
37 32 27 23 23 27 35 31 33 38 27 23 24 23 25 28 25 32 35 64 77 85 88 85 70 58 63 59 59 52 52 49 48 46 44 38 35 35 35 34 34 27 31 35 38
38 34 28 29 29 33 37 34 38 51 32 26 24 28 32 33 35 35 35 55 74 86 89 82 78 73 58 55 59 52 54 52 50 49 48 40 41 38 37 36 32 28 30 38 40
35 35 31 33 39 42 33 41 46 36 19 24 29 29 29 32 41 42 45 50 75 93 91 83 80 73 70 53 59 50 54 56 57 55 49 43 41 37 38 34 30 31 32 37 37
42 32 33 34 35 40 43 47 45 19 25 21 22 18 16 25 52 54 57 51 67 81 87 93 86 73 66 56 56 54 54 53 59 59 47 46 44 43 43 39 34 29 31 32 35
45 37 37 37 37 46 58 56 28 25 20 30 28 15 20 43 37 46 52 60 72 77 89 80 76 72 73 64 59 56 52 49 53 61 58 50 45 45 46 36 31 32 35 35 33
44 45 43 41 43 53 63 43 32 27 34 34 24 22 30 47 50 60 64 64 74 79 79 75 75 70 79 70 63 61 57 54 52 67 67 55 50 48 43 43 38 36 42 39 37
43 52 46 41 45 61 59 41 37 32 30 37 33 38 39 43 52 64 81 74 80 83 77 69 68 75 69 73 67 62 59 56 55 55 60 59 56 50 47 49 46 45 41 39 42
44 57 51 54 58 56 54 44 44 40 37 34 32 37 45 48 55 55 77 69 85 85 81 66 67 75 70 64 66 66 61 60 61 60 53 59 65 49 49 53 50 48 39 39 39
53 52 55 70 68 57 52 46 43 41 39 47 45 39 43 47 61 52 63 68 87 86 86 89 71 69 73 71 62 67 65 61 61 64 80 71 57 55 53 47 50 48 46 45 45
69 66 54 63 63 65 60 53 46 46 42 50 52 54 54 53 60 60 57 63 77 88 83 81 81 77 71 68 61 62 59 59 62 65 61 65 60 54 52 50 53 52 48 51 55
66 62 70 67 57 57 63 64 56 50 54 50 51 53 65 67 62 63 55 59 70 79 89 83 91 89 69 77 68 67 63 60 59 60 60 58 55 50 53 53 52 54 52 48 49
63 61 63 62 65 65 55 53 59 54 56 69 65 60 64 57 59 59 59 62 74 73 84 88 90 98 82 70 67 64 60 60 62 64 63 62 61 60 59 59 57 55 54 53 52
66 68 71 71 70 76 68 58 50 53 53 73 75 67 64 71 75 65 66 72 73 75 78 80 92 96 95 83 74 73 67 71 71 67 67 66 67 67 66 61 61 59 61 59 58

GFSSW_prec_cthk_072.txt.gz
RH
21 19 17 18 18 18 17 17 16 15 13 14 17 16 18 21 22 20 21 23 21 21 20 16 17 18 21 20 18 18 20 19 20 22 24 28 30 28 29 29 30 28 28 33 34
17 14 14 13 13 12 13 11 12 12 11 10 11 11 13 17 17 21 23 22 22 22 20 21 20 21 22 20 18 20 20 19 17 21 29 29 29 29 32 33 34 35 39 40 47
23 18 16 11 9 8 7 6 6 6 6 6 7 8 9 12 17 20 21 24 27 29 27 24 26 28 25 23 20 19 19 18 18 22 31 26 27 30 31 32 37 38 36 39 42
21 20 17 11 10 7 6 5 5 4 4 5 5 5 6 10 17 16 14 16 20 24 32 31 31 30 31 26 22 22 21 22 19 22 26 26 27 28 29 31 33 35 30 29 32
18 20 16 13 9 7 6 5 5 5 5 5 5 5 5 12 11 11 13 15 17 23 33 38 39 40 34 27 27 23 22 20 20 22 25 26 27 29 29 31 33 35 31 35 36
22 21 20 20 14 9 6 6 5 5 5 5 5 5 10 13 8 13 11 10 15 23 36 37 43 45 38 36 32 28 25 25 22 22 25 26 27 28 28 32 32 30 32 35 39
24 23 20 16 15 11 6 6 5 5 5 5 5 6 14 6 5 8 11 13 13 17 27 44 45 51 44 38 32 28 30 30 25 22 26 27 28 28 30 30 28 25 31 38 42
25 22 19 14 13 9 6 5 5 5 5 5 6 10 16 6 10 12 14 16 20 20 22 34 49 50 49 44 38 38 33 28 24 24 26 31 29 31 34 32 29 28 34 39 41
24 22 21 16 11 8 6 5 5 9 11 11 10 19 16 16 15 16 14 15 19 23 25 35 44 52 56 52 44 35 33 28 24 25 29 34 32 35 36 36 33 32 41 41 43
25 21 21 18 14 9 7 6 10 15 20 23 28 28 21 19 21 21 20 22 25 31 33 37 48 62 62 56 49 39 33 30 30 32 39 37 34 37 41 42 41 34 35 47 42
26 23 22 19 16 10 12 15 24 27 33 21 19 22 15 21 17 17 22 27 30 35 44 39 48 54 58 46 46 41 40 37 37 37 39 39 36 35 36 38 39 40 36 44 45
31 26 24 20 16 12 22 34 33 30 26 15 15 16 14 14 15 11 20 30 33 41 53 59 47 53 54 53 48 43 43 45 44 42 43 40 36 36 35 36 37 40 40 42 49
31 30 29 23 17 24 34 37 33 37 32 18 19 18 19 21 20 19 19 32 39 47 59 78 67 63 64 54 58 47 47 46 44 43 43 38 36 37 35 33 32 38 37 43 48
36 38 35 26 27 35 41 43 37 39 38 28 28 27 25 23 25 20 21 28 45 50 60 85 84 69 69 64 54 52 50 51 48 49 48 42 40 39 36 36 31 32 33 31 38
38 40 41 35 31 37 44 41 37 41 41 34 29 25 22 23 24 28 23 28 42 53 69 82 89 81 78 71 59 54 62 66 56 51 48 43 42 37 37 39 36 38 37 33 32
34 39 40 37 41 36 41 35 40 53 43 31 30 31 29 33 32 34 30 33 43 44 59 71 80 87 82 74 68 66 70 76 62 56 53 44 45 40 40 39 37 36 33 29 33
40 37 39 44 42 62 48 45 53 44 21 22 29 32 28 22 21 42 38 38 41 52 55 72 76 87 86 81 73 71 81 87 74 62 54 43 47 38 40 40 36 34 33 30 34
43 40 39 40 40 51 48 51 57 26 28 23 31 24 23 14 20 50 45 41 39 52 60 76 87 79 84 81 80 69 76 70 76 64 53 43 45 37 40 38 40 36 29 35 35
48 42 37 40 38 48 64 62 38 28 21 23 26 31 23 15 33 37 53 53 52 51 63 78 82 79 82 82 84 77 69 58 65 67 70 48 42 45 42 39 39 38 32 32 34
55 53 40 42 43 53 69 59 42 32 36 38 34 29 21 29 54 53 64 77 75 66 58 78 92 78 81 82 83 82 69 72 62 75 87 60 53 49 45 39 37 38 41 40 42
63 61 33 44 51 65 66 53 41 37 36 30 33 30 27 36 40 45 53 88 81 75 70 77 93 80 88 92 84 76 71 72 65 59 72 74 63 67 56 46 43 47 48 45 38
75 67 44 55 70 66 61 52 48 40 40 33 32 34 40 42 50 51 53 67 74 78 74 87 87 79 74 71 83 77 74 72 74 70 61 65 62 55 52 52 51 45 49 45 38
88 61 61 94 80 64 56 51 48 44 38 40 40 36 33 34 40 49 51 73 64 67 77 86 87 79 76 71 85 84 79 76 76 76 73 83 57 56 57 56 50 47 52 54 47
98 77 54 85 82 78 65 62 52 51 39 46 42 42 50 41 44 52 76 73 67 61 71 85 85 84 81 85 92 87 75 77 80 89 81 76 63 67 61 56 51 52 52 56 60
98 74 90 63 70 72 76 83 66 51 46 45 44 43 54 61 53 61 59 78 81 67 69 86 95 94 89 85 85 91 82 79 79 77 75 65 72 72 66 60 55 55 54 53 54
90 71 79 88 83 69 55 59 64 71 57 62 52 52 50 52 56 68 63 71 69 72 60 85 92 90 81 81 84 97 78 77 81 78 68 61 67 66 66 63 61 59 57 57 58
84 77 81 78 74 77 83 67 47 52 62 71 80 77 67 67 56 70 81 71 76 72 76 77 88 97 93 93 89 80 82 80 76 70 73 73 76 68 67 65 67 64 63 63 64

GFSSW_prec_cthk_075.txt.gz
RH
22 22 22 18 15 15 14 14 14 13 13 12 11 11 10 9 11 12 15 18 19 20 19 19 20 16 15 18 18 22 26 24 19 18 15 24 29 33 32 30 28 29 30 30 35
23 20 20 20 15 12 11 10 9 9 8 8 7 5 6 6 6 9 13 18 19 20 22 21 21 23 21 21 22 23 23 21 17 16 19 24 29 31 32 29 28 29 32 33 36
25 22 18 16 16 14 11 10 9 7 6 5 4 4 4 4 5 13 12 14 16 18 20 23 22 25 29 24 24 23 21 20 18 18 23 26 27 29 31 33 30 34 36 36 39
26 23 20 15 13 14 13 12 11 9 6 6 4 4 4 4 8 11 10 10 12 14 15 22 24 24 28 32 28 26 21 21 18 19 25 26 26 25 27 28 29 32 36 35 39
29 24 23 20 15 14 13 11 10 8 6 6 5 5 5 7 5 4 8 10 10 10 16 20 25 24 28 31 35 33 26 23 20 21 22 26 26 24 24 26 29 31 33 35 32
31 27 21 20 17 14 12 10 9 8 6 6 6 6 8 12 3 8 11 9 7 8 12 19 24 26 29 32 35 37 34 27 23 24 24 24 24 24 22 25 28 30 33 30 27
32 29 26 22 18 15 12 10 8 6 6 7 8 8 11 4 3 4 8 10 9 9 11 18 20 24 29 32 36 39 43 33 26 25 24 26 23 22 23 27 29 30 33 29 27
35 33 29 26 22 17 13 10 7 5 7 11 11 12 13 5 8 7 8 10 12 14 14 16 21 24 29 37 40 44 42 37 24 25 26 29 25 23 27 30 31 32 31 33 30
36 36 33 29 26 18 13 9 7 7 9 16 17 17 17 14 15 14 14 15 14 14 17 15 17 23 31 42 50 47 45 42 31 26 26 27 25 24 33 35 35 32 31 33 32
36 34 34 31 27 19 13 13 13 14 18 21 25 32 22 17 18 20 17 18 17 18 19 17 19 23 34 46 51 52 53 45 37 24 26 33 32 32 35 37 37 37 37 37 35
31 31 32 28 24 17 17 20 22 22 24 24 28 23 20 20 17 18 16 23 22 26 28 28 27 26 29 46 56 56 59 53 39 34 44 45 40 37 37 38 39 40 39 38 38
27 27 24 25 24 22 31 33 40 36 28 19 14 13 15 13 15 12 15 20 24 31 34 38 35 33 32 42 56 60 62 51 38 36 49 50 49 43 41 37 37 37 39 38 41
27 25 24 25 20 27 35 41 41 40 36 15 14 15 14 18 21 19 20 18 27 34 38 42 43 50 53 46 61 63 63 52 44 45 55 52 51 44 36 36 36 36 37 36 42
27 24 23 24 20 30 43 47 44 42 44 23 20 17 20 22 25 22 22 20 31 37 45 49 46 53 60 63 62 68 61 54 54 58 73 57 55 45 40 39 39 35 33 36 44
29 27 27 28 27 34 45 49 47 43 58 31 33 30 25 23 24 23 24 21 31 35 43 43 49 56 69 70 70 67 67 65 64 72 69 56 57 41 39 37 37 39 35 38 38
27 28 29 26 27 33 40 42 47 57 55 38 31 29 27 28 29 31 28 27 29 38 43 42 40 51 63 77 76 79 76 72 65 71 82 57 59 42 36 37 39 37 39 38 34
35 36 36 32 26 37 50 52 60 62 26 37 35 38 36 36 33 32 34 34 43 49 50 41 40 51 64 81 79 82 84 93 90 93 87 51 53 39 37 38 39 38 38 36 37
42 44 38 35 30 45 65 65 68 38 21 39 45 38 33 29 21 26 38 41 39 42 51 52 54 59 71 80 84 81 94 87 92 91 68 47 50 35 38 39 41 41 38 37 39
46 53 41 36 34 42 66 70 49 32 40 38 41 37 29 25 20 40 47 46 49 48 60 62 55 63 79 84 87 86 96 81 92 79 87 61 44 44 45 41 37 37 38 39 38
48 50 48 40 42 51 63 54 44 42 46 50 45 38 32 37 47 51 60 68 76 64 63 64 66 63 78 91 93 92 85 91 98 94 90 66 63 49 46 43 40 42 42 42 41
59 55 43 49 55 65 58 45 49 35 61 55 49 47 38 39 45 49 69 72 60 66 78 72 72 65 82 92 97 95 96 95 95 91 84 93 77 60 55 49 46 47 46 41 43
67 66 57 74 66 62 48 42 42 43 64 64 57 46 44 38 39 47 55 59 66 58 71 84 83 78 75 74 85 85 95 95 98 90 79 81 82 66 57 53 51 48 46 46 52
87 74 57 84 94 62 54 52 48 45 58 56 56 47 42 39 44 44 48 54 50 58 64 67 81 81 72 71 73 87 88 91 95 94 93 95 83 74 66 61 55 51 53 51 50
93 86 80 77 95 95 77 63 57 44 45 54 49 47 47 49 44 39 46 66 66 64 61 64 65 70 86 92 98 98 97 88 93 98 85 84 77 81 74 66 61 60 60 59 57
95 95 94 82 89 96 96 94 77 64 53 55 51 48 51 54 53 48 44 61 80 76 71 75 69 68 78 86 91 91 93 97 91 91 96 84 79 87 81 75 69 66 64 62 64
90 90 93 90 87 96 88 86 90 91 88 71 58 50 53 53 51 60 60 62 66 76 80 75 70 61 73 76 87 92 93 95 95 89 92 90 88 83 86 83 78 70 66 66 62
88 86 96 90 91 97 91 78 79 80 77 80 79 76 65 60 53 50 53 58 58 70 90 84 74 68 84 88 94 96 93 96 92 92 90 95 90 86 91 86 81 74 69 67 69

GFSSW_prec_cthk_078.txt.gz
RH
27 25 23 21 21 19 17 15 16 12 12 12 12 10 9 7 7 7 7 12 15 17 18 19 20 20 19 16 15 16 21 23 21 19 16 17 26 25 29 31 30 28 27 28 29
27 26 24 23 19 18 18 16 15 13 10 9 9 8 6 5 4 4 9 13 16 19 20 20 20 18 23 21 19 19 22 21 17 16 15 18 26 27 27 29 29 28 28 30 31
29 27 26 22 20 17 15 14 14 14 13 10 9 7 6 5 4 7 11 13 15 17 18 18 20 18 20 23 24 22 21 19 18 18 17 16 25 27 27 28 27 31 32 34 34
39 34 30 26 24 19 15 13 12 11 13 11 10 10 7 6 5 14 12 9 10 11 14 16 20 20 18 23 23 25 22 22 21 19 18 16 24 26 26 29 28 29 31 34 34
40 37 33 32 28 23 18 14 12 11 11 12 11 9 10 8 6 6 8 9 12 11 10 17 19 19 17 20 24 25 21 23 22 22 20 19 21 26 26 28 27 30 32 34 35
38 36 35 31 29 26 22 17 14 11 11 11 12 13 12 14 4 7 7 9 10 10 10 11 16 22 21 19 21 21 23 24 25 25 24 24 19 26 22 25 28 29 30 32 34
39 37 36 36 32 26 23 22 17 15 12 11 14 16 17 6 4 5 8 8 9 10 8 10 13 17 17 19 20 23 25 25 25 23 26 30 25 22 21 23 24 27 28 30 34
40 39 36 34 32 27 25 23 20 18 16 15 17 21 18 6 10 9 8 5 9 9 10 11 16 18 17 20 23 25 27 29 26 31 32 34 29 18 20 22 24 26 30 32 33
35 34 34 33 30 28 25 22 21 22 19 18 21 25 17 12 13 15 14 14 15 13 13 13 17 19 19 23 28 29 30 32 31 37 39 39 30 21 23 23 27 30 33 34 35
26 24 25 24 24 25 24 26 26 28 30 29 31 30 14 13 17 17 17 16 15 17 16 16 17 19 24 30 33 32 35 35 35 35 48 45 34 27 30 30 33 33 36 39 37
18 18 16 15 17 17 22 26 32 36 37 31 33 25 19 19 18 18 18 19 20 21 23 22 22 23 20 23 29 34 39 39 38 44 55 50 41 31 34 37 34 35 37 39 39
19 21 17 13 12 14 27 34 46 54 42 28 22 20 16 18 22 17 17 17 25 27 27 33 33 28 27 25 26 31 42 40 41 47 56 51 43 35 36 38 37 36 37 40 44
24 24 20 14 11 13 29 33 41 41 44 28 20 18 13 11 15 11 16 17 23 27 31 38 35 35 32 36 43 36 42 48 50 58 57 52 45 40 38 39 37 39 38 38 41
22 22 23 18 14 17 34 35 39 41 48 27 24 23 20 19 19 17 22 20 23 29 38 41 37 39 42 45 49 55 46 53 57 74 73 62 59 47 47 40 41 38 39 38 40
23 24 24 25 21 22 33 37 40 42 44 25 26 26 25 23 25 24 26 26 27 32 36 37 37 39 43 43 47 50 56 60 72 77 77 60 65 41 49 41 36 36 39 36 36
27 29 29 30 29 24 31 35 41 47 47 26 36 34 34 27 30 28 29 28 30 38 40 39 38 38 38 43 48 53 68 68 75 76 79 52 67 44 47 38 36 35 37 38 36
31 34 39 41 32 30 29 36 46 55 23 30 43 36 34 29 35 33 30 34 38 46 48 42 36 34 41 50 54 65 81 89 90 91 71 49 63 44 41 39 37 37 37 38 35
40 42 42 38 41 39 41 53 55 27 30 52 58 59 45 43 44 38 38 40 39 44 49 52 49 44 48 53 65 78 90 96 90 91 69 55 62 43 40 41 40 36 35 38 40
44 45 41 38 49 44 56 67 39 32 48 55 60 57 62 45 42 41 37 41 49 46 48 55 54 50 48 57 71 87 95 88 97 95 89 71 54 38 40 43 40 37 37 41 42
55 57 44 41 54 49 57 50 35 33 41 62 78 71 66 58 50 46 59 71 59 53 55 60 65 55 56 62 80 92 95 98 98 97 93 71 59 51 52 51 42 38 40 41 43
62 58 33 53 57 59 54 41 31 31 38 68 82 82 70 63 61 59 79 81 74 70 62 63 69 67 64 71 80 95 96 97 95 94 96 96 79 69 68 64 48 46 42 42 43
69 62 51 61 68 64 54 45 37 33 37 59 76 80 72 66 66 67 65 78 77 68 64 66 70 70 60 56 73 88 97 95 96 96 87 93 85 80 76 62 51 51 51 45 44
64 58 61 78 88 77 66 54 51 42 42 59 77 81 72 69 65 67 76 73 62 58 58 60 65 64 54 63 86 90 90 93 97 95 92 95 82 92 83 70 63 61 55 53 50
75 76 74 76 65 78 93 70 63 52 53 55 69 83 76 70 64 57 60 69 67 62 52 52 60 62 65 67 91 95 98 97 98 99 83 84 81 91 91 82 76 72 64 59 60
91 77 76 94 91 85 91 88 86 64 57 65 69 79 74 65 58 49 51 64 68 64 63 69 72 64 58 54 69 75 84 88 95 97 93 73 83 94 95 93 86 81 70 65 68
87 86 83 91 99 99 98 94 97 84 87 74 77 79 72 65 58 62 49 52 56 58 59 74 73 69 63 52 68 81 84 82 82 90 89 83 91 94 96 94 88 81 74 70 71
89 87 90 85 88 95 96 97 98 99 95 87 82 80 73 65 66 60 53 53 56 58 63 73 85 81 71 54 59 82 86 82 80 83 82 84 80 94 97 95 90 81 80 80 82

GFSSW_prec_cthk_081.txt.gz
RH
29 26 25 23 21 22 21 21 19 17 16 16 14 14 14 12 10 8 7 8 11 12 17 17 19 20 20 19 17 16 19 22 18 17 14 12 13 19 23 24 25 26 32 30 30
31 30 28 25 22 20 20 19 19 19 18 16 14 12 11 9 8 7 8 11 13 14 17 18 19 19 21 22 21 21 22 19 15 14 13 14 14 16 23 26 27 27 29 30 31
38 34 31 30 28 25 23 21 19 18 17 16 14 13 12 9 8 10 12 12 15 16 18 19 18 17 20 21 23 21 19 17 16 15 16 16 14 14 23 26 27 26 27 30 32
41 39 37 35 32 30 28 24 21 19 17 15 14 12 11 12 9 17 14 14 13 14 18 20 22 21 21 21 23 24 20 19 19 19 19 18 17 17 20 25 27 26 26 29 32
42 43 40 37 33 31 29 26 24 22 20 18 15 12 12 13 9 9 12 13 14 13 12 16 22 25 23 21 20 23 20 20 20 20 20 19 19 17 16 25 27 26 24 23 29
46 44 43 39 36 32 30 29 28 24 22 20 18 16 21 21 9 11 8 7 9 9 10 12 18 24 24 23 20 18 20 19 20 21 21 21 17 22 17 19 27 27 24 23 27
44 43 44 41 40 36 33 31 28 27 25 23 22 22 25 11 9 8 10 10 10 11 10 10 12 14 16 18 21 20 19 18 18 19 23 24 18 21 19 22 24 28 26 25 25
37 37 37 36 37 37 38 35 31 31 29 27 26 26 26 13 11 10 11 8 9 10 12 10 10 15 16 17 19 20 22 23 17 18 20 28 21 21 23 26 23 26 29 29 27
25 25 24 24 25 23 24 26 30 36 34 34 30 28 27 19 15 19 16 13 11 13 13 11 14 15 17 20 23 24 26 25 25 21 23 29 24 22 25 30 26 23 26 29 28
16 16 15 13 11 10 11 16 20 29 37 38 41 40 26 22 23 21 20 19 19 18 19 16 19 19 20 24 29 31 31 29 29 24 25 32 29 27 29 36 28 25 25 26 26
13 14 14 13 10 9 12 9 14 25 35 36 40 38 29 32 29 26 22 21 21 21 23 20 21 22 18 21 23 28 31 31 30 29 31 30 29 30 33 41 29 26 28 28 29
14 15 14 13 11 10 23 24 32 37 32 24 25 30 26 22 30 23 24 24 23 28 27 29 29 22 22 24 25 26 29 29 26 27 33 32 30 32 33 36 32 32 31 31 34
15 16 17 16 12 13 21 28 33 35 37 21 18 22 23 22 22 16 24 23 23 30 30 33 30 31 31 32 36 34 38 33 33 34 33 38 33 32 33 34 36 36 35 34 38
17 21 19 17 17 17 20 26 34 36 40 21 16 18 22 24 23 13 14 19 20 26 30 33 32 37 37 39 40 47 40 42 38 43 46 49 50 38 38 34 37 40 40 40 38
22 23 24 25 21 22 20 27 32 39 39 12 25 24 26 24 26 20 15 19 23 30 31 35 40 42 43 39 41 43 44 45 47 50 53 54 68 40 41 36 36 40 41 39 36
27 27 29 31 27 28 25 26 37 52 43 18 47 43 35 30 31 27 28 29 30 33 34 33 35 38 37 36 39 43 47 50 52 58 65 57 67 48 44 37 41 43 44 41 39
28 33 34 32 28 32 31 32 44 56 16 27 43 55 58 45 42 37 37 38 42 48 47 42 40 38 38 46 47 51 59 68 71 73 61 53 60 44 40 40 48 49 47 43 42
27 34 34 30 34 39 36 44 54 20 22 29 52 52 59 59 43 45 46 45 43 41 50 51 45 42 48 49 53 61 64 69 69 76 69 54 58 43 38 39 47 49 46 44 41
28 29 29 36 46 55 49 57 35 29 29 34 56 64 75 76 71 64 54 42 40 43 48 54 51 48 53 52 54 68 70 67 82 83 90 76 60 49 53 43 50 50 45 41 43
38 37 38 52 54 59 62 53 50 40 42 38 58 88 94 88 76 68 61 58 49 46 50 56 58 53 56 56 59 68 77 83 86 93 92 76 67 75 74 62 55 46 43 41 45
49 56 57 58 59 65 63 53 47 43 45 43 58 91 95 95 78 68 76 72 62 62 63 68 65 62 68 64 62 68 78 86 93 94 96 96 88 80 81 71 58 50 45 46 46
66 77 67 70 67 62 56 51 52 44 39 41 47 63 92 97 86 77 79 73 75 81 81 77 73 66 60 53 60 65 76 93 99 98 93 91 78 82 80 69 64 56 52 48 48
81 77 56 55 71 80 81 74 70 58 46 40 51 73 90 97 96 80 80 85 85 81 85 81 73 68 45 59 69 78 85 94 98 98 93 94 72 75 79 74 71 70 65 54 54
89 70 59 69 68 73 80 74 78 61 52 49 52 52 64 93 93 82 79 75 71 74 79 70 66 63 59 50 57 68 79 85 94 98 94 88 73 78 80 85 84 81 83 70 64
79 71 74 66 84 92 83 68 69 62 56 53 53 63 71 96 92 77 79 81 81 82 69 63 63 65 62 56 51 58 70 69 79 82 89 69 85 82 87 92 92 93 90 81 73
78 81 75 86 89 97 95 98 96 89 78 60 58 68 85 96 88 85 76 73 76 67 60 63 68 66 65 57 54 52 47 57 70 76 82 76 79 90 94 89 96 97 90 86 85
79 83 89 86 88 92 94 97 95 99 82 71 77 80 83 79 75 72 69 66 66 58 57 61 60 65 67 59 53 50 57 68 82 85 81 81 71 78 97 96 92 98 96 92 94

GFSSW_prec_cthk_084.txt.gz
RH
30 30 32 30 27 26 25 23 21 19 20 21 20 19 16 15 14 13 13 11 10 11 13 18 19 21 21 20 21 20 21 23 18 17 13 14 13 12 12 15 22 24 24 26 29
32 32 31 31 30 28 26 25 23 22 20 19 20 19 18 17 14 12 13 12 13 12 12 14 18 19 21 22 22 22 25 20 17 15 14 14 13 12 12 13 19 23 23 24 26
36 35 34 33 32 33 31 29 27 26 23 20 19 19 17 15 16 17 16 16 14 14 14 16 20 21 22 23 23 22 21 19 18 18 17 17 15 13 12 13 17 22 23 24 27
36 37 36 34 33 32 32 30 30 29 28 26 23 21 19 15 14 18 19 19 17 17 19 18 19 20 20 22 22 24 23 21 19 20 20 20 18 15 13 13 12 20 22 25 27
40 39 38 37 35 33 32 32 32 31 29 27 26 25 22 21 16 13 17 18 21 17 15 18 25 24 24 24 21 24 23 23 23 24 24 22 19 16 18 15 11 17 21 24 26
42 40 40 38 37 36 34 34 33 31 31 30 29 28 27 29 17 15 12 12 15 14 13 14 17 23 26 24 23 22 25 24 22 21 21 21 17 20 16 17 15 13 21 24 26
36 34 32 32 32 32 32 34 38 39 39 36 34 35 35 24 20 16 13 12 10 13 13 11 13 16 16 17 18 20 23 25 23 19 21 20 18 16 17 18 15 17 16 23 26
23 23 21 18 16 16 16 20 25 30 34 42 44 45 42 27 25 19 17 10 11 12 13 15 14 16 18 15 16 19 21 24 18 18 18 18 15 14 16 18 16 18 19 20 25
19 17 17 13 11 9 6 5 6 12 21 27 34 43 39 32 34 32 26 21 17 14 15 15 17 16 15 18 18 22 25 25 22 18 19 19 18 18 17 18 19 21 21 22 25
14 13 12 11 8 7 5 4 5 11 14 18 29 39 33 33 35 41 37 31 23 21 21 19 19 19 20 20 24 24 27 27 27 23 24 25 21 20 21 21 22 22 24 24 25
11 10 10 9 8 8 8 8 9 13 17 19 20 30 25 36 37 45 41 35 33 33 27 24 26 28 20 20 18 21 24 27 23 22 24 23 21 18 23 23 24 23 26 27 26
12 11 12 10 9 9 11 22 27 32 28 15 12 10 9 18 31 32 40 44 38 34 31 34 30 23 21 22 23 24 26 25 23 22 29 29 25 19 21 20 22 25 28 30 26
12 12 14 11 10 12 12 21 27 33 36 19 9 11 11 13 23 25 32 34 34 41 45 41 32 30 29 29 30 31 33 34 37 35 33 32 24 19 17 18 19 24 29 31 27
16 15 15 11 12 13 15 19 28 35 41 21 19 20 22 21 22 21 23 31 36 35 32 39 34 32 35 37 36 44 39 40 40 41 45 41 46 21 21 22 24 26 33 31 32
17 17 16 15 17 19 19 16 27 37 50 9 29 44 45 37 27 24 27 23 30 33 33 35 38 40 39 38 41 45 43 41 43 48 48 46 56 27 25 27 29 30 31 33 38
15 16 16 18 20 23 22 19 30 48 45 16 22 46 52 47 46 38 31 27 23 30 33 33 42 42 38 38 38 39 43 44 44 46 56 43 49 38 33 40 35 34 35 39 42
15 15 16 19 24 24 25 26 43 57 22 19 28 32 51 64 53 50 38 45 39 44 45 41 42 41 43 41 44 46 52 56 60 62 57 38 52 39 35 43 42 39 41 49 50
18 18 16 17 27 27 33 43 56 30 33 27 24 36 56 76 69 70 58 50 44 42 52 50 45 44 45 44 47 53 54 54 67 68 62 55 51 42 56 55 48 41 42 43 47
23 23 22 24 25 31 43 58 51 59 59 43 28 43 59 78 97 69 70 63 54 49 50 56 52 51 53 51 50 60 63 60 70 66 74 63 50 57 64 63 55 48 48 48 47
30 27 28 34 37 47 60 63 60 58 55 51 50 56 72 87 95 86 65 77 69 58 54 59 60 58 59 55 57 57 70 79 80 80 77 61 60 75 73 69 62 55 55 55 50
34 35 39 48 53 63 73 66 55 44 51 56 54 55 65 81 96 97 82 87 68 59 57 61 64 68 65 67 65 70 71 80 81 88 86 80 67 83 81 73 69 63 64 59 50
40 48 53 58 66 77 70 65 60 52 55 53 47 42 47 74 83 97 98 97 82 70 69 68 72 71 63 56 64 71 70 74 87 84 85 86 73 79 82 76 70 68 69 66 58
50 57 66 65 69 69 69 71 72 66 66 58 50 48 73 83 83 93 97 96 90 84 84 85 76 63 48 62 74 83 84 89 89 88 88 95 76 69 67 71 72 70 75 75 70
61 74 70 74 72 74 78 70 79 73 66 57 54 46 45 75 78 86 96 97 92 85 83 79 80 67 59 54 56 61 59 68 78 85 78 77 70 63 66 74 75 75 84 81 76
80 80 79 72 73 81 92 88 79 82 67 61 56 45 48 74 79 89 97 98 90 89 83 75 79 76 57 52 55 55 54 51 62 64 76 56 64 63 69 81 82 82 91 86 81
82 78 79 75 76 84 89 90 96 95 91 73 67 50 52 74 72 97 96 87 87 83 78 71 75 61 55 47 48 54 45 41 45 58 66 63 66 70 69 87 91 89 95 91 86
79 73 76 72 77 79 83 92 96 98 85 81 66 70 62 72 80 86 90 85 78 76 76 69 66 63 59 44 45 44 49 52 54 58 71 76 69 76 78 88 96 96 97 98 92

GFSSW_prec_cthk_087.txt.gz
RH
30 29 28 28 28 28 27 27 27 26 26 25 24 23 21 19 19 19 17 16 15 12 10 14 21 23 23 23 23 23 22 20 18 17 13 14 12 12 11 11 11 15 18 22 27
29 28 27 26 25 25 25 25 26 27 28 27 25 25 24 21 20 19 20 19 16 14 13 12 18 24 25 25 25 24 23 20 19 16 15 15 14 13 13 12 11 12 17 21 23
29 27 26 26 25 25 25 26 26 26 26 27 27 27 26 24 22 21 24 23 21 22 20 16 15 17 23 24 25 24 22 21 19 18 18 17 16 15 14 13 11 10 16 20 22
29 29 30 29 28 27 27 26 26 26 26 27 28 29 28 27 24 24 25 25 25 25 22 24 18 18 20 22 24 25 24 22 20 20 19 19 18 17 16 15 12 10 14 18 20
35 33 32 31 30 28 29 28 27 27 28 29 28 29 28 28 26 25 22 25 26 27 26 25 27 29 22 20 22 26 24 23 22 21 20 20 20 19 20 19 17 13 13 16 19
36 32 29 26 23 23 24 24 24 27 30 31 33 34 36 36 28 28 26 21 24 25 25 26 24 25 25 23 23 24 27 26 23 23 21 22 19 21 16 17 19 18 14 13 17
24 21 18 16 14 13 12 12 12 12 13 18 24 30 40 45 34 33 33 24 20 17 17 17 20 22 22 21 22 23 26 26 23 22 22 21 18 19 15 17 17 16 17 14 14
19 17 14 12 10 10 8 7 6 6 6 6 9 15 24 28 41 44 38 32 22 20 13 16 17 19 22 20 20 19 20 21 17 17 16 17 18 17 16 14 15 16 16 16 14
17 15 12 10 8 6 6 5 4 5 9 9 10 13 12 12 27 46 55 44 39 26 18 19 23 22 21 22 19 21 18 22 19 18 18 18 18 21 16 16 15 15 16 16 16
16 12 8 7 7 6 5 4 6 8 12 13 18 19 12 14 16 26 47 48 47 39 26 25 30 27 25 23 18 15 19 22 22 19 18 17 16 18 16 15 16 16 16 17 18
12 8 6 7 7 8 6 5 8 11 12 12 9 13 7 3 6 13 26 48 48 51 37 35 34 34 20 17 16 19 24 26 23 18 17 16 16 16 14 13 13 14 15 16 18
10 8 8 8 10 9 10 16 24 25 27 9 6 12 8 11 16 8 11 32 49 60 51 47 36 29 25 27 26 24 23 23 23 20 25 24 20 17 14 13 13 13 11 14 16
10 10 10 10 10 12 14 15 23 24 30 14 15 20 29 31 26 14 11 18 36 50 61 49 48 44 36 31 29 26 27 29 31 31 29 29 20 16 15 14 12 12 14 14 14
10 10 12 11 14 13 15 14 18 26 31 15 19 31 35 40 37 27 18 15 31 42 46 55 50 41 37 37 36 37 33 36 42 41 34 33 28 18 19 16 18 20 19 18 17
10 10 11 14 17 16 15 13 19 29 20 11 20 25 24 48 48 45 37 25 27 40 47 44 42 49 52 47 41 45 44 42 42 43 45 38 42 27 19 21 25 29 26 22 22
11 11 13 15 17 18 15 14 24 29 25 15 18 24 17 29 58 53 53 35 26 45 48 44 46 45 42 41 44 47 42 41 45 47 52 36 37 27 23 27 31 38 33 30 30
12 15 16 16 16 17 17 20 31 29 17 22 29 27 18 33 56 78 63 47 41 46 52 53 45 40 43 45 48 49 51 52 57 57 43 40 47 29 29 42 47 46 42 38 37
17 18 19 19 19 18 23 31 27 22 25 30 34 32 26 41 52 70 92 51 51 41 42 44 48 43 43 43 48 53 53 47 48 55 52 49 44 32 46 52 53 55 50 45 44
19 21 22 24 24 27 33 42 30 48 51 51 47 42 46 58 61 78 91 79 62 50 52 50 52 52 50 50 52 60 60 56 62 57 57 44 36 39 48 58 59 59 52 48 50
21 24 27 30 33 40 47 46 44 50 55 54 57 55 59 49 49 73 92 89 70 67 64 65 72 69 68 62 62 62 64 75 72 69 67 48 45 44 61 64 64 62 58 52 55
25 26 35 37 42 52 60 63 60 58 62 60 55 55 45 42 51 72 89 94 91 78 71 69 64 78 77 72 69 71 72 73 75 74 71 65 47 68 73 72 66 65 62 56 60
27 33 39 43 52 65 72 75 70 64 65 61 55 48 42 38 61 84 92 93 98 99 80 70 65 70 73 68 67 69 69 67 74 76 80 78 58 62 65 68 68 70 67 65 73
33 39 48 55 62 66 59 57 60 60 62 61 56 49 44 56 70 71 91 88 98 96 82 69 69 62 77 73 70 72 83 84 74 75 72 80 60 64 60 62 65 74 74 72 80
44 51 55 64 62 61 65 65 68 65 69 72 57 50 45 46 60 73 86 88 98 97 89 75 72 62 51 54 55 59 58 58 67 68 57 58 51 47 49 53 64 76 77 78 86
53 60 62 58 56 61 72 80 83 83 79 81 66 55 47 55 66 78 90 97 98 96 89 80 79 76 69 56 51 49 48 47 49 45 53 37 48 47 52 60 69 80 85 84 91
61 63 60 54 59 70 74 82 90 96 96 91 83 65 55 70 71 94 93 96 95 94 87 81 82 72 64 53 46 43 35 38 46 47 45 45 47 60 62 70 78 83 86 89 96
67 67 57 52 62 68 71 84 96 98 90 82 72 67 58 64 80 88 88 94 91 90 82 80 76 74 65 51 39 34 40 38 40 46 53 48 42 54 71 82 85 89 92 94 97

GFSSW_prec_cthk_090.txt.gz
RH
30 28 26 25 24 24 23 22 22 22 23 24 26 28 27 26 24 23 22 21 19 19 19 18 22 27 27 26 25 24 22 18 17 18 16 17 15 13 13 12 12 12 13 17 19
28 27 26 24 24 23 22 21 21 22 22 23 24 25 26 27 28 27 28 27 23 20 20 22 22 24 27 27 27 24 22 20 21 20 18 18 16 14 14 13 13 12 11 14 17
29 27 26 25 25 25 24 22 21 21 20 20 22 23 24 25 28 28 31 31 31 27 24 23 25 27 26 29 30 26 22 22 23 22 20 18 17 17 15 14 14 12 11 13 18
31 30 29 28 27 26 25 23 22 21 21 21 21 22 22 24 24 25 24 25 29 32 33 29 26 29 30 29 26 27 24 23 23 22 20 19 18 17 17 17 16 14 13 12 15
34 30 28 28 26 25 22 19 18 18 16 16 17 19 22 29 31 24 22 25 28 32 35 34 31 27 27 28 29 27 25 23 23 23 21 21 18 17 18 20 19 18 17 15 13
32 29 24 21 18 17 15 12 10 8 8 7 7 8 12 16 20 29 32 24 25 28 38 37 34 34 31 30 28 33 28 24 23 23 22 21 19 19 19 19 19 20 21 20 16
25 21 18 16 14 12 10 9 8 6 5 4 5 7 12 8 6 12 26 39 32 28 31 31 38 37 34 32 31 32 38 35 24 23 22 23 21 17 17 18 18 19 20 21 20
20 15 13 12 11 10 8 6 5 5 5 5 7 10 10 5 6 7 12 19 37 44 35 28 27 39 37 25 23 23 22 22 18 18 17 18 15 15 16 16 17 17 18 17 17
16 14 13 12 10 8 5 5 5 6 6 8 14 15 13 7 12 15 13 17 24 36 47 36 36 35 35 28 20 22 21 17 18 20 19 20 16 18 18 15 16 16 15 15 14
16 15 13 10 7 6 6 6 6 8 9 9 18 18 14 14 10 15 15 18 21 27 43 44 41 37 36 34 20 16 16 16 17 18 19 16 17 18 16 11 10 12 12 11 11
16 14 11 8 8 7 6 8 11 16 10 10 9 13 10 9 10 8 8 17 23 25 28 45 50 43 33 33 30 16 17 18 21 21 17 15 13 14 15 10 10 9 8 8 9
15 11 9 8 7 8 11 14 18 18 21 8 12 15 19 21 22 19 11 17 22 26 29 34 44 48 40 29 27 27 23 19 17 17 19 17 19 19 15 12 9 8 9 9 10
13 10 8 7 7 10 13 17 18 22 26 13 17 23 24 25 28 26 27 16 17 28 32 31 39 50 50 46 45 43 34 30 27 23 22 23 19 14 16 11 11 12 14 13 12
11 8 7 7 13 10 16 16 15 20 27 15 15 27 21 21 28 29 40 36 20 17 31 40 43 59 56 51 41 38 33 36 31 36 31 32 22 18 17 14 16 20 23 23 21
9 8 9 10 12 16 15 13 16 25 19 13 18 25 18 17 19 25 41 48 42 23 40 42 42 53 64 51 49 47 51 40 45 43 35 29 32 19 18 19 24 27 29 30 26
9 10 11 15 15 16 14 14 23 32 16 14 15 20 15 13 22 31 35 55 54 39 38 46 51 49 54 55 51 50 48 46 43 38 43 29 28 20 28 28 31 35 33 36 33
12 13 14 14 19 16 16 22 32 22 14 18 27 23 18 17 30 42 33 60 68 57 44 47 58 57 57 57 59 60 56 60 62 60 38 35 30 25 29 40 41 43 41 40 37
13 15 16 18 18 18 18 30 24 15 21 36 34 26 26 44 40 46 42 62 69 62 51 60 64 59 52 51 52 51 49 45 48 45 39 40 38 39 38 43 48 48 46 44 42
13 16 22 21 21 21 31 32 22 37 49 46 37 37 46 65 52 42 36 60 72 61 55 49 55 53 49 47 50 60 60 51 56 47 48 32 34 40 44 49 48 51 51 51 48
15 22 26 25 27 34 41 38 40 43 46 50 53 56 67 60 52 45 38 82 92 86 73 68 60 58 58 56 60 59 58 61 57 63 53 40 37 49 61 49 49 53 54 58 52
19 27 29 30 34 43 48 43 45 47 50 52 53 56 57 54 44 40 48 71 98 94 89 86 67 76 65 61 62 65 64 63 69 63 68 54 55 57 56 55 50 55 57 63 62
24 34 33 34 45 45 49 44 40 42 53 54 52 52 53 60 58 51 63 78 93 94 87 83 78 79 79 79 73 69 63 68 63 74 62 67 52 49 50 48 49 55 63 68 67
32 36 35 39 50 49 48 46 51 58 61 62 58 55 51 48 57 49 62 71 86 98 93 78 75 80 84 78 74 68 76 71 65 61 62 66 55 54 47 41 49 61 66 75 74
36 42 41 47 47 49 47 54 66 71 69 71 71 66 57 55 53 43 65 77 90 97 97 96 77 66 62 68 64 69 63 62 64 65 56 55 45 36 37 43 51 66 69 77 81
38 44 45 51 49 52 56 64 74 82 87 82 84 82 77 66 46 55 86 96 98 98 93 84 78 67 58 54 49 45 43 46 49 45 46 36 34 37 41 50 52 67 73 84 84
45 47 50 44 47 54 59 66 79 90 95 89 91 75 65 69 54 89 93 94 99 93 96 82 80 67 58 51 43 39 36 39 38 40 44 37 43 38 46 48 61 71 77 84 89
49 50 51 45 46 53 59 69 81 94 87 89 82 77 58 49 70 85 85 93 95 97 94 85 76 65 64 49 43 38 43 41 41 43 48 48 49 45 50 59 70 76 82 88 93

GFSSW_prec_cthk_093.txt.gz
RH
34 33 30 28 26 24 23 23 21 21 22 22 21 21 20 21 22 22 27 27 26 23 21 23 29 28 29 30 35 33 29 22 22 22 22 21 17 16 16 16 16 16 15 22 24
34 32 31 29 27 25 25 24 22 22 21 20 21 21 20 20 20 24 25 25 26 26 24 25 29 28 28 30 33 34 30 24 22 23 25 23 17 17 16 17 17 16 17 15 15
33 32 31 29 28 27 26 25 23 21 21 20 20 20 20 20 26 22 19 20 20 23 28 26 28 31 32 30 32 33 30 27 26 28 28 25 20 20 18 18 18 18 18 14 14
36 34 31 30 28 26 23 22 21 18 16 15 14 12 12 13 18 19 18 20 21 21 24 28 28 29 32 32 33 35 32 30 28 28 31 27 22 19 19 20 21 20 18 16 15
36 34 32 30 27 23 20 18 14 12 12 10 8 7 7 14 10 9 8 12 20 28 29 30 31 30 30 34 31 36 33 37 31 28 28 29 22 19 18 20 22 21 19 17 16
35 33 31 27 22 18 15 13 11 10 9 8 6 5 9 11 7 6 4 6 9 23 33 31 32 35 37 34 33 31 30 31 36 28 28 27 23 22 18 20 20 20 19 20 20
35 30 26 23 19 15 13 12 11 9 7 5 5 6 11 8 8 8 8 6 7 9 18 34 41 40 43 43 39 36 34 33 33 35 34 29 24 20 18 17 19 20 18 18 18
31 28 24 21 17 14 12 11 9 6 5 5 6 14 14 10 8 8 13 14 12 7 8 15 36 45 43 46 44 40 34 28 23 26 28 31 26 19 19 20 19 19 18 17 18
29 27 23 19 15 13 12 10 7 6 6 6 15 17 18 10 14 16 17 18 19 17 13 12 15 26 36 47 44 39 37 31 22 23 27 25 26 19 21 22 19 19 19 18 19
29 25 19 16 15 14 11 8 9 9 10 13 20 20 19 17 13 9 10 14 18 23 20 15 17 20 24 36 40 35 33 37 31 18 21 24 30 19 21 21 16 15 15 15 16
26 21 18 18 16 11 9 14 14 22 12 11 11 13 9 12 13 14 12 9 11 22 23 24 17 18 20 28 40 44 35 35 34 18 26 24 21 17 15 17 14 9 9 10 11
23 19 19 18 13 12 14 13 14 14 17 10 12 13 14 16 17 18 14 12 15 18 26 29 23 18 27 31 39 47 39 34 31 23 18 15 17 15 15 16 11 10 10 10 11
21 19 18 14 14 18 19 15 15 17 22 18 19 21 21 19 20 21 23 24 19 17 19 31 29 34 29 31 37 50 49 36 39 27 27 20 19 15 14 16 12 10 11 12 12
17 17 15 14 20 15 21 15 16 21 29 25 19 25 23 22 20 30 20 31 31 26 18 31 41 41 48 36 41 50 51 37 38 41 33 36 29 30 28 22 16 17 20 25 24
18 17 15 13 14 18 16 16 18 33 27 17 21 32 23 18 16 23 37 32 33 37 48 24 26 55 65 47 46 50 56 51 49 51 47 40 38 21 22 20 25 31 34 36 34
21 18 16 18 17 16 15 13 26 46 22 20 18 27 23 21 19 21 30 52 41 36 44 46 34 58 59 64 59 59 63 62 56 52 50 42 38 32 31 40 38 41 39 40 41
20 18 15 18 21 14 15 30 35 27 17 20 28 30 27 21 17 32 59 56 57 60 63 55 47 66 65 60 62 67 72 72 68 60 51 40 42 37 43 49 40 41 42 42 44
19 17 15 19 19 16 27 35 30 17 16 23 32 30 29 26 34 58 61 55 59 57 57 69 53 55 71 59 62 67 67 58 54 52 46 44 40 35 48 44 43 47 48 48 47
22 25 29 19 18 26 39 40 30 27 30 34 34 33 35 55 72 68 58 51 53 70 80 62 60 55 62 59 65 66 69 57 65 69 67 62 48 64 52 52 51 49 50 50 48
29 29 28 22 23 39 42 37 29 32 34 37 42 39 40 51 53 51 49 59 68 91 93 72 77 60 65 58 60 69 62 71 61 62 57 38 35 62 71 62 49 46 50 54 51
30 36 29 23 35 43 45 36 35 37 38 46 47 44 42 48 53 54 50 51 72 94 95 86 78 74 68 56 56 61 76 67 66 52 58 53 55 71 67 59 44 44 48 53 52
32 42 30 28 48 43 42 33 32 39 48 54 55 53 59 63 63 58 57 60 77 88 88 83 92 86 51 59 55 58 62 68 70 75 60 69 75 74 66 42 41 52 56 54 59
36 39 30 42 46 43 40 39 43 48 54 61 64 63 65 64 66 53 54 53 67 86 91 98 93 94 92 85 79 68 68 66 72 70 75 59 50 61 46 46 49 50 60 60 62
41 48 45 46 32 36 40 47 52 54 60 68 70 68 75 74 64 49 50 64 88 94 99 98 96 89 83 66 72 84 80 75 72 66 53 58 48 55 45 49 47 55 57 62 66
46 44 38 45 50 40 46 52 56 63 72 73 75 81 89 89 62 56 77 92 93 94 96 97 84 77 79 73 67 71 72 69 72 65 55 52 42 45 53 51 52 52 53 62 72
41 48 36 35 37 42 55 59 69 78 76 76 81 78 68 68 60 85 85 86 96 89 96 96 85 64 59 52 53 55 49 49 47 45 43 44 44 58 52 51 46 51 58 63 74
46 39 42 35 41 50 53 62 78 80 68 71 76 75 62 61 82 85 85 81 92 97 98 92 69 61 60 44 36 40 43 44 44 49 54 58 58 49 46 49 50 55 59 67 71

GFSSW_prec_cthk_096.txt.gz
RH
37 33 31 30 29 27 26 25 25 25 25 24 23 21 20 20 19 18 23 23 23 21 20 20 24 30 28 31 37 38 36 32 29 28 25 25 24 25 21 18 17 18 18 20 23
37 35 32 31 30 28 27 27 27 27 25 24 23 20 19 19 18 20 22 19 18 18 19 19 20 29 31 32 30 35 37 30 29 28 28 27 27 26 24 19 18 18 19 19 22
40 37 34 32 31 30 29 28 27 25 22 19 17 15 14 13 19 22 15 15 16 17 16 19 17 21 26 30 35 35 32 37 34 32 30 28 28 29 24 18 19 19 19 20 20
42 39 36 34 32 31 30 28 25 20 16 14 12 11 10 10 14 15 9 7 7 9 16 22 23 20 21 24 31 32 34 37 38 37 33 31 31 31 27 21 21 22 22 21 20
46 43 40 35 32 30 27 24 20 16 14 12 10 9 8 15 14 10 7 5 4 6 13 22 27 29 23 23 25 29 32 35 38 38 38 35 32 32 28 25 22 22 21 21 20
47 43 40 37 33 29 25 21 18 14 13 11 9 8 8 15 11 8 7 6 6 7 15 14 17 22 27 28 29 32 33 30 31 37 35 37 32 31 28 23 21 21 20 21 22
47 44 40 35 29 27 28 24 20 14 12 10 9 8 13 9 11 11 10 9 8 7 8 11 17 18 22 27 30 31 31 33 32 31 32 36 32 29 31 22 18 18 20 19 20
47 44 38 32 28 25 22 19 16 14 12 11 10 16 16 12 11 8 10 13 15 14 8 7 10 14 19 23 24 29 35 36 34 42 40 38 29 29 31 37 23 20 19 19 20
46 41 35 32 28 23 21 18 17 16 13 11 15 22 19 17 11 17 15 17 17 18 17 14 9 11 17 24 29 25 29 31 33 38 36 38 31 29 27 30 33 22 23 23 21
44 39 35 32 26 24 21 20 19 17 16 17 22 26 23 19 17 16 12 10 14 13 20 23 15 12 14 20 23 20 26 23 23 30 37 39 35 34 23 30 32 34 23 24 21
40 37 32 28 25 24 21 22 21 24 22 14 14 22 15 15 14 14 16 15 12 10 16 27 26 15 13 16 17 20 22 22 21 27 35 39 39 30 29 27 26 27 22 17 16
38 30 28 26 24 23 24 23 20 20 18 12 14 14 15 14 14 15 22 16 14 14 14 24 27 21 23 18 22 27 28 24 26 29 42 38 34 35 32 16 14 16 10 11 12
39 30 27 27 23 23 26 21 21 20 23 17 23 21 20 19 19 19 24 27 28 25 20 25 19 32 37 31 24 32 34 33 33 35 42 40 35 35 20 21 15 21 13 15 16
31 30 27 23 30 25 29 22 16 18 33 34 27 26 28 27 22 27 26 27 27 33 40 40 32 24 30 50 44 34 37 46 41 43 43 42 43 32 38 33 24 19 18 26 32
31 27 25 19 23 28 26 20 20 32 47 27 28 32 28 25 19 16 22 18 18 28 41 33 42 45 32 38 50 53 44 51 47 45 51 44 50 38 41 36 36 30 34 44 37
32 20 26 34 28 28 20 18 31 56 53 24 21 22 24 24 21 17 14 16 20 41 56 46 29 46 57 35 55 55 56 52 54 57 57 49 48 45 42 37 40 57 50 52 49
26 34 23 25 32 24 18 32 44 42 22 23 24 25 25 21 17 17 17 17 27 62 68 66 62 65 53 35 48 65 65 81 81 68 59 51 49 47 48 63 58 55 58 56 50
40 27 24 26 23 22 26 40 40 24 22 25 25 24 24 23 33 41 35 38 45 66 71 81 48 55 60 47 63 71 67 68 76 71 60 51 52 55 48 59 66 67 65 52 50
30 30 38 31 20 26 40 43 36 29 27 27 26 25 28 32 41 52 49 45 53 75 94 84 58 62 59 51 69 66 75 60 80 69 81 86 49 67 51 75 64 62 62 57 50
34 44 38 19 21 38 48 44 30 30 30 30 32 36 40 43 46 48 48 48 50 69 71 65 91 67 65 65 76 69 60 69 73 95 86 89 71 88 82 70 61 52 52 52 49
35 44 49 27 36 49 50 38 33 30 28 32 41 43 49 56 63 62 65 59 66 65 61 62 86 70 86 81 68 54 71 68 72 71 86 66 73 89 85 71 68 64 59 51 51
43 55 46 30 48 42 46 37 29 33 34 38 40 51 58 64 71 65 61 58 62 61 62 82 92 85 91 66 66 55 56 78 79 69 61 81 96 89 74 70 77 74 61 59 57
50 49 30 41 53 46 40 36 34 37 39 49 53 57 58 62 72 60 58 55 55 56 84 93 84 96 89 76 60 52 49 62 78 74 76 83 94 88 75 79 77 72 55 54 58
45 49 46 47 26 39 36 39 36 44 52 62 61 59 80 84 83 81 63 60 67 79 90 96 82 84 93 80 55 55 58 71 79 83 81 78 89 84 74 69 67 57 48 49 59
46 52 48 56 51 41 36 42 52 55 57 55 59 62 74 73 76 58 70 82 86 91 94 96 95 96 94 87 79 81 84 94 90 77 73 66 74 76 70 63 55 50 42 46 54
41 52 35 43 43 33 49 54 61 65 56 55 62 58 63 70 64 70 82 87 96 91 95 92 91 95 95 89 76 89 92 87 68 68 62 62 68 65 60 59 53 49 42 48 53
44 41 46 41 41 47 51 51 59 72 58 54 58 62 69 87 83 85 87 85 90 88 93 96 98 72 62 50 49 60 58 52 67 63 61 66 66 56 55 53 50 49 50 55 58

GFSSW_prec_cthk_099.txt.gz
RH
44 42 39 35 33 30 28 28 27 27 27 26 24 22 22 22 20 19 20 19 20 19 18 19 19 20 24 29 35 42 40 34 33 33 30 29 28 25 27 24 23 23 21 22 24
48 44 40 37 35 32 31 30 29 28 26 24 23 21 20 19 17 17 20 19 19 18 17 17 15 18 25 24 29 37 37 36 36 32 30 30 30 29 29 27 24 23 23 22 22
53 49 44 40 38 36 33 31 29 27 25 22 20 19 16 14 14 20 15 14 12 11 14 17 17 16 19 25 26 25 28 31 31 35 35 33 31 31 29 30 29 23 24 25 22
59 54 50 46 44 40 36 33 29 26 23 21 19 17 15 13 15 17 13 10 8 6 6 9 15 18 16 18 21 23 23 25 26 30 35 35 33 30 30 30 31 31 26 23 21
61 58 55 50 46 41 38 34 29 26 23 20 17 16 13 15 10 11 11 9 7 5 6 10 15 19 19 16 17 20 20 22 23 26 28 32 32 32 29 32 32 29 28 26 22
64 59 55 50 44 40 36 32 28 24 22 21 20 15 14 16 13 11 10 9 7 7 7 13 17 19 20 19 19 17 17 17 18 22 26 31 29 35 31 33 32 30 26 26 25
63 60 55 50 44 38 35 30 27 24 23 23 22 19 18 10 12 13 13 12 11 9 8 8 11 16 18 20 20 20 21 19 17 19 23 29 26 24 27 31 31 30 27 25 24
68 63 55 50 44 39 33 29 27 24 22 20 20 19 17 12 13 12 13 13 17 16 17 13 9 11 15 17 19 22 24 24 14 17 17 28 25 21 29 32 30 28 24 23 23
70 62 53 47 41 36 33 31 28 25 25 22 22 30 25 20 18 15 19 19 16 17 20 19 16 11 12 16 19 19 25 23 17 18 20 26 26 22 27 30 30 30 28 27 28
64 53 51 46 39 36 32 29 28 28 30 30 31 37 25 21 17 18 18 15 13 13 15 15 20 22 19 15 22 22 26 22 21 13 23 25 25 23 22 30 30 31 31 31 34
60 52 42 38 38 36 32 31 31 35 39 30 25 20 20 21 19 16 14 16 17 16 14 10 21 28 21 17 15 15 19 20 17 18 30 32 27 19 21 31 30 30 34 33 32
50 47 45 40 36 36 34 34 34 33 30 19 16 17 16 14 16 14 19 22 21 20 18 18 16 17 28 28 28 22 22 21 20 17 28 30 28 22 24 26 29 30 32 27 25
49 45 42 36 41 37 43 39 32 29 28 17 23 24 25 21 17 15 24 27 28 28 30 31 24 22 23 30 38 38 36 25 27 28 37 33 29 22 21 27 33 28 29 19 19
47 40 44 37 41 44 42 36 30 27 38 30 31 30 30 26 22 20 20 20 20 24 28 25 26 33 33 34 31 38 40 47 39 40 48 44 39 26 23 30 37 36 36 16 16
45 46 33 43 38 42 35 34 23 32 59 36 35 34 31 25 22 21 22 19 17 18 19 14 17 23 32 35 37 44 47 59 54 49 59 47 46 23 29 37 44 44 32 27 28
44 41 40 41 38 36 36 20 30 55 64 32 31 32 27 25 22 20 15 16 14 15 13 16 19 34 37 41 49 44 58 58 79 60 64 42 47 32 32 41 49 54 56 45 53
47 33 41 34 43 39 24 30 56 65 27 30 27 25 23 22 19 20 30 31 34 38 37 37 32 34 58 59 47 61 59 83 90 78 70 41 50 33 37 48 55 74 55 52 50
37 41 33 40 35 25 32 54 55 35 34 28 26 23 23 21 24 29 33 38 33 43 63 64 50 56 54 67 82 56 59 87 79 72 59 56 48 43 46 50 73 87 69 67 63
40 45 48 31 24 36 41 53 46 35 30 28 24 23 22 24 28 30 35 36 45 59 68 67 45 47 53 54 72 77 71 60 93 77 92 74 63 61 74 71 82 86 85 80 72
55 56 44 26 34 40 50 52 40 32 27 25 25 27 32 32 34 44 46 43 58 62 75 76 65 46 55 70 79 68 67 83 96 95 89 79 89 93 97 85 90 91 87 73 69
46 44 50 33 37 57 58 52 34 29 24 24 29 30 32 34 42 50 55 62 63 68 78 71 65 55 61 76 87 77 72 82 90 76 97 95 98 98 97 96 94 92 81 71 62
47 60 45 34 58 53 50 39 28 24 28 34 34 39 44 45 50 55 55 55 58 66 65 68 81 77 62 64 75 86 85 86 80 74 75 89 97 96 97 96 91 91 84 76 59
55 60 47 44 62 56 39 30 28 32 36 39 42 47 47 57 73 71 71 64 75 71 64 84 85 81 66 73 76 79 74 70 73 87 85 94 98 97 94 91 89 82 78 59 52
56 52 47 47 34 44 36 35 35 43 42 43 42 46 57 68 76 74 70 69 74 69 81 93 86 83 78 72 83 86 75 69 67 86 97 98 96 94 91 87 79 73 66 58 50
38 60 56 56 47 36 29 39 52 50 44 40 42 51 60 58 61 58 58 68 74 83 91 91 84 83 80 75 82 82 88 80 91 97 98 97 87 83 81 77 69 59 56 48 45
56 50 39 49 46 27 42 47 47 52 56 48 54 52 57 64 68 75 86 89 94 87 94 96 96 97 97 92 94 98 95 94 95 95 96 88 82 80 77 69 65 61 52 49 51
46 49 47 33 32 46 52 45 49 61 59 58 60 62 70 67 72 78 84 87 87 89 88 97 98 96 98 92 92 97 94 90 89 89 86 88 83 75 69 65 61 58 58 58 57

GFSSW_prec_cthk_102.txt.gz
RH
61 55 52 51 46 42 39 36 33 31 29 27 25 24 22 22 21 20 21 20 21 22 21 19 18 16 20 22 26 29 33 32 31 29 27 27 28 28 29 27 27 27 23 24 28
66 61 56 53 49 45 41 39 36 33 30 28 25 22 20 20 19 18 21 21 19 18 18 18 18 16 20 24 27 30 32 31 28 29 29 29 29 28 31 31 30 29 28 29 28
71 67 59 55 53 50 46 42 38 35 31 28 25 22 19 18 17 21 18 19 17 14 13 16 19 18 18 21 23 25 27 26 26 25 27 27 28 30 30 31 32 32 30 31 38
74 69 64 61 58 54 51 45 40 36 32 29 25 23 20 18 18 22 22 18 14 11 8 8 12 17 15 16 18 23 19 20 22 23 25 23 23 25 31 30 32 33 33 32 30
73 69 66 64 63 58 53 48 42 36 31 28 26 23 21 22 19 18 16 15 12 10 8 8 11 17 20 17 17 15 14 17 18 19 20 20 20 22 23 28 30 31 32 32 31
73 71 68 65 63 59 53 47 40 35 32 28 25 23 23 28 20 20 16 14 13 10 9 10 14 19 18 19 20 20 18 15 14 13 13 15 15 19 16 21 26 32 33 32 30
82 81 75 62 60 59 52 47 39 35 31 29 26 24 23 20 20 23 21 17 14 14 13 10 10 14 16 16 19 17 17 16 14 15 15 19 16 14 14 17 18 26 32 35 32
86 83 73 67 61 53 48 45 39 36 32 31 28 26 24 20 22 17 18 17 17 18 17 18 19 15 15 15 14 17 19 21 15 16 17 22 21 11 15 16 16 17 21 26 30
86 81 75 71 56 47 44 40 36 34 34 33 30 31 30 26 25 24 19 18 19 19 20 19 20 19 18 14 16 20 19 19 16 17 21 23 23 13 13 15 16 18 19 19 24
84 80 69 56 46 42 42 38 36 34 34 35 36 40 30 30 26 25 23 22 22 19 16 16 19 21 20 22 21 19 24 22 21 13 20 20 21 16 15 18 19 16 16 17 20
79 72 61 50 45 42 36 35 37 38 39 35 34 32 30 32 26 22 22 24 21 21 19 15 16 18 21 23 22 24 25 23 15 12 18 18 20 21 19 21 16 15 17 17 20
77 72 55 50 44 43 39 37 35 37 36 30 28 31 27 22 24 19 18 18 21 23 22 21 20 17 17 20 24 25 27 25 25 21 24 21 20 20 24 21 17 17 18 19 25
81 57 48 46 40 42 39 37 37 38 39 34 36 37 31 27 25 22 25 26 25 25 24 26 22 22 23 26 31 34 33 36 38 30 29 34 31 24 22 24 21 16 16 22 28
69 50 40 43 46 46 48 41 46 32 44 38 41 41 38 32 29 26 25 22 22 21 20 20 19 22 24 24 30 36 30 42 42 41 46 40 51 26 24 24 19 16 20 26 30
56 53 46 35 50 47 44 43 32 39 39 46 40 38 41 34 30 25 22 21 20 18 18 14 16 18 18 16 15 23 30 41 45 52 63 40 64 29 27 21 19 21 36 40 41
56 57 43 38 44 45 41 37 44 60 43 40 43 39 37 27 24 21 20 21 20 18 19 17 19 22 23 25 25 32 41 46 55 72 73 49 67 32 32 27 24 50 67 76 66
58 39 50 42 46 45 37 42 58 57 40 41 40 32 28 26 24 24 24 25 31 33 33 34 31 30 32 35 29 35 61 69 85 80 67 51 62 40 41 39 43 68 77 93 87
47 47 37 43 36 39 33 50 50 42 43 44 36 28 28 28 26 26 26 30 28 40 51 55 46 37 46 53 50 48 74 79 84 78 65 60 57 54 63 72 74 80 85 97 92
51 45 42 40 34 40 51 54 48 40 40 38 31 30 29 26 25 25 28 28 36 47 65 69 57 48 47 46 62 59 72 65 76 67 75 76 70 74 81 90 92 92 95 93 96
58 43 49 42 43 44 55 60 46 47 38 35 31 24 25 23 25 29 33 29 40 53 66 69 67 53 52 52 54 64 55 86 83 85 82 79 84 98 98 95 98 96 95 96 95
50 58 55 57 51 55 56 55 54 42 36 27 22 26 27 33 31 35 41 39 47 62 65 63 64 54 55 64 68 86 86 88 80 80 79 91 98 98 99 98 98 97 94 94 94
65 72 65 46 58 53 60 56 42 33 24 26 27 31 38 36 40 46 52 58 55 63 68 71 68 69 60 52 63 87 90 82 85 68 85 96 98 98 98 98 97 94 84 82 84
69 56 49 48 59 67 50 41 30 30 33 33 35 37 36 44 59 61 63 62 66 72 75 77 83 83 67 80 84 94 95 92 92 97 94 97 98 97 97 95 88 83 80 75 69
55 57 57 63 58 52 47 37 36 36 35 33 34 39 48 51 56 59 56 52 61 64 68 80 87 89 87 76 77 87 95 95 90 96 93 96 98 96 92 89 77 71 72 71 61
60 66 50 57 48 49 36 34 40 40 38 38 42 48 54 58 52 50 58 63 62 66 83 97 94 92 87 83 82 80 95 93 90 96 95 96 97 95 90 83 72 69 64 63 58
51 45 63 52 41 26 33 40 40 43 47 54 56 54 57 62 60 71 72 79 83 85 95 91 97 94 84 85 91 97 96 86 91 93 97 95 93 89 84 76 68 66 63 56 52
48 52 45 50 40 38 41 40 44 48 50 54 56 71 75 78 85 86 86 85 83 87 89 96 98 98 94 91 93 89 98 95 93 91 91 89 88 80 75 71 69 67 66 63 59

GFSSW_prec_cthk_105.txt.gz
RH
66 65 62 58 55 51 46 43 41 38 36 34 31 29 28 26 25 23 22 21 21 22 22 23 21 19 19 21 21 28 31 34 27 26 25 25 27 28 27 28 30 31 28 25 25
72 70 68 63 60 55 50 46 45 42 39 36 33 31 28 27 26 22 23 23 22 23 22 20 20 21 19 22 23 26 35 30 26 26 27 28 29 28 27 28 31 33 31 29 31
79 72 70 69 62 59 56 51 47 45 42 39 35 32 29 28 26 26 22 21 21 21 20 20 21 20 18 21 24 26 29 27 27 26 27 27 26 26 26 28 30 32 33 30 34
80 75 72 70 63 59 57 55 49 47 43 41 37 33 29 28 25 27 25 25 25 22 18 15 16 21 22 20 19 23 21 22 21 20 22 21 21 20 21 23 28 31 34 33 33
66 70 72 71 65 60 57 54 51 46 42 40 38 33 29 28 24 19 20 22 20 19 18 15 13 16 19 19 18 19 17 16 16 15 15 17 17 16 17 18 23 29 32 34 33
69 67 68 69 68 63 58 55 51 45 43 41 38 33 31 35 23 24 27 24 24 22 19 16 17 20 18 16 17 16 17 16 16 16 16 16 14 15 14 13 15 20 26 32 33
72 72 71 71 69 61 58 56 53 45 41 38 37 34 33 29 23 28 26 25 25 24 24 23 17 18 18 16 15 15 15 14 13 14 17 17 14 14 14 13 12 15 18 21 27
74 81 78 76 71 59 58 55 51 45 39 37 35 32 32 27 26 24 25 25 25 22 21 22 23 21 19 16 14 15 16 18 18 17 17 20 18 13 13 15 15 15 16 16 18
83 76 80 78 68 62 57 47 40 39 39 38 36 36 35 30 30 30 29 27 25 24 23 22 22 21 20 21 23 17 18 18 15 14 15 18 19 12 14 14 14 14 14 14 13
82 77 75 78 68 60 51 43 37 37 36 35 37 41 30 33 34 31 30 29 28 29 29 21 21 26 23 24 30 20 23 23 23 22 18 18 19 12 10 10 12 12 12 11 11
76 79 74 70 63 54 45 42 42 37 39 36 33 30 35 36 33 33 31 29 28 28 27 25 22 21 19 20 23 25 27 25 21 18 21 23 22 18 13 12 11 13 15 13 13
85 95 89 70 58 48 45 46 42 40 34 27 25 29 29 29 33 33 33 32 28 26 26 28 28 22 22 23 26 27 29 28 22 21 24 22 21 17 16 19 14 12 15 16 16
99 93 84 69 55 52 47 43 38 35 28 27 27 31 35 34 32 34 32 31 29 32 32 34 29 26 25 25 27 28 30 29 29 21 20 25 22 17 17 16 18 13 17 22 25
78 84 86 66 52 58 52 45 47 39 44 37 41 41 40 43 43 44 44 37 32 29 26 26 24 21 20 20 20 18 20 22 23 29 33 30 41 29 21 18 20 21 29 37 33
92 87 72 57 61 55 55 45 36 38 42 44 39 42 47 47 47 44 36 33 32 30 26 25 21 19 19 17 17 16 16 23 27 34 38 31 43 26 29 29 29 39 45 43 39
85 82 66 51 49 56 51 42 37 52 42 45 44 47 49 48 44 41 38 34 31 27 23 22 23 22 23 24 27 28 31 28 28 35 56 30 49 31 44 49 49 57 57 55 53
81 73 61 55 61 51 46 46 59 63 41 42 45 45 49 51 47 40 36 31 27 30 29 28 24 24 26 30 28 32 48 58 60 48 48 37 47 39 63 73 73 69 68 63 62
66 69 57 59 52 52 44 54 57 43 40 44 42 44 51 43 38 35 32 29 27 33 44 46 37 35 38 36 41 42 55 63 58 62 58 62 73 89 94 97 85 91 84 72 67
51 50 64 52 51 46 44 62 45 35 41 41 43 51 45 41 36 31 29 28 31 34 45 51 49 43 38 41 50 49 53 49 68 68 78 60 50 74 97 93 91 91 83 83 79
54 67 52 56 46 49 55 57 45 46 40 41 52 49 44 37 31 30 29 24 27 30 52 57 58 39 37 47 47 54 61 84 92 91 87 61 79 95 96 95 96 92 96 95 94
65 59 64 52 52 52 59 59 47 48 51 57 54 46 34 34 31 33 31 28 34 37 45 51 57 49 49 50 55 80 89 88 85 82 86 76 92 98 98 97 97 97 97 98 97
74 70 63 55 56 66 67 56 53 54 60 48 36 32 33 34 39 38 35 34 40 47 53 58 72 74 60 58 57 58 71 98 93 90 78 84 98 98 98 96 97 93 88 92 96
70 71 63 73 78 72 59 55 58 55 42 34 33 32 32 36 43 38 36 38 44 51 64 71 86 84 70 88 78 92 98 98 96 92 84 93 98 97 97 95 95 95 90 85 90
62 68 76 83 65 62 60 61 53 40 38 35 32 33 36 40 41 44 41 40 47 51 55 73 86 86 80 72 80 94 94 91 94 98 96 97 97 95 96 92 85 81 87 84 75
72 76 68 66 60 63 64 49 45 39 38 36 38 40 41 46 46 46 44 51 51 58 72 88 96 96 91 88 91 97 98 95 98 97 93 97 96 96 92 86 78 83 77 81 70
73 60 60 63 64 59 51 45 37 38 42 45 43 42 49 60 63 67 65 71 79 82 94 97 94 97 93 90 97 97 95 88 96 98 97 95 94 91 87 89 77 74 76 73 66
55 62 54 59 49 48 38 38 39 45 45 43 45 50 61 72 77 77 78 84 87 95 97 97 98 98 96 88 86 86 96 96 95 94 90 88 89 85 82 79 80 78 76 72 71

GFSSW_prec_cthk_108.txt.gz
RH
70 69 65 64 60 57 53 52 49 46 44 41 39 36 35 34 33 29 27 25 23 22 22 22 22 22 21 21 22 27 31 36 28 28 26 25 26 27 27 26 27 28 26 26 25
74 73 69 68 63 60 58 54 52 50 49 45 42 38 36 34 33 30 29 28 27 25 25 25 24 23 23 23 24 26 37 33 29 27 27 27 27 27 27 27 27 27 27 27 27
73 71 62 62 64 62 57 56 53 52 51 48 45 40 38 35 35 34 29 28 27 26 25 22 22 24 22 25 27 29 30 27 28 29 29 29 27 27 27 27 27 26 26 26 26
63 67 62 56 54 50 49 52 54 52 48 48 45 42 39 38 34 36 34 31 29 28 25 21 20 22 25 25 25 28 26 25 25 23 22 21 20 19 20 20 21 22 25 25 27
61 60 61 55 55 49 48 48 50 51 49 47 45 42 39 39 35 28 27 26 26 27 25 22 21 21 24 25 24 24 22 20 19 17 17 17 17 18 17 17 18 20 22 24 27
63 59 56 61 56 53 48 49 47 47 46 46 42 40 38 44 34 30 29 28 25 24 25 23 25 25 22 21 20 20 19 17 15 15 15 15 15 16 14 13 14 16 17 20 24
63 64 65 60 60 53 55 57 51 47 44 43 42 40 39 39 32 30 29 27 27 27 28 26 23 20 22 21 20 20 20 19 16 17 17 16 15 14 14 13 13 13 13 13 18
71 73 70 66 65 60 59 55 48 52 46 39 38 37 36 34 33 28 29 29 27 28 26 28 27 26 26 23 21 21 19 18 18 15 13 14 15 12 11 12 11 11 11 11 11
86 78 73 76 71 65 61 53 51 49 43 37 36 35 36 32 31 32 30 29 29 31 29 28 29 30 28 27 29 24 23 22 19 18 17 18 17 16 13 13 13 12 11 10 10
68 71 73 70 70 69 60 52 49 45 45 41 39 42 30 31 33 32 32 32 32 32 32 31 32 32 30 32 35 26 25 26 28 22 19 20 18 14 16 16 13 13 12 12 10
64 62 71 74 71 58 57 56 53 45 44 38 38 35 35 36 34 31 30 33 34 35 36 34 33 35 32 29 28 27 31 35 29 27 27 26 22 17 17 17 15 14 10 10 9
54 79 67 82 74 63 60 64 61 54 42 37 34 32 30 31 32 27 29 31 30 31 33 33 34 29 29 30 31 33 33 33 28 27 26 24 20 16 15 16 16 12 11 10 10
62 66 80 79 73 65 73 70 60 55 45 33 33 31 30 29 26 26 27 28 30 38 42 44 37 32 29 30 31 31 32 30 27 23 20 20 19 14 13 12 13 12 13 16 16
63 71 89 96 79 77 73 65 59 47 50 40 38 38 39 39 39 37 36 40 42 42 38 35 33 30 28 26 25 24 21 22 20 21 22 24 29 15 15 13 13 16 25 31 34
63 76 89 87 87 79 70 56 55 50 49 51 44 41 45 44 41 38 36 37 40 46 50 47 40 37 35 30 27 26 22 21 21 28 35 21 29 15 14 15 31 45 58 60 55
61 74 84 85 89 78 66 62 51 51 42 48 45 45 44 44 45 43 42 45 45 43 40 40 39 37 33 31 28 25 29 29 29 35 42 22 24 21 30 59 60 69 76 77 70
66 68 81 87 61 68 67 57 56 59 44 47 46 45 46 47 49 49 54 52 47 45 46 43 38 36 32 32 30 33 39 54 53 62 43 29 41 44 66 77 88 87 96 84 81
62 73 71 63 73 73 59 74 77 50 42 49 48 48 49 48 48 50 49 45 54 51 56 58 44 35 39 32 36 37 42 57 58 57 53 39 50 70 83 81 86 88 97 89 87
72 80 79 76 63 64 71 70 44 50 50 48 46 51 52 49 48 50 50 46 44 41 42 42 47 40 32 30 34 43 48 42 54 46 60 55 59 71 73 83 90 93 95 94 93
94 75 74 66 57 62 62 61 49 44 44 44 44 46 49 46 50 53 47 43 35 31 32 40 47 31 29 36 36 43 51 74 83 89 91 68 78 86 85 87 95 95 95 97 95
91 78 61 63 70 59 66 60 41 46 47 46 48 52 53 58 57 54 45 33 31 32 36 41 48 39 43 45 43 55 80 74 78 82 90 84 85 86 87 92 96 96 97 97 97
75 71 59 65 57 69 65 51 55 52 52 57 57 61 66 56 46 43 34 24 30 36 41 48 63 63 54 61 64 62 71 81 96 96 86 85 91 89 90 93 95 95 96 97 97
76 71 76 67 74 75 67 57 52 58 64 65 64 52 42 41 37 34 35 31 38 42 49 59 72 76 70 92 79 81 93 98 98 98 95 93 91 94 95 94 92 89 96 92 96
84 89 90 85 79 70 58 66 69 64 66 59 46 41 37 37 36 40 42 37 38 42 48 60 74 70 75 67 76 88 92 94 91 92 89 93 97 95 96 90 87 90 91 91 85
79 79 76 89 70 71 72 67 68 65 53 43 36 35 36 42 44 47 45 46 43 46 55 70 85 87 89 83 86 95 97 96 98 91 97 97 96 96 96 92 81 89 87 86 83
75 74 76 81 76 78 70 69 61 53 44 38 37 37 46 52 52 60 62 61 62 70 85 95 94 96 92 85 90 97 97 96 95 97 95 95 95 92 92 94 88 83 82 83 80
75 71 69 74 70 67 68 64 51 45 40 38 40 47 54 57 64 65 68 73 78 87 96 97 98 97 97 91 94 93 97 96 95 93 94 91 93 91 87 86 89 86 86 84 77

GFSSW_prec_cthk_111.txt.gz
RH
74 71 68 65 64 59 58 54 52 49 47 45 47 45 41 38 37 35 33 31 29 29 27 27 26 24 23 24 25 26 28 30 26 27 25 26 26 26 26 25 25 25 24 25 24
73 73 71 68 66 60 49 48 49 53 46 45 48 48 43 42 39 35 35 35 33 30 29 29 28 27 27 26 25 27 31 28 27 26 27 27 27 26 26 26 25 24 24 24 23
70 69 65 61 56 55 47 44 45 40 38 41 46 48 45 41 40 39 37 35 35 33 31 28 27 27 26 28 29 30 28 30 31 30 31 29 27 26 24 24 24 23 23 23 23
69 66 65 57 55 52 49 42 42 40 37 36 43 48 43 41 39 37 35 36 36 34 32 29 27 26 25 25 28 31 30 29 28 27 26 25 24 22 21 19 19 19 21 23 23
64 64 60 56 52 49 48 47 45 42 39 35 39 44 43 42 38 33 31 32 31 30 31 29 27 26 25 25 25 25 23 23 22 21 21 20 20 19 18 16 16 17 18 20 21
63 59 61 58 56 54 52 47 47 45 42 38 38 39 39 43 36 33 30 29 29 30 28 27 28 26 23 23 23 24 23 21 20 18 18 18 18 19 13 14 13 15 15 16 18
67 66 66 64 65 59 57 51 46 47 43 38 40 40 37 35 33 32 29 30 30 30 30 28 25 23 23 23 24 24 23 22 19 20 21 21 18 18 19 15 13 11 10 11 13
72 73 75 72 70 72 64 58 51 46 47 42 40 37 37 32 29 27 27 28 28 28 28 30 30 29 27 25 25 26 25 23 22 22 20 19 16 19 17 14 12 11 10 9 8
78 85 79 74 85 78 70 60 48 48 47 43 37 34 33 31 30 31 28 26 29 27 28 28 28 30 32 31 31 29 24 24 22 22 22 22 21 17 15 15 14 12 11 10 8
65 77 75 74 82 78 67 57 42 40 49 46 41 40 34 29 31 32 34 32 30 28 30 31 31 32 33 32 25 25 27 28 28 25 24 24 22 22 21 17 15 15 12 11 10
60 67 62 77 72 58 65 53 51 47 49 41 39 37 42 39 32 32 34 35 31 32 34 34 34 33 29 30 31 32 32 33 33 30 31 27 21 20 20 18 18 14 13 12 11
51 57 60 69 61 60 69 58 57 55 47 39 37 45 42 41 36 35 33 32 33 34 35 36 36 33 30 29 31 32 33 34 31 30 27 22 18 17 18 19 16 14 14 13 12
42 53 52 55 64 66 64 56 63 68 56 44 45 46 46 41 37 30 27 28 31 34 36 36 36 37 36 35 35 36 36 33 28 26 23 22 20 18 18 18 17 22 28 30 32
38 48 49 59 70 63 59 71 80 76 65 56 51 49 47 43 40 37 35 36 36 38 39 40 40 39 38 36 36 37 31 28 28 27 26 26 27 21 20 22 33 35 36 36 35
41 41 46 55 58 67 74 92 75 62 67 55 47 49 48 44 42 40 40 41 42 41 40 41 39 41 46 51 45 39 35 34 38 41 38 32 38 18 17 28 39 42 42 44 48
42 60 52 53 69 77 70 77 69 66 55 53 49 47 46 43 41 40 40 42 44 45 45 46 48 47 43 42 44 46 49 47 42 44 42 27 29 19 40 48 51 54 54 49 54
61 64 66 75 75 65 78 66 67 66 50 50 49 48 51 51 49 48 47 47 46 48 52 53 47 44 43 43 45 47 51 51 46 49 34 32 33 31 49 55 58 57 57 60 59
55 67 66 68 70 66 61 75 69 53 42 52 56 60 55 52 53 54 49 48 52 51 56 50 47 53 50 48 47 47 44 39 42 40 36 33 28 43 54 57 62 68 73 72 72
57 67 63 77 71 63 76 64 52 49 50 52 57 56 55 50 46 50 50 49 52 52 50 48 51 45 41 41 42 46 40 35 43 39 45 32 43 59 60 73 79 85 84 81 78
57 65 76 75 76 90 85 53 51 58 51 49 54 50 51 46 48 49 46 46 51 50 46 51 54 41 32 36 35 36 49 62 58 71 68 52 53 66 78 83 84 86 86 87 89
68 92 72 77 88 81 71 65 63 48 41 48 54 51 50 51 53 57 56 55 50 50 51 51 50 37 39 40 40 49 53 56 57 64 81 80 82 83 85 87 87 87 87 92 95
68 80 79 82 92 88 71 66 55 57 56 49 49 52 54 62 67 66 60 42 40 41 39 42 49 53 49 59 63 55 59 83 88 84 92 93 85 95 92 94 91 91 94 96 96
73 87 85 76 80 78 64 55 53 57 55 59 58 64 71 67 55 46 42 37 31 32 42 50 56 62 69 89 74 77 78 85 96 92 85 93 94 95 96 95 95 95 94 96 96
76 81 80 79 80 68 62 61 62 56 65 65 70 66 61 49 43 39 36 35 34 35 42 49 61 62 53 55 67 80 83 85 92 91 79 95 96 94 96 94 92 96 93 96 90
71 76 67 77 81 71 68 66 70 69 71 71 67 55 45 46 39 39 41 41 39 40 46 60 73 74 74 75 80 89 89 92 93 89 92 94 95 96 96 96 90 90 92 91 88
76 79 71 85 84 79 73 72 69 77 72 64 51 46 42 37 38 50 57 59 58 62 76 81 88 93 81 72 80 88 94 96 96 96 95 96 95 94 91 92 94 89 95 88 93
88 84 80 89 83 79 74 74 73 70 64 49 45 45 44 47 54 58 63 68 72 81 94 98 96 91 82 88 87 95 96 96 96 96 96 94 93 90 88 89 89 90 89 91 88

GFSSW_prec_cthk_114.txt.gz
RH
70 70 67 67 67 66 64 60 57 48 43 44 46 46 43 44 42 39 38 36 33 32 31 31 30 30 29 28 30 28 26 25 26 26 25 25 26 25 28 26 26 26 26 25 23
74 69 65 66 63 64 61 54 50 41 40 41 42 35 33 38 42 39 40 38 37 34 34 33 32 30 30 30 30 29 27 27 27 27 26 26 27 28 29 28 27 25 26 25 23
68 64 62 62 59 58 50 42 42 38 36 36 36 34 32 35 40 38 37 36 36 35 34 34 32 31 31 32 31 30 30 28 31 28 28 29 28 27 26 26 26 25 24 23 23
66 62 61 58 57 54 47 41 40 34 37 37 36 37 33 35 33 30 32 32 34 34 34 32 32 31 29 28 31 31 29 28 28 29 28 26 24 24 24 23 23 23 24 22 23
67 63 61 55 52 50 51 47 43 39 39 38 36 36 33 37 38 33 30 31 30 29 29 31 31 30 30 29 27 27 23 23 24 24 22 21 21 20 19 19 18 20 19 19 19
66 63 61 57 57 55 54 52 50 45 42 37 37 34 36 37 32 28 25 23 24 27 30 29 29 29 28 28 27 27 26 24 21 21 20 20 18 19 18 17 17 15 15 15 16
68 70 67 66 61 60 58 56 56 52 43 39 39 34 37 38 33 29 26 23 23 24 26 29 28 27 26 25 26 25 25 22 21 21 20 22 21 22 20 19 18 17 16 14 12
65 71 69 69 66 67 65 63 58 60 47 38 35 35 35 34 26 25 24 23 23 24 26 27 26 26 25 25 25 25 26 23 23 24 23 21 18 18 21 19 18 16 14 12 9
65 68 71 79 74 66 69 70 58 57 54 39 33 32 29 27 24 24 23 25 28 28 28 25 26 27 28 26 25 27 20 20 23 23 23 22 20 21 21 20 18 17 15 13 12
79 68 62 71 69 68 75 65 53 48 51 39 39 35 28 27 29 27 28 28 27 27 27 31 33 32 32 29 25 24 26 25 25 24 25 23 22 23 25 22 20 19 17 16 14
54 62 68 73 68 71 71 61 56 51 36 35 36 32 30 34 31 29 32 36 35 35 37 38 36 36 32 31 31 29 30 28 25 27 27 25 23 25 22 19 19 19 20 18 21
40 58 51 59 66 68 79 63 53 49 40 44 40 33 37 37 34 33 35 39 41 40 39 43 37 36 36 33 32 31 31 30 30 28 26 22 17 22 20 21 22 21 26 34 30
40 38 46 44 59 59 58 50 48 45 50 35 37 41 42 44 41 42 43 43 45 42 39 36 32 34 32 32 34 36 36 35 34 31 29 27 21 23 23 24 30 39 36 33 33
55 47 46 51 54 52 59 52 51 55 59 41 39 44 45 46 45 42 44 45 44 40 39 40 36 38 36 37 39 40 41 39 37 37 33 31 28 27 27 31 45 42 41 38 38
45 48 54 64 58 55 56 55 62 49 76 47 48 49 47 44 45 41 40 40 40 40 39 40 38 40 42 42 42 41 41 43 47 48 45 36 41 27 28 33 48 46 47 43 41
45 39 55 49 74 61 57 73 53 69 80 51 49 51 48 44 41 40 43 45 46 45 44 44 44 43 44 45 45 46 46 41 40 41 45 39 39 31 36 55 48 43 45 45 46
49 45 56 60 73 77 66 58 59 73 43 37 39 41 43 40 42 45 48 48 47 49 51 49 48 48 49 49 51 49 45 44 48 59 47 38 38 28 53 47 47 53 53 55 56
52 54 58 66 80 62 72 72 82 50 43 56 46 48 56 47 47 52 54 55 56 52 49 47 47 48 48 45 46 51 49 47 39 37 35 46 37 32 47 43 53 56 58 63 64
50 57 59 69 73 72 68 76 61 44 38 43 45 60 58 51 54 55 55 50 48 47 48 47 48 51 52 48 48 49 52 44 44 40 42 34 26 39 46 56 60 64 70 72 70
54 61 71 70 70 84 65 62 52 51 40 49 50 44 49 55 56 58 53 48 48 48 46 51 53 46 48 49 45 39 48 55 48 60 56 42 43 64 73 70 70 79 77 76 77
67 70 67 66 77 75 69 63 62 48 61 58 51 53 52 54 51 51 47 50 53 59 57 57 46 42 44 39 39 46 42 49 56 61 65 68 82 89 82 82 86 83 81 83 85
89 75 63 75 65 71 74 57 52 59 60 53 52 54 56 51 47 53 58 60 60 55 48 47 48 37 39 45 49 43 50 57 69 77 70 81 75 85 91 89 90 91 89 90 90
75 91 76 67 74 74 65 58 67 67 64 57 57 54 54 56 65 64 63 52 47 42 40 43 46 48 58 80 77 78 68 63 74 85 80 87 87 89 93 93 94 95 92 93 93
67 77 80 68 72 66 62 64 61 66 64 54 55 55 65 71 65 56 48 47 40 35 36 41 40 49 54 52 60 73 81 80 85 87 79 88 94 93 94 95 95 93 94 95 93
76 85 48 60 67 59 62 61 68 66 57 62 64 69 69 64 58 50 41 40 35 36 42 52 57 61 60 63 71 80 85 83 87 87 94 95 95 95 96 96 96 95 95 96 95
74 61 56 65 62 73 68 62 66 67 68 70 73 69 61 49 41 41 37 44 49 44 47 56 67 82 83 74 73 83 84 88 95 92 96 96 95 96 94 95 95 96 96 94 96
77 59 66 66 66 71 62 72 73 73 76 73 69 62 49 44 39 42 52 60 62 62 73 89 90 89 85 73 82 89 92 96 95 94 95 94 94 95 92 92 93 91 93 95 90

GFSSW_prec_cthk_117.txt.gz
RH
62 64 63 63 62 62 59 58 58 56 50 48 38 33 38 37 36 35 37 37 36 35 33 35 34 34 33 32 34 34 31 29 28 27 27 28 26 27 26 27 27 27 27 27 26
67 69 69 66 65 62 59 58 55 48 38 39 38 33 32 32 31 29 34 34 34 34 33 36 35 34 32 32 33 35 32 31 30 28 29 28 27 28 28 28 30 29 29 29 26
72 73 71 67 60 56 54 53 47 41 34 33 35 35 31 31 32 26 24 27 30 31 34 34 32 31 31 31 33 33 34 34 32 29 31 29 28 29 30 28 28 28 28 27 26
79 78 74 64 56 53 51 48 43 41 37 35 34 34 31 33 32 29 28 28 26 28 33 34 33 32 31 28 30 31 33 32 31 30 30 29 28 26 26 26 26 25 25 25 26
85 82 70 63 57 52 52 46 47 43 39 38 35 34 34 32 30 31 29 26 26 27 26 26 28 28 29 29 28 27 29 28 27 27 25 23 22 21 21 21 21 21 22 21 23
84 75 65 62 59 55 56 52 50 48 46 43 39 32 31 32 27 30 27 25 24 25 25 23 23 23 24 24 27 27 26 26 24 26 25 24 22 22 21 20 20 20 18 18 17
86 76 69 66 63 61 60 59 55 52 49 44 40 37 32 25 23 25 27 23 24 23 23 24 24 26 22 23 22 24 20 19 21 21 21 23 22 20 21 23 25 22 20 19 17
83 78 82 67 63 63 60 61 61 55 56 51 41 36 37 27 21 20 21 26 24 22 24 25 25 24 24 23 24 22 22 23 22 20 20 21 21 21 20 21 23 21 19 17 16
60 82 74 66 67 65 71 64 63 58 49 50 42 40 31 29 22 22 22 23 26 27 28 27 26 26 27 30 28 27 27 27 23 19 20 22 21 22 21 23 21 22 21 19 17
49 68 62 56 67 71 75 60 64 54 51 51 43 38 28 20 24 23 24 22 25 27 27 29 29 30 31 31 29 31 26 23 24 25 24 24 25 27 25 25 25 25 23 21 20
42 54 51 55 70 91 66 77 67 53 46 49 46 34 29 27 28 24 27 29 28 30 31 31 33 34 33 33 31 32 36 32 28 27 27 27 29 27 26 23 21 22 23 26 30
30 37 43 49 60 61 64 70 71 68 50 49 41 34 33 31 29 27 28 33 37 38 38 39 38 42 36 34 37 39 35 32 28 27 28 30 25 23 26 27 25 25 26 34 39
36 41 50 51 56 51 66 58 57 56 52 41 38 34 32 28 27 29 32 38 43 44 48 45 46 39 36 39 40 35 35 35 34 33 31 29 26 30 29 28 29 37 41 43 43
49 44 48 51 56 49 52 52 44 49 55 37 36 30 25 30 32 38 42 49 45 46 46 40 41 42 44 41 42 38 37 35 36 37 38 39 39 33 38 35 40 50 53 47 48
50 56 48 74 65 74 69 63 61 62 65 40 33 29 30 32 34 36 40 40 39 39 38 36 34 36 38 38 40 40 41 41 40 41 42 30 43 30 36 37 49 52 51 51 45
46 45 46 56 60 57 65 64 64 80 67 42 33 34 38 39 42 41 40 40 40 39 40 38 46 41 40 41 41 41 42 43 47 51 52 39 45 31 46 55 65 60 54 47 41
44 52 54 48 51 73 57 64 79 64 43 47 42 38 40 39 36 33 34 37 38 41 44 46 46 46 45 48 46 46 50 53 55 53 48 43 43 39 53 54 52 44 37 40 48
51 57 58 52 57 66 61 73 86 46 47 34 32 37 41 39 39 41 45 45 44 44 45 56 60 53 46 45 43 45 53 57 56 51 44 36 40 51 60 56 50 44 53 57 55
43 69 68 51 54 64 69 76 57 46 46 40 36 45 45 41 46 42 47 51 51 49 55 52 50 46 47 46 46 44 48 50 54 52 53 42 35 53 60 55 55 61 63 67 64
43 51 67 88 67 66 96 76 65 59 42 33 38 42 45 45 39 45 48 44 47 50 56 57 56 49 47 50 51 45 46 56 56 62 57 42 43 69 78 78 69 70 70 76 78
48 59 88 91 76 75 73 54 53 47 33 33 35 43 44 53 48 55 50 48 47 46 45 48 56 55 51 50 44 39 44 40 43 60 63 69 88 94 86 84 83 84 84 87 86
51 65 64 84 96 77 80 63 45 48 33 34 49 54 50 59 53 48 51 55 54 54 61 58 61 56 46 41 43 36 45 51 61 56 70 65 69 78 84 85 88 93 94 89 90
53 69 80 98 90 65 63 55 47 44 33 47 45 50 57 59 59 56 58 60 61 65 53 56 49 46 43 42 54 67 57 49 63 79 78 90 82 85 87 88 92 95 95 94 94
52 73 74 83 77 75 62 50 46 41 51 49 50 58 64 60 55 58 62 66 60 50 51 46 43 45 56 74 66 76 67 67 64 71 70 74 97 95 94 94 94 96 96 96 96
54 66 52 65 79 83 61 54 51 55 56 48 56 57 59 63 66 70 63 61 57 45 38 37 49 48 42 60 58 61 69 75 84 81 89 83 91 93 95 95 96 97 97 96 97
49 56 61 63 88 80 64 52 57 58 53 51 60 62 64 70 68 63 56 54 44 37 37 48 55 66 65 60 62 68 70 75 81 85 89 94 95 96 95 96 96 96 96 96 97
46 53 56 67 59 68 63 58 64 59 59 62 64 74 73 67 59 54 49 42 51 57 50 54 69 81 82 73 75 80 77 80 91 89 95 94 94 95 95 95 96 96 96 97 97

GFSSW_prec_cthk_120.txt.gz
RH
56 56 58 59 58 57 56 56 54 50 48 44 42 38 36 32 29 31 29 27 29 33 31 34 37 36 34 33 35 34 35 32 31 32 32 29 27 28 28 28 28 29 29 29 30
57 59 60 62 61 60 59 58 54 50 46 46 36 30 30 30 23 23 24 21 22 27 29 35 36 34 34 34 33 33 34 34 33 31 30 30 31 30 29 29 29 30 30 30 30
60 63 65 65 65 65 63 60 53 45 41 40 32 29 29 28 21 23 23 25 27 25 26 29 30 31 31 30 30 31 30 32 32 32 30 31 33 32 30 30 33 35 34 35 34
66 68 72 72 73 70 67 60 51 46 40 37 34 32 30 29 25 21 21 23 25 26 30 31 29 30 30 28 28 28 29 29 29 28 31 30 30 29 28 29 32 27 28 28 28
79 81 83 84 80 77 67 59 51 47 45 40 39 35 31 28 25 19 19 20 19 20 24 26 26 25 24 24 23 21 22 23 24 26 23 24 23 23 22 23 24 25 26 25 23
95 97 98 92 84 76 68 61 53 51 48 45 42 38 36 33 29 23 20 18 17 19 20 19 20 22 22 24 22 22 21 21 21 20 18 17 17 16 20 18 18 21 24 24 22
94 99 99 95 92 79 70 60 55 52 53 49 46 42 37 33 26 24 22 21 19 18 19 19 21 23 24 24 23 23 22 21 21 21 17 15 15 17 16 15 17 20 21 23 22
88 96 97 99 92 84 74 65 55 53 52 51 46 38 32 35 24 20 23 22 20 18 18 20 23 23 21 22 23 24 22 23 23 22 19 18 17 19 18 19 20 21 21 22 23
82 82 81 85 83 82 79 66 58 56 59 52 49 40 34 25 21 21 19 17 16 17 18 19 22 23 22 23 25 29 27 26 26 26 22 20 20 20 20 19 21 23 25 25 26
47 62 63 77 72 78 76 65 64 58 59 48 46 40 33 28 28 25 23 24 20 21 20 22 23 24 23 25 27 30 31 29 29 28 27 23 21 22 23 24 24 24 26 28 28
19 21 34 71 67 63 67 70 62 70 67 51 48 44 35 34 29 25 25 26 22 22 22 26 28 28 27 29 30 31 31 29 29 33 38 30 28 24 26 28 26 25 24 25 26
26 23 24 38 61 56 54 53 63 72 66 49 44 38 37 31 30 26 28 30 26 22 24 28 31 33 34 37 37 34 35 36 33 32 34 28 30 24 31 29 26 26 27 32 36
32 34 34 33 41 43 43 50 62 61 50 40 32 27 33 34 31 31 32 29 28 32 35 38 40 41 39 37 38 37 43 41 37 33 33 35 33 30 28 29 33 35 41 43 44
38 37 43 48 49 56 48 48 51 47 44 26 29 34 33 32 31 29 32 32 33 38 41 39 42 41 40 36 40 34 40 37 36 36 37 32 37 35 27 30 37 55 56 48 45
40 48 47 51 53 60 52 56 57 50 50 35 40 36 35 34 29 27 33 32 35 41 41 35 34 34 33 32 36 34 36 39 42 41 44 27 45 39 33 39 60 61 60 54 53
38 41 45 47 48 56 60 68 73 77 66 45 38 34 34 36 34 32 34 34 32 33 34 28 31 34 34 36 38 40 43 43 44 47 51 35 43 34 49 60 62 67 69 68 62
40 45 44 45 45 57 65 57 72 74 40 44 42 38 37 36 34 31 31 30 32 37 36 34 32 35 35 35 42 45 50 59 58 57 55 41 49 73 68 61 63 64 67 65 59
36 52 56 54 48 53 59 63 76 34 34 38 37 37 38 38 34 32 30 34 35 38 38 40 44 50 50 46 46 51 53 57 61 59 54 45 46 63 68 67 70 64 64 61 53
33 47 71 81 68 61 57 81 64 43 41 54 55 44 36 34 35 35 37 34 35 40 40 43 39 45 42 52 53 55 53 49 55 49 56 48 43 64 71 68 67 68 64 62 62
31 43 43 62 78 85 81 81 53 36 51 54 49 36 38 39 39 38 36 38 37 42 42 45 47 45 49 49 45 47 51 57 58 64 63 49 56 85 88 85 82 81 77 72 74
36 44 49 53 72 96 84 55 51 49 49 51 57 43 37 38 53 45 44 43 39 42 42 45 48 43 44 48 50 55 56 55 51 48 58 64 71 87 95 91 90 85 78 78 85
40 49 55 49 86 76 72 54 62 68 77 60 44 40 39 39 44 48 49 60 46 45 46 53 54 58 57 54 52 47 42 42 66 64 47 55 73 82 88 87 86 82 84 87 88
44 58 54 62 68 67 93 85 72 74 67 42 35 31 43 42 50 50 48 57 56 51 56 51 59 63 51 46 40 36 47 57 52 78 72 83 89 89 90 87 87 87 89 90 91
51 65 64 59 56 52 74 87 76 66 64 55 35 37 40 44 49 51 59 64 61 57 54 58 59 59 52 55 66 75 92 76 63 62 64 75 93 88 83 84 90 93 92 94 96
53 61 41 53 50 51 66 64 74 64 54 52 39 38 39 58 52 55 60 68 67 67 57 51 54 48 39 37 46 56 61 63 73 72 84 85 95 85 88 91 96 95 95 96 97
59 49 42 37 55 56 74 86 68 70 62 46 45 44 62 52 52 70 69 69 71 63 54 51 45 48 47 42 43 58 57 50 57 69 76 82 85 89 93 97 96 96 97 97 97
56 46 44 39 50 57 51 57 64 80 62 47 44 58 58 55 65 74 68 65 66 58 51 47 52 53 52 62 74 74 69 72 75 78 80 86 89 94 96 96 96 97 97 97 96